[[{"header":{"parameterUnit":"m.s-1","parameterCategory":1,"la1":30.6,"la2":29.2853,"lo1":-89.7004,"lo2":-87.6739,"dy":0.0162,"dx":0.0183,"nx":112,"ny":82,"refTime":"2023-08-10T06:00:00:Z","depth":0,"parameterNumber":2,"parameterNumberName":"U-component_of_WINDS"},"data":[0.0,0.0,0.0,0.0,0.0,0.0,0.0,0.0,0.0,0.0,0.0,0.0,0.0,0.0,0.0,0.0,0.0,0.0,0.0,0.0,0.0,0.0,0.0,0.0,0.0,0.0,0.0,0.0,0.0,0.0,0.0,0.0,0.0,0.0,0.0,0.0,0.0,0.0,0.0,0.0,0.0,0.0,0.0,0.0,0.0,0.0,0.0,0.0,0.0,0.0,0.0,0.0,0.0,0.0,0.0,0.0,0.0,0.0,0.0,0.0,0.0,0.0,0.0,0.0,0.0,0.0,0.0,0.0,0.0,0.0,0.0,0.0,0.0,0.0,0.0,0.0,0.0,0.0,0.0,0.0,0.0,0.0,0.0,0.0,0.0,0.0,0.0,0.0,0.0,0.0,0.0,-4.3664,-4.4524,-4.5069,-4.515,-4.515,-4.5257,-4.5477,0.0,0.0,0.0,0.0,0.0,0.0,0.0,0.0,0.0,0.0,0.0,0.0,0.0,0.0,0.0,0.0,0.0,0.0,0.0,0.0,0.0,0.0,0.0,0.0,0.0,0.0,0.0,0.0,0.0,0.0,0.0,0.0,0.0,0.0,0.0,0.0,0.0,0.0,0.0,0.0,0.0,0.0,0.0,0.0,0.0,0.0,0.0,0.0,0.0,0.0,0.0,0.0,0.0,0.0,0.0,0.0,0.0,0.0,0.0,0.0,0.0,0.0,0.0,0.0,0.0,0.0,0.0,0.0,0.0,0.0,0.0,0.0,0.0,0.0,0.0,0.0,0.0,0.0,0.0,0.0,0.0,0.0,0.0,0.0,0.0,0.0,0.0,0.0,0.0,0.0,0.0,0.0,0.0,0.0,0.0,0.0,0.0,0.0,0.0,0.0,0.0,0.0,0.0,0.0,-4.0863,-4.2766,-4.3718,-4.4412,-4.4978,-4.5032,-4.5059,-4.5086,0.0,0.0,0.0,0.0,0.0,0.0,0.0,0.0,0.0,0.0,0.0,0.0,0.0,0.0,0.0,0.0,0.0,0.0,0.0,0.0,0.0,0.0,0.0,0.0,0.0,0.0,0.0,0.0,0.0,0.0,0.0,0.0,0.0,0.0,0.0,0.0,0.0,0.0,0.0,0.0,0.0,0.0,0.0,0.0,0.0,0.0,0.0,0.0,0.0,0.0,0.0,0.0,0.0,0.0,0.0,0.0,0.0,0.0,0.0,0.0,0.0,0.0,0.0,0.0,0.0,0.0,0.0,0.0,0.0,0.0,0.0,0.0,0.0,0.0,0.0,0.0,0.0,0.0,0.0,0.0,0.0,0.0,0.0,0.0,0.0,0.0,0.0,0.0,0.0,0.0,0.0,0.0,0.0,0.0,0.0,0.0,0.0,0.0,0.0,0.0,0.0,0.0,0.0,-3.9188,-4.0151,-4.146,-4.2262,-4.2948,-4.3598,-4.4034,-4.4075,-4.3569,-4.449,0.0,0.0,0.0,0.0,0.0,0.0,0.0,0.0,0.0,0.0,0.0,0.0,0.0,0.0,0.0,0.0,0.0,0.0,0.0,0.0,0.0,0.0,0.0,0.0,0.0,0.0,0.0,0.0,0.0,0.0,0.0,0.0,0.0,0.0,0.0,0.0,0.0,0.0,0.0,0.0,0.0,0.0,0.0,0.0,0.0,0.0,0.0,0.0,0.0,0.0,0.0,0.0,0.0,0.0,0.0,0.0,0.0,0.0,0.0,0.0,0.0,0.0,0.0,0.0,0.0,0.0,0.0,0.0,0.0,0.0,0.0,0.0,0.0,0.0,0.0,0.0,0.0,0.0,0.0,0.0,0.0,0.0,0.0,0.0,0.0,0.0,0.0,0.0,0.0,0.0,0.0,0.0,0.0,0.0,0.0,0.0,0.0,0.0,0.0,0.0,0.0,0.0,-3.8685,-3.962,-4.0662,-4.1213,-4.1787,-4.2402,-4.3032,-4.3064,-4.2364,-4.3505,0.0,0.0,0.0,0.0,0.0,0.0,0.0,0.0,0.0,0.0,0.0,0.0,0.0,0.0,0.0,0.0,0.0,0.0,0.0,0.0,0.0,0.0,0.0,0.0,0.0,0.0,0.0,0.0,0.0,0.0,0.0,0.0,0.0,0.0,0.0,0.0,0.0,0.0,0.0,0.0,0.0,0.0,0.0,0.0,0.0,0.0,0.0,0.0,0.0,0.0,0.0,0.0,0.0,0.0,0.0,0.0,0.0,0.0,0.0,0.0,0.0,0.0,0.0,0.0,0.0,0.0,0.0,0.0,0.0,0.0,0.0,0.0,0.0,0.0,0.0,0.0,0.0,0.0,0.0,0.0,0.0,0.0,0.0,0.0,0.0,0.0,0.0,0.0,0.0,0.0,0.0,0.0,0.0,0.0,0.0,0.0,0.0,0.0,0.0,0.0,0.0,0.0,-3.8762,-3.92,-4.1061,-4.1286,-4.1583,-4.226,-4.2364,-4.2381,-4.2286,-4.2877,0.0,0.0,0.0,0.0,0.0,0.0,0.0,0.0,0.0,0.0,0.0,0.0,0.0,0.0,0.0,0.0,0.0,0.0,0.0,0.0,0.0,0.0,0.0,0.0,0.0,0.0,0.0,0.0,0.0,0.0,0.0,0.0,0.0,0.0,0.0,0.0,0.0,0.0,0.0,0.0,0.0,0.0,0.0,0.0,0.0,0.0,0.0,0.0,0.0,0.0,0.0,0.0,0.0,0.0,0.0,0.0,0.0,0.0,0.0,0.0,0.0,0.0,0.0,0.0,0.0,0.0,0.0,0.0,0.0,0.0,0.0,0.0,0.0,0.0,0.0,0.0,0.0,0.0,0.0,0.0,0.0,0.0,0.0,0.0,0.0,0.0,0.0,0.0,0.0,0.0,0.0,0.0,0.0,0.0,0.0,0.0,0.0,0.0,0.0,0.0,0.0,0.0,-3.7916,-3.8366,0.0,-3.9973,-4.0234,-4.0874,-4.1339,-4.1407,-4.0976,0.0,0.0,0.0,0.0,0.0,0.0,0.0,0.0,0.0,0.0,0.0,0.0,0.0,0.0,0.0,0.0,0.0,0.0,0.0,0.0,0.0,0.0,0.0,0.0,0.0,0.0,0.0,0.0,0.0,0.0,0.0,0.0,0.0,0.0,0.0,0.0,0.0,0.0,0.0,0.0,0.0,0.0,0.0,0.0,0.0,0.0,0.0,0.0,0.0,0.0,0.0,0.0,0.0,0.0,0.0,0.0,0.0,0.0,0.0,0.0,0.0,0.0,0.0,0.0,0.0,0.0,0.0,0.0,0.0,0.0,0.0,0.0,0.0,0.0,0.0,0.0,0.0,0.0,0.0,0.0,0.0,0.0,0.0,0.0,0.0,0.0,0.0,0.0,0.0,0.0,0.0,0.0,0.0,0.0,0.0,0.0,0.0,0.0,0.0,0.0,0.0,0.0,-3.7679,-3.7519,-3.7796,0.0,-3.9098,-3.9365,-3.9773,-4.0467,-4.0629,-4.013,0.0,0.0,0.0,0.0,0.0,0.0,0.0,0.0,0.0,0.0,0.0,0.0,0.0,0.0,0.0,0.0,0.0,0.0,0.0,0.0,0.0,0.0,0.0,0.0,0.0,0.0,0.0,0.0,0.0,0.0,0.0,0.0,0.0,0.0,0.0,0.0,0.0,0.0,0.0,0.0,0.0,0.0,0.0,0.0,0.0,0.0,0.0,0.0,0.0,0.0,0.0,0.0,0.0,0.0,0.0,0.0,0.0,0.0,0.0,0.0,0.0,0.0,0.0,0.0,0.0,0.0,0.0,0.0,0.0,0.0,0.0,0.0,0.0,0.0,0.0,0.0,0.0,0.0,0.0,0.0,0.0,0.0,0.0,0.0,0.0,0.0,0.0,0.0,0.0,0.0,0.0,0.0,0.0,0.0,0.0,0.0,0.0,0.0,0.0,0.0,0.0,0.0,-3.8153,-3.7767,-3.7637,-3.8238,-3.8821,-3.9206,-3.9206,-3.9747,-4.0096,0.0,0.0,0.0,0.0,0.0,0.0,0.0,0.0,0.0,0.0,0.0,0.0,0.0,0.0,0.0,0.0,0.0,0.0,0.0,0.0,0.0,0.0,0.0,0.0,0.0,0.0,0.0,0.0,0.0,0.0,0.0,0.0,0.0,0.0,0.0,0.0,0.0,0.0,0.0,0.0,0.0,0.0,0.0,0.0,0.0,0.0,0.0,0.0,0.0,0.0,0.0,0.0,0.0,0.0,0.0,0.0,0.0,0.0,0.0,0.0,0.0,0.0,0.0,0.0,0.0,0.0,0.0,0.0,0.0,0.0,0.0,0.0,0.0,0.0,0.0,0.0,0.0,0.0,0.0,0.0,0.0,0.0,0.0,0.0,0.0,0.0,0.0,0.0,0.0,0.0,0.0,0.0,0.0,0.0,0.0,0.0,0.0,0.0,0.0,0.0,0.0,0.0,0.0,-3.7637,-3.7519,-3.7637,-3.8238,-3.8821,-3.9206,-3.9206,-3.9747,-4.0096,-4.0096,0.0,0.0,0.0,0.0,0.0,0.0,0.0,0.0,0.0,0.0,0.0,0.0,0.0,0.0,0.0,0.0,0.0,0.0,0.0,0.0,0.0,0.0,0.0,0.0,0.0,0.0,0.0,0.0,0.0,0.0,0.0,0.0,0.0,0.0,0.0,0.0,0.0,0.0,0.0,0.0,0.0,0.0,0.0,0.0,0.0,0.0,0.0,0.0,0.0,0.0,0.0,0.0,0.0,0.0,0.0,0.0,0.0,0.0,0.0,0.0,0.0,0.0,0.0,0.0,0.0,0.0,0.0,0.0,0.0,0.0,0.0,0.0,0.0,0.0,0.0,0.0,0.0,0.0,0.0,0.0,0.0,0.0,0.0,0.0,0.0,0.0,0.0,0.0,0.0,0.0,0.0,0.0,0.0,0.0,0.0,0.0,0.0,0.0,0.0,0.0,0.0,0.0,-3.7043,-3.7043,-3.7178,-3.7533,-3.8124,-3.859,-3.8821,-3.9375,-3.9825,-4.007,0.0,0.0,0.0,0.0,0.0,0.0,0.0,0.0,0.0,0.0,0.0,0.0,0.0,0.0,0.0,0.0,0.0,0.0,0.0,0.0,0.0,0.0,0.0,0.0,0.0,0.0,0.0,0.0,0.0,0.0,0.0,0.0,0.0,0.0,0.0,0.0,0.0,0.0,0.0,0.0,0.0,0.0,0.0,0.0,0.0,0.0,0.0,0.0,0.0,0.0,0.0,0.0,0.0,0.0,0.0,0.0,0.0,0.0,0.0,0.0,0.0,0.0,0.0,0.0,0.0,0.0,0.0,0.0,0.0,0.0,0.0,0.0,0.0,0.0,0.0,0.0,0.0,0.0,0.0,0.0,0.0,0.0,0.0,0.0,0.0,0.0,0.0,0.0,0.0,0.0,0.0,0.0,0.0,0.0,0.0,0.0,0.0,0.0,0.0,0.0,0.0,0.0,-3.6492,-3.6492,-3.6492,-3.6492,-3.7043,-3.7621,-3.8266,-3.8849,-3.9444,-4.0045,0.0,0.0,0.0,0.0,0.0,0.0,0.0,0.0,0.0,0.0,0.0,0.0,0.0,0.0,0.0,0.0,0.0,0.0,0.0,0.0,0.0,0.0,0.0,0.0,0.0,0.0,0.0,0.0,0.0,0.0,0.0,0.0,0.0,0.0,0.0,0.0,0.0,0.0,0.0,0.0,0.0,0.0,0.0,0.0,0.0,0.0,0.0,0.0,0.0,0.0,0.0,0.0,0.0,0.0,0.0,0.0,0.0,0.0,0.0,0.0,-4.1311,0.0,0.0,0.0,0.0,0.0,0.0,0.0,0.0,0.0,0.0,0.0,0.0,0.0,0.0,0.0,0.0,0.0,0.0,0.0,0.0,0.0,0.0,0.0,0.0,0.0,0.0,0.0,0.0,0.0,0.0,0.0,0.0,0.0,0.0,0.0,0.0,0.0,0.0,0.0,0.0,0.0,-3.6492,-3.6492,-3.6492,-3.6492,-3.7043,-3.7621,-3.8266,-3.8849,-3.9444,-4.0045,-4.0096,0.0,0.0,0.0,0.0,0.0,0.0,0.0,0.0,0.0,0.0,0.0,0.0,0.0,0.0,0.0,0.0,0.0,0.0,0.0,0.0,0.0,0.0,0.0,0.0,0.0,0.0,0.0,0.0,0.0,0.0,0.0,0.0,0.0,0.0,0.0,0.0,0.0,0.0,0.0,0.0,0.0,0.0,0.0,0.0,0.0,0.0,0.0,0.0,0.0,0.0,0.0,0.0,0.0,0.0,0.0,0.0,0.0,0.0,0.0,0.0,-4.0995,0.0,0.0,0.0,0.0,0.0,0.0,0.0,0.0,0.0,0.0,0.0,0.0,0.0,0.0,0.0,0.0,0.0,0.0,0.0,0.0,0.0,0.0,0.0,0.0,0.0,0.0,0.0,0.0,0.0,0.0,0.0,0.0,0.0,0.0,0.0,0.0,0.0,0.0,0.0,0.0,-3.6922,-3.6693,-3.6492,-3.6492,-3.6785,-3.7312,-3.8222,-3.8601,-3.9162,-4.0045,-4.0096,0.0,0.0,0.0,0.0,0.0,0.0,0.0,0.0,0.0,0.0,0.0,0.0,0.0,0.0,0.0,0.0,0.0,0.0,0.0,0.0,0.0,0.0,0.0,0.0,0.0,0.0,0.0,0.0,0.0,0.0,0.0,0.0,0.0,0.0,0.0,0.0,0.0,0.0,0.0,0.0,0.0,0.0,0.0,0.0,0.0,0.0,0.0,0.0,0.0,0.0,0.0,0.0,0.0,-4.0912,-4.0912,-4.0912,-4.0888,-4.0864,-4.0864,-4.0721,-4.0673,-4.0697,0.0,0.0,0.0,0.0,0.0,0.0,0.0,0.0,0.0,0.0,0.0,0.0,0.0,0.0,0.0,0.0,0.0,0.0,0.0,0.0,0.0,0.0,0.0,0.0,0.0,-3.7592,-3.7371,0.0,0.0,0.0,0.0,0.0,0.0,0.0,0.0,0.0,0.0,0.0,0.0,-3.7238,-3.6816,-3.6492,-3.6492,-3.6492,-3.6937,-3.8067,-3.8222,-3.8794,-3.9901,-4.007,-4.0213,0.0,0.0,0.0,0.0,0.0,0.0,0.0,0.0,0.0,0.0,0.0,0.0,0.0,0.0,0.0,0.0,0.0,0.0,0.0,0.0,0.0,0.0,0.0,0.0,0.0,0.0,0.0,0.0,0.0,0.0,0.0,0.0,-4.0377,-4.0849,0.0,0.0,0.0,0.0,0.0,0.0,0.0,0.0,0.0,0.0,0.0,0.0,0.0,0.0,-4.1117,-4.0982,-4.0912,-4.0912,-4.0912,-4.0912,-4.0912,-4.0793,-4.0721,-4.0721,-4.0583,0.0,-4.0697,-4.0558,0.0,0.0,0.0,0.0,0.0,0.0,0.0,0.0,0.0,0.0,0.0,0.0,0.0,0.0,0.0,0.0,0.0,0.0,0.0,0.0,0.0,0.0,-3.6739,-3.6739,-3.6693,-3.6631,0.0,-3.7562,-3.8181,-3.7709,-3.8039,0.0,0.0,0.0,0.0,0.0,0.0,0.0,-3.6616,-3.6554,-3.6492,-3.6492,-3.6492,-3.6785,-3.746,-3.7982,-3.864,-3.9437,-3.9978,-4.0404,-4.0624,-4.0648,0.0,0.0,0.0,0.0,0.0,0.0,0.0,0.0,0.0,0.0,0.0,0.0,0.0,0.0,0.0,0.0,0.0,0.0,0.0,0.0,0.0,0.0,0.0,0.0,0.0,0.0,0.0,0.0,0.0,-4.1116,-4.0978,-4.1521,-4.1503,-4.1635,0.0,0.0,0.0,0.0,0.0,0.0,0.0,0.0,0.0,-4.114,-4.1186,-4.1157,-4.1093,-4.0959,-4.0912,-4.0912,-4.0912,-4.0912,-4.0912,-4.084,-4.0817,-4.0817,-4.0673,-4.0583,-4.0583,-4.0534,-4.0534,-4.0583,0.0,0.0,0.0,0.0,-3.9799,-3.9927,-3.9391,-3.8849,0.0,0.0,0.0,0.0,0.0,0.0,0.0,0.0,0.0,0.0,0.0,0.0,0.0,-3.6569,-3.6492,-3.6492,-3.6492,-3.6922,-3.7312,0.0,-3.7883,-3.821,-3.7854,0.0,0.0,0.0,0.0,0.0,-3.7013,-3.6723,-3.6492,-3.6492,-3.6492,-3.6769,-3.7445,-3.7735,-3.8362,-3.9437,-3.9756,-4.0146,-4.0673,-4.0697,-4.0745,0.0,0.0,0.0,0.0,0.0,0.0,0.0,0.0,0.0,0.0,0.0,0.0,0.0,0.0,0.0,0.0,0.0,0.0,0.0,0.0,0.0,0.0,0.0,0.0,0.0,0.0,0.0,0.0,-4.1547,-4.1321,-4.1799,-4.17,-4.1743,0.0,0.0,0.0,0.0,0.0,0.0,-4.0717,-4.0907,-4.1024,-4.1065,-4.114,-4.1157,-4.1047,-4.0959,-4.0912,-4.0912,-4.0912,-4.0912,-4.0912,-4.0847,-4.0864,-4.0894,-4.0769,-4.0673,-4.0607,-4.0534,-4.0558,-4.0624,-4.0412,-4.0379,-4.033,-3.9722,-3.9722,-3.9952,-3.9216,-3.8629,-3.8266,-3.8435,0.0,-3.749,-3.7924,0.0,0.0,0.0,0.0,-3.7924,-3.7328,-3.7178,-3.7074,-3.6616,-3.6492,-3.6492,-3.6492,-3.6631,-3.6816,0.0,-3.7533,-3.7709,-3.7238,0.0,0.0,0.0,0.0,-3.7178,-3.7178,-3.6785,-3.6492,-3.6492,-3.6523,-3.6861,-3.7531,-3.7764,-3.8402,-3.9594,-3.9791,-4.0137,-4.0721,-4.0745,-4.0793,-4.0912,0.0,0.0,0.0,0.0,0.0,0.0,0.0,0.0,0.0,0.0,0.0,0.0,0.0,0.0,0.0,0.0,0.0,0.0,0.0,0.0,0.0,0.0,0.0,0.0,0.0,0.0,0.0,0.0,0.0,-4.0942,-4.0676,0.0,0.0,0.0,0.0,-4.0825,-4.0546,-4.0286,-3.9961,-4.0621,-4.0741,-4.0171,-4.0836,-4.1111,-4.0912,-4.0894,-4.0912,-4.0912,-4.0912,-4.0912,-4.0912,-4.0769,-4.0793,-4.0894,-4.0769,-4.0769,-4.0847,-4.0607,-4.0493,-4.051,-4.051,-4.0558,-4.0648,-4.0337,-3.9901,-3.9332,-3.8585,-3.7953,-3.7358,-3.68,-3.6983,-3.7417,-3.7447,-3.7854,0.0,0.0,-3.7447,-3.7298,-3.6693,-3.6554,-3.6554,-3.6523,-3.6492,-3.6492,-3.6492,-3.6952,-3.7178,0.0,-3.6585,-3.6569,-3.6554,0.0,-3.6569,-3.6554,-3.6554,-3.6554,-3.6554,-3.6523,-3.6492,-3.6492,-3.66,-3.6937,-3.7531,-3.825,-3.8968,-3.9732,-4.0328,-4.0721,-4.0871,-4.0888,-4.0894,-4.0912,-4.0912,0.0,0.0,0.0,0.0,0.0,0.0,0.0,0.0,0.0,0.0,0.0,0.0,0.0,0.0,0.0,0.0,0.0,0.0,0.0,0.0,0.0,0.0,0.0,0.0,0.0,0.0,0.0,0.0,-4.0978,-4.0577,0.0,0.0,-4.0594,-4.0449,-4.0538,-3.9995,-3.985,-4.0212,-4.0945,-4.1334,-4.1203,-4.2165,-4.2586,-4.2378,-4.2378,-4.2378,-4.2378,-4.2378,-4.2378,-4.2378,-4.2329,-4.2329,-4.2378,-4.2248,-4.2223,-4.223,-4.2156,-4.1523,-4.0624,-4.0436,-4.0387,-4.0362,-3.9799,-3.9696,-3.9756,-3.9109,-3.8756,-3.8395,-3.7401,-3.6952,-3.6816,-3.6816,-3.6967,-3.7088,-3.6892,-3.6816,-3.6785,-3.6554,-3.6492,-3.6492,-3.6492,-3.6492,-3.6492,-3.6492,-3.6662,-3.6754,-3.6554,-3.6816,-3.6952,-3.6585,-3.6492,-3.6492,-3.6492,-3.6492,-3.6492,-3.6492,-3.6492,-3.6523,-3.6631,-3.6662,-3.6892,-3.7312,-3.794,-3.8645,-3.9375,-3.9944,-4.0451,-4.0871,-4.0912,-4.0912,-4.0912,-4.0912,-4.0912,0.0,0.0,0.0,0.0,0.0,0.0,0.0,0.0,0.0,0.0,0.0,0.0,0.0,0.0,0.0,0.0,0.0,0.0,0.0,0.0,0.0,0.0,0.0,0.0,0.0,0.0,-4.0366,-4.0803,-4.0292,-4.0045,-4.0458,-4.012,-3.9944,-4.002,-3.9816,-3.9924,-4.0569,-4.1477,-4.203,-4.2215,-4.3051,-4.3402,-4.3189,-4.3189,-4.3189,-4.3189,-4.3189,-4.3189,-4.3189,-4.3189,-4.3189,-4.3207,-4.3106,-4.3081,-4.3081,-4.3081,-4.2454,-4.1484,-4.0988,-4.0633,-4.0313,-3.9773,-3.9816,-4.002,-3.9418,-3.9055,-3.8728,-3.7725,-3.7118,-3.6754,-3.6554,-3.6492,-3.6492,-3.6492,-3.6492,-3.6492,-3.6492,-3.6492,-3.6492,-3.6492,-3.6492,-3.6492,-3.6492,-3.6492,-3.6492,-3.6492,-3.6831,-3.6983,-3.6585,-3.6492,-3.6492,-3.6492,-3.6492,-3.6492,-3.6492,-3.6492,-3.6554,-3.6693,-3.6754,-3.6998,-3.7476,-3.81,-3.8756,-3.9428,-3.9995,-4.0483,-4.0871,-4.0912,-4.0912,-4.0912,-4.0912,-4.0912,-4.0912,0.0,0.0,0.0,0.0,0.0,0.0,0.0,0.0,0.0,0.0,0.0,0.0,0.0,0.0,0.0,0.0,0.0,0.0,0.0,0.0,0.0,0.0,0.0,-4.0754,-4.0449,-4.0211,-4.0351,-3.9747,-3.9484,-3.9875,-3.958,-3.9358,-3.9358,-4.0038,-4.0627,-4.1004,-4.2133,-4.2835,-4.3005,-4.338,-4.3471,-4.3276,-4.3276,-4.3276,-4.3276,-4.3276,-4.3276,-4.3276,-4.3276,-4.3276,-4.3276,-4.3276,-4.3276,-4.3276,-4.3276,-4.3258,-4.313,-4.2188,-4.131,-4.0554,-4.0423,-4.0264,-4.0054,-3.9435,-3.8794,-3.8193,-3.7608,-3.7387,-3.7268,-3.6693,-3.6492,-3.6492,-3.6492,-3.6492,-3.6492,-3.6492,-3.6492,-3.6492,-3.6492,-3.6492,-3.6492,-3.6492,-3.6492,-3.6492,-3.6492,-3.6492,-3.6492,-3.6492,-3.6492,-3.6492,-3.6492,-3.6492,0.0,-3.6492,-3.6492,-3.6554,-3.6693,-3.6892,-3.7315,-3.8014,-3.8772,-3.9428,-3.9952,-4.0524,-4.0847,-4.0871,-4.0871,-4.0871,-4.0912,-4.0912,-4.0912,-4.0912,0.0,0.0,0.0,0.0,0.0,0.0,0.0,0.0,0.0,0.0,0.0,0.0,0.0,0.0,0.0,0.0,0.0,0.0,0.0,0.0,0.0,0.0,-4.0772,-4.0538,-3.9961,-3.9556,-3.9609,-3.9677,-3.9772,-3.9901,-4.0225,-4.0563,-4.0874,-4.1358,-4.1644,-4.1718,-4.3168,-4.3795,-4.3297,-4.4526,-4.5042,-4.4803,-4.4803,-4.4803,-4.4803,-4.4803,-4.4803,-4.4803,-4.4803,-4.4803,-4.4803,-4.4803,-4.4803,-4.4803,-4.4803,-4.4475,-4.3906,-4.3021,-4.2423,-4.2065,-4.1937,-4.1469,-4.0721,-3.9601,-3.8794,-3.8193,-3.7608,-3.7088,-3.6723,-3.6554,-3.6492,-3.6492,-3.6492,-3.6492,-3.6492,-3.6492,-3.6492,-3.6492,-3.6492,-3.6492,-3.6492,-3.6492,-3.6492,-3.6492,-3.6492,-3.6492,-3.6492,-3.6492,-3.6492,-3.6492,-3.6492,-3.6492,0.0,-3.6492,-3.6569,-3.6662,-3.6693,-3.7373,-3.7682,-3.7476,-3.8535,-3.9242,-3.9401,-3.9601,-3.9842,-4.022,-4.0245,-4.0458,-4.0894,-4.0912,-4.0912,0.0,0.0,0.0,0.0,0.0,0.0,0.0,0.0,0.0,0.0,0.0,0.0,0.0,0.0,0.0,0.0,0.0,0.0,0.0,0.0,0.0,0.0,-4.1117,-4.0931,-4.0683,-4.0137,-3.9773,-3.9773,-3.9978,-4.0164,-4.0305,-4.0839,-4.1366,-4.1706,-4.225,-4.2699,-4.3028,-4.4087,-4.4595,-4.4411,-4.5321,-4.5667,-4.5397,-4.5397,-4.5397,-4.5397,-4.5397,-4.5397,-4.5397,-4.5397,-4.5397,0.0,-4.5397,-4.5397,-4.5397,-4.5397,-4.5139,0.0,0.0,0.0,0.0,0.0,-4.1725,-4.1057,-3.971,-3.9014,-3.8569,-3.7703,-3.7148,-3.6831,-3.6585,-3.6492,-3.6492,-3.6492,-3.6492,-3.6492,-3.6492,-3.6492,-3.6492,-3.6492,-3.6492,-3.6492,-3.6492,-3.6492,-3.6492,-3.6492,0.0,0.0,-3.6492,-3.6492,-3.6492,-3.6492,-3.6492,-3.6492,-3.6492,-3.6585,-3.6662,-3.68,-3.7314,-3.7551,-3.7329,-3.8254,0.0,0.0,0.0,-3.9322,-3.9645,-3.9645,0.0,0.0,0.0,-4.0204,-4.0204,0.0,0.0,0.0,-3.8126,-3.7104,0.0,0.0,0.0,0.0,0.0,0.0,0.0,0.0,0.0,0.0,0.0,0.0,0.0,0.0,0.0,0.0,-4.1295,-4.1071,-4.1071,-4.084,-4.0634,-4.0536,-4.0536,-4.0678,-4.1126,-4.1588,-4.1989,-4.2337,-4.3044,-4.3776,-4.4508,0.0,0.0,0.0,0.0,-4.5918,-4.5656,-4.5656,-4.5656,-4.5656,-4.5656,-4.5656,-4.5656,-4.5656,-4.5656,-4.5656,-4.5656,-4.5656,-4.5656,-4.5569,-4.5483,-4.5328,-4.4665,-4.3933,-4.31,-4.2118,-4.1655,-4.1331,-3.9923,0.0,0.0,-3.7947,-3.7534,-3.7414,-3.6894,-3.6722,-3.6722,-3.6722,-3.6722,-3.6707,-3.663,-3.6599,-3.6584,-3.6507,-3.6492,-3.6492,-3.6492,-3.6492,-3.6492,-3.6492,-3.6492,-3.6492,-3.6492,-3.6492,-3.6492,-3.6492,-3.6492,-3.6523,-3.6523,-3.6554,-3.6662,-3.6984,0.0,0.0,-3.745,-3.7956,-3.8278,-3.8306,-3.8794,-3.9098,-3.9098,-3.9098,-3.9109,-3.9206,-3.9206,-3.9206,-3.9206,-3.8903,-3.8695,-3.8564,-3.7507,-3.6317,0.0,0.0,0.0,0.0,0.0,0.0,0.0,0.0,0.0,0.0,0.0,0.0,0.0,0.0,0.0,-4.1604,-4.152,-4.1475,-4.1475,-4.199,-4.2096,-4.1456,-4.1339,-4.1705,-4.2735,-4.3169,-4.3545,-4.3915,-4.469,-4.5025,-4.4822,-4.6048,0.0,-4.6205,-4.7032,-4.7432,-4.7269,-4.7241,-4.7241,-4.7241,0.0,0.0,-4.7241,-4.7241,-4.7241,-4.7241,-4.7241,-4.7241,-4.7207,-4.6603,-4.5983,-4.538,-4.5102,-4.4858,-4.4509,-4.36,-4.3145,-4.2735,-4.0847,-4.0192,-3.9981,-3.87,-3.8302,-3.8269,-3.8155,-3.8123,0.0,-3.8123,-3.8123,-3.8,-3.7446,-3.7307,-3.7169,-3.6615,-3.6492,-3.6492,-3.6492,-3.6492,-3.6492,-3.6492,-3.6492,-3.6492,-3.6492,-3.6492,-3.6492,-3.6492,-3.6492,-3.6554,-3.6662,-3.68,-3.6923,-3.6984,-3.7537,-3.7727,-3.7284,-3.7783,-3.8169,-3.8278,-3.839,-3.8474,-3.8474,-3.8474,-3.8712,-3.9206,-3.9206,-3.9206,-3.9206,-3.9135,-3.8712,-3.7946,-3.6879,-3.6241,0.0,0.0,0.0,0.0,0.0,0.0,0.0,0.0,0.0,0.0,0.0,-4.1604,0.0,0.0,-4.1604,-4.1604,-4.1938,-4.2201,-4.2201,-4.2868,-4.3063,-4.2285,-4.2497,-4.3016,-4.3796,-4.4212,-4.4766,-4.5485,-4.5927,-4.6308,-4.6672,-4.7238,-4.7437,-4.7215,-4.7721,-4.7902,-4.7689,-4.7689,-4.7689,-4.7689,-4.7689,-4.7689,-4.7689,-4.7689,-4.7689,-4.7689,-4.7689,-4.7689,-4.7655,-4.732,-4.6896,-4.65,-4.6067,-4.5564,-4.5008,-4.4152,-4.3749,-4.3349,-4.1583,-4.0934,-4.0734,-3.9424,-3.9012,-3.8948,-3.8591,-3.8508,-3.8508,-3.8508,-3.8508,-3.8431,-3.8092,-3.8,-3.7923,-3.7584,-3.7507,-3.7415,-3.7076,-3.6999,-3.6892,-3.6553,-3.6492,-3.6492,-3.6492,-3.6492,-3.6492,-3.6492,-3.6554,-3.6631,-3.6693,-3.6862,-3.703,-3.7089,-3.7433,-3.7565,-3.7359,-3.7626,-3.7844,-3.7886,-3.7915,-3.7915,-3.7915,-3.7915,-3.803,-3.8343,-3.8343,-3.8343,-3.8343,-3.8173,-3.7857,-3.7385,-3.5979,-3.5359,0.0,0.0,0.0,0.0,0.0,0.0,0.0,0.0,-4.1604,-4.1604,-4.1604,-4.1604,-4.1604,-4.1604,-4.1657,-4.1815,-4.2394,-4.2851,-4.2991,-4.3658,-4.3904,-4.3325,-4.3693,-4.4268,-4.4927,-4.5232,-4.5875,-4.696,-4.7064,-4.7474,-4.846,-4.832,-4.8246,-4.8327,-4.8439,-4.8407,-4.8165,-4.8165,-4.8165,-4.8165,-4.8165,-4.8165,-4.8165,-4.8165,-4.8165,-4.8165,-4.8165,-4.8051,-4.7896,-4.7896,-4.781,-4.762,-4.7062,-4.6343,-4.5562,-4.4598,-4.4112,-4.3785,-4.2269,-4.1723,-4.1473,-4.0135,-3.9708,-3.958,-3.9058,-3.8908,-3.8908,-3.8908,-3.8908,-3.8877,-3.8739,-3.8708,-3.8677,-3.8539,-3.8508,-3.8354,-3.7815,-3.7692,-3.7507,-3.6815,-3.6692,-3.6645,-3.6507,-3.6523,-3.6523,-3.6492,-3.66,-3.6723,-3.6754,-3.6923,-3.7105,-3.7224,-3.7224,-3.7254,-3.7435,-3.7435,-3.7435,-3.7435,-3.748,-3.748,-3.7435,-3.7435,-3.7464,-3.751,-3.745,-3.7421,-3.7435,-3.7151,-3.6969,-3.6907,-3.5424,-3.4657,-4.1604,-4.1604,0.0,-4.1604,-4.1604,-4.1604,0.0,0.0,-4.1604,-4.1604,-4.1604,-4.1604,-4.1604,-4.1604,-4.1832,-4.2552,-4.2745,-4.3044,-4.3676,-4.4466,-4.494,-4.4852,-4.4555,-4.5065,-4.6876,-4.6725,-4.7021,-4.8207,-4.8355,-4.8416,-4.8495,-4.9003,-4.9271,-4.9162,-4.9695,-4.9889,-4.9752,-4.9752,-4.9752,-4.9752,-4.9752,-4.9752,-4.9752,-4.9752,-4.9752,-4.9752,-4.9752,-4.9355,-4.8672,-4.8672,-4.8275,-4.7672,-4.7603,-4.75,-4.7231,-4.5647,-4.4906,-4.4491,-4.3131,-4.2532,-4.2171,-4.0821,-4.0396,-4.0362,-4.0309,-4.0274,-4.0274,-4.0274,-4.0274,-4.0136,-3.9521,-3.9367,-3.9262,-3.8646,-3.8508,-3.8492,-3.8415,-3.84,-3.82,-3.7523,-3.7384,-3.72,-3.6599,-3.66,-3.6631,-3.6523,-3.66,-3.6754,-3.6938,-3.7089,-3.7254,-3.745,-3.73,-3.7224,-3.7224,-3.7224,-3.7224,-3.7224,-3.7405,-3.7435,-3.7254,-3.7224,-3.7329,-3.751,-3.7211,-3.7105,-3.7224,-3.709,-3.6908,-3.6708,-3.5949,-3.5178,-4.1604,0.0,0.0,0.0,-4.1604,-4.1604,-4.1604,-4.1604,-4.1604,-4.1604,-4.1604,-4.1745,-4.2219,-4.2306,-4.2552,0.0,-4.3834,-4.4255,-4.4553,-4.5273,-4.5923,-4.6379,-4.6265,-4.6485,-4.7327,-4.7612,-4.8164,-4.9135,-4.9205,-4.9416,-4.9872,-5.017,-5.022,-5.0048,-5.0241,-5.0246,-5.012,-5.0051,-5.0011,-5.0011,-5.0011,-5.0011,-5.0011,-5.0011,-5.0011,-5.0011,-5.0011,-4.9821,-4.951,-4.951,-4.9338,-4.901,-4.8517,-4.8327,-4.8133,-4.6493,-4.6017,-4.5926,-4.408,-4.3593,-4.348,-4.1667,-4.1091,-4.099,-4.0612,-4.0489,-4.0489,-4.0489,-4.0489,-4.0428,-4.0136,-4.0074,-3.9997,-3.9721,-3.9644,-3.9551,-3.9185,-3.9059,-3.8893,-3.8215,-3.7769,-3.7415,-3.7123,-3.6863,-3.6693,-3.6631,-3.6831,-3.7013,-3.7089,-3.7285,-3.7359,-3.7329,-3.7254,-3.7164,-3.7105,-3.7075,-3.7075,-3.7075,-3.7165,-3.7181,-3.7075,-3.7075,-3.7105,-3.7211,-3.706,-3.703,-3.7075,-3.6923,-3.6785,-3.6677,-3.5936,-3.5136,-4.1604,0.0,0.0,-4.1604,-4.1604,-4.1604,-4.1604,-4.1604,-4.1604,-4.1604,-4.178,-4.2113,-4.2693,-4.2973,-4.336,-4.4115,-4.4711,-4.5168,-4.5378,-4.6039,-4.6765,-4.7327,-4.7766,-4.8012,-4.8012,-4.8521,-4.9153,-4.996,-5.0013,-5.0303,-5.0855,-5.0891,-5.0792,-5.0547,-5.0453,-5.0331,-5.0149,-5.0051,-5.0011,-5.0011,-5.0011,-5.0011,-5.0011,-5.0011,-5.0011,-5.0011,-5.0011,-5.0011,-5.0011,-5.0011,-5.0011,-4.9942,-4.9344,-4.912,-4.8948,-4.7585,-4.701,-4.6646,-4.4854,-4.4282,-4.4121,-4.2384,-4.1664,-4.1455,-4.094,-4.0659,-4.0489,-4.0489,-4.0489,-4.0489,-4.0489,-4.0646,-4.0715,-4.0558,-4.0646,-4.0576,-3.9927,-3.9835,-3.9668,-3.899,-3.8531,-3.8099,-3.7681,-3.7375,-3.7064,-3.6862,-3.7074,-3.7254,-3.7224,-3.7375,-3.7435,-3.7224,-3.7164,-3.7105,-3.6999,-3.6938,-3.6908,-3.6908,-3.6969,-3.6969,-3.6908,-3.6908,-3.6938,-3.7015,-3.6908,-3.6877,-3.6908,-3.6723,-3.6631,-3.6616,-3.6045,-3.5323,0.0,0.0,-4.1604,-4.1604,-4.1604,-4.1604,-4.1604,-4.1604,-4.1604,-4.1604,-4.2219,-4.2758,-4.2816,-4.3377,-4.4132,-4.494,-4.508,-4.5361,-4.6074,-4.6871,-4.7362,-4.7397,-4.8714,-4.9635,0.0,-4.9671,-5.0004,-5.0785,-5.0855,-5.0855,-5.0891,-5.0891,-5.0737,-5.0415,-5.0397,-5.0274,-5.0011,-4.9993,-5.0011,-5.0011,-5.0011,-5.0011,-5.0011,-5.0011,-5.0011,-5.0011,-5.0011,-5.0011,-5.0011,-5.0011,-5.0011,-5.0011,-4.9976,-4.9959,-4.9872,-4.911,-4.7673,-4.6018,-4.5317,-4.4444,-4.3523,-4.2813,-4.213,-4.1606,-4.1571,-4.1078,-4.0489,-4.0489,-4.0489,-4.0489,-4.0489,-4.099,-4.1309,-4.0646,-4.099,-4.1309,-4.0615,-4.0631,-4.0566,-3.9885,-3.9893,-3.9589,-3.8216,-3.8137,-3.801,-3.7288,-3.7359,-3.7435,-3.7224,-3.7375,-3.7435,-3.7224,-3.7075,-3.6999,-3.7015,-3.6831,-3.6723,-3.6723,-3.6908,-3.6908,-3.6723,-3.6723,-3.68,-3.7015,-3.6677,-3.6585,-3.6723,-3.6569,-3.6523,-3.6523,-3.6476,-3.5999,-4.1604,0.0,-4.1604,-4.1604,-4.1604,-4.1604,-4.1604,-4.1604,-4.1762,-4.2289,-4.2622,-4.3114,-4.415,-4.4536,-4.4957,-4.5705,-4.5828,-4.6091,-4.6888,-4.7222,-4.7766,-4.8784,-4.939,0.0,0.0,0.0,0.0,-5.0873,-5.0891,-5.0891,-5.0891,-5.0891,-5.0792,-5.0547,-5.0453,-5.0302,-5.0132,-5.0051,-5.0011,-5.0011,-5.0011,-5.0011,-5.0011,-5.0011,-5.0011,-5.0011,-5.0011,-5.0011,-5.0011,-5.0011,-5.0011,-5.0011,-5.0011,-4.9696,-4.9299,-4.9543,-4.8565,-4.6911,-4.5633,-4.517,-4.4903,-4.3178,-4.2463,-4.2263,-4.2263,-4.1786,-4.1232,-4.1232,-4.0893,-4.0489,-4.0489,-4.0681,-4.0768,-4.0558,-4.0681,-4.0768,-4.0558,-4.0662,-4.0721,-4.0504,-4.0284,-3.9947,-3.9464,-3.8795,-3.8103,-3.7485,-3.7464,-3.748,-3.7405,-3.7464,-3.7391,-3.7105,-3.703,-3.6908,-3.6693,-3.6616,-3.6585,-3.6585,-3.6616,-3.6647,-3.6585,-3.6585,-3.6616,-3.6662,-3.6554,-3.6523,-3.6585,-3.6523,-3.6492,-3.6492,-3.6352,-3.5859,-4.1604,-4.1604,-4.1604,-4.1604,-4.1604,-4.1604,-4.1604,-4.1832,-4.2184,-4.2693,-4.3254,-4.3921,-4.4922,-4.5326,-4.5635,-4.6126,-4.6196,-4.6477,-4.7292,-4.7625,-4.8257,-4.9565,-4.9943,-5.0311,0.0,0.0,0.0,-5.0891,-5.0891,-5.0891,-5.0891,-5.0891,-5.0914,-5.0921,-5.0826,-5.0823,-5.0899,-5.0845,-5.0804,-5.0804,-5.0804,-5.0804,-5.0787,-5.0528,-5.039,-5.039,-5.0114,-5.0011,-4.9982,-4.9725,-4.9619,-4.959,-4.9333,-4.8964,-4.8604,-4.9057,-4.8606,-4.7556,-4.6448,-4.6083,-4.5798,-4.3987,-4.3266,-4.3044,-4.2992,-4.2494,-4.1971,-4.1971,-4.1447,-4.0874,-4.0874,-4.0882,-4.0802,-4.0558,-4.0681,-4.0802,-4.0662,-4.078,-4.0901,-4.0969,-4.0778,-4.0567,-4.0332,-3.922,-3.8243,-3.7923,-3.7668,-3.751,-3.751,-3.751,-3.7361,-3.7045,-3.7015,-3.6877,-3.6523,-3.6492,-3.6492,-3.6492,-3.6492,-3.6492,-3.6492,-3.6492,-3.6492,-3.6492,-3.6492,-3.6492,-3.6492,-3.6492,-3.6492,-3.6492,-3.6274,-3.5888,-4.1604,-4.1604,-4.1604,-4.1604,-4.1604,-4.1622,-4.1657,-4.2254,-4.2833,-4.2903,-4.4079,-4.5115,0.0,0.0,-4.6196,-4.6196,-4.6196,-4.6495,-4.7345,-4.8064,-4.8819,0.0,0.0,0.0,0.0,0.0,0.0,-5.0891,0.0,-5.0908,-5.0943,-5.0943,-5.114,-5.1563,-5.1552,-5.1772,-5.2218,-5.2218,-5.2188,-5.2188,-5.2188,-5.2188,-5.217,-5.1494,-5.1149,-5.108,-5.0373,-5.0045,-4.9935,-4.9239,-4.8961,-4.8883,-4.8192,-4.7917,-4.7885,-4.7885,-4.7885,-4.7819,-4.7638,-4.6968,-4.606,-4.5179,-4.4456,-4.3907,-4.3707,-4.3171,-4.2663,-4.2663,-4.2171,-4.1632,-4.1617,-4.1566,-4.1357,-4.0662,-4.099,-4.1343,-4.0919,-4.095,-4.1169,-4.129,-4.1456,-4.1383,-4.0719,-3.9503,-3.8602,-3.8523,-3.7954,-3.7541,-3.751,-3.748,-3.7361,-3.703,-3.6984,-3.6847,-3.6523,-3.6492,-3.6492,-3.6492,-3.6492,-3.6492,-3.6492,-3.6492,-3.6492,-3.6492,-3.6492,-3.6492,-3.6492,-3.6492,-3.6492,-3.6492,-3.6289,-3.6116,-4.1604,-4.1604,-4.1604,-4.1604,-4.1604,-4.1762,-4.2359,-4.2658,-4.3131,-4.429,-4.4834,-4.5273,0.0,0.0,0.0,-4.6196,-4.6196,0.0,-4.8099,-4.8468,0.0,-5.0417,0.0,-5.0891,-5.0891,-5.0891,0.0,0.0,-5.0891,-5.1136,-5.1698,-5.1733,-5.1983,-5.2537,-5.2445,-5.2386,-5.2416,-5.2278,-5.2188,-5.2188,-5.2188,-5.2188,-5.2188,-5.2028,-5.1632,-5.1097,-5.0907,-5.0528,-4.9982,-4.9801,-4.9725,-4.9666,-4.8948,-4.8351,-4.7885,-4.7885,-4.7556,-4.7085,-4.7001,-4.6761,-4.6237,-4.5216,-4.4803,-4.4589,-4.4401,-4.3886,-4.3362,-4.3362,-4.2848,-4.2232,-4.1724,-4.1588,-4.1415,-4.0854,-4.0851,-4.0987,-4.1034,-4.1153,-4.1272,-4.129,-4.1456,-4.1383,-4.0719,-4.0309,-3.9708,-3.8665,-3.8365,-3.8065,-3.7573,-3.7359,-3.7225,-3.7015,-3.6862,-3.6708,-3.6523,-3.6492,-3.6492,-3.6492,-3.6492,-3.6492,-3.6492,-3.6492,-3.6492,-3.6492,-3.6492,-3.6492,-3.6492,-3.6492,-3.6492,-3.6492,-3.6195,-3.572,-4.1604,-4.1604,-4.1604,-4.1604,-4.1604,-4.1815,-4.2622,-4.2816,-4.3149,-4.4325,-4.4852,0.0,-4.5635,0.0,0.0,0.0,0.0,0.0,-4.8345,-4.8573,-4.9135,0.0,-5.0891,0.0,-5.0891,-5.0891,-5.1031,0.0,-5.1382,-5.1558,-5.1969,-5.233,-5.279,-5.3416,-5.3276,-5.3254,-5.3389,-5.3266,-5.3187,-5.3187,-5.3187,-5.3187,-5.3218,-5.2873,-5.2511,-5.208,0.0,-5.0873,-5.043,-4.9786,-4.9513,-4.9406,-4.8383,-4.7754,-4.7389,-4.7067,-4.6722,-4.6337,-4.6337,-4.6301,-4.6088,-4.5395,-4.5151,-4.5114,-4.4927,-4.4551,-4.4167,-4.4167,-4.3689,-4.3065,-4.2607,-4.216,-4.1709,-4.1341,-4.1084,-4.0984,-4.1153,-4.1239,-4.1323,-4.1423,-4.1522,-4.1478,-4.1099,-4.0798,-4.023,-3.9123,-3.8651,-3.8179,-3.7454,-3.7254,-3.7104,-3.6892,-3.6754,-3.6662,-3.6523,-3.6492,-3.6492,-3.6492,-3.6492,-3.6492,-3.6492,-3.6492,-3.6492,-3.6492,-3.6492,-3.6492,-3.6492,-3.6492,-3.6492,-3.6492,-3.6163,-3.5591,-4.1604,-4.1604,-4.1604,-4.1604,-4.1604,-4.1815,-4.2622,-4.2816,-4.3026,-4.3746,0.0,-4.5098,-4.5098,-4.5688,-4.6196,-4.6196,0.0,-4.6705,-4.8144,-4.8442,-4.9082,-5.0557,-5.082,-5.0891,-5.0891,-5.0891,-5.1207,-5.1934,-5.2119,-5.2207,-5.2312,-5.2962,-5.3596,-5.4208,-5.406,-5.4131,-5.4512,-5.4512,-5.4512,-5.4512,-5.4512,-5.4512,-5.4494,-5.3839,-5.3494,-5.3339,0.0,0.0,-5.0986,-4.9617,-4.9015,-4.8759,-4.7372,-4.6811,-4.6724,-4.6064,-4.5807,-4.5807,-4.5807,-4.5807,-4.5771,-4.5552,-4.5515,-4.5478,-4.5257,-4.5092,-4.4949,-4.4949,-4.4508,-4.4022,-4.375,-4.3019,-4.2283,-4.1957,-4.156,-4.1278,-4.1321,-4.1357,-4.139,-4.1555,-4.1588,-4.1588,-4.1588,-4.1114,-4.0482,-3.9756,-3.8952,-3.8182,-3.7429,-3.7211,-3.7013,-3.6723,-3.6693,-3.6631,-3.6523,-3.6492,-3.6492,-3.6492,-3.6492,-3.6492,-3.6492,-3.6492,-3.6492,-3.6492,-3.6492,-3.6492,-3.6492,-3.6492,-3.6492,-3.646,-3.6022,-3.5447,-4.1604,-4.1604,-4.1604,-4.1604,-4.1604,-4.1815,-4.2622,-4.2816,0.0,0.0,-4.4536,-4.5098,-4.5098,-4.5688,-4.6196,-4.6196,0.0,0.0,0.0,0.0,-4.8907,0.0,0.0,0.0,0.0,0.0,0.0,0.0,0.0,0.0,-5.3875,-5.4033,-5.4326,-5.4844,-5.4813,-5.4699,-5.4512,-5.4512,-5.4512,-5.4512,-5.4512,-5.4512,-5.4512,-5.4374,-5.3977,-5.3391,0.0,0.0,-5.1038,-5.0226,-4.9489,-4.8759,-4.7372,-4.6811,-4.6724,-4.6064,-4.5807,-4.5807,-4.5807,-4.5807,-4.5771,-4.5552,-4.5515,-4.5478,-4.5257,-4.5182,-4.5129,-4.5129,-4.5052,-4.4834,-4.4273,-4.3982,-4.3586,-4.2535,-4.2244,-4.2061,-4.1649,-4.1555,-4.1555,-4.1588,-4.1588,-4.1588,-4.1588,-4.1494,-4.1193,-4.0514,-3.9756,-3.8968,-3.7982,-3.7219,-3.6769,-3.6723,-3.66,-3.6523,-3.6492,-3.6492,-3.6492,-3.6492,-3.6492,-3.6492,-3.6492,-3.6492,-3.6492,-3.6492,-3.6492,-3.6492,-3.6492,-3.6492,-3.6414,-3.6242,-3.5447,-3.461,-4.1582,-4.1604,-4.1604,-4.1604,-4.1604,-4.1815,-4.2622,0.0,0.0,0.0,-4.4202,-4.4606,-4.5027,0.0,0.0,0.0,0.0,0.0,0.0,0.0,0.0,0.0,0.0,0.0,0.0,0.0,0.0,0.0,0.0,0.0,-5.4261,-5.47,-5.4956,-5.5005,-5.4992,-5.4838,-5.4512,-5.4512,-5.4512,-5.4512,-5.4512,-5.4512,-5.4512,-5.4512,-5.4322,-5.396,-5.358,0.0,-5.1589,-5.0532,-4.9625,-4.8759,-4.7372,-4.6811,-4.6724,-4.6064,-4.5807,-4.5807,-4.5807,-4.5807,-4.5771,-4.5698,-4.5662,-4.5625,-4.5552,-4.5442,-4.5368,-4.5368,-4.5368,-4.5253,-4.4814,-4.4585,-4.4291,-4.3615,-4.2994,-4.2388,-4.1746,-4.1588,-4.1588,-4.1588,-4.1588,-4.1588,-4.1588,-4.1588,-4.1367,-4.0704,-4.0213,-3.9487,-3.8294,-3.7655,-3.7095,-3.6647,-3.6554,-3.6492,-3.6492,-3.6492,-3.6492,-3.6492,-3.6492,-3.6492,-3.6492,-3.6492,-3.6492,-3.6492,-3.6492,-3.6492,-3.6492,-3.6116,-3.5832,-3.5625,-3.4728,-3.3802,-4.156,-4.1604,-4.1604,-4.1604,-4.1604,-4.178,-4.2412,-4.2061,0.0,0.0,-4.3781,-4.415,-4.4957,0.0,-4.6196,0.0,0.0,0.0,0.0,0.0,0.0,0.0,0.0,0.0,0.0,0.0,0.0,0.0,0.0,0.0,-5.4542,-5.5174,-5.5359,-5.5022,-5.4992,-5.4838,-5.4512,-5.4512,-5.4512,-5.4512,-5.4512,-5.4512,-5.4512,-5.4512,-5.4512,-5.4477,-5.3891,0.0,0.0,-5.0602,-4.9459,-4.8334,-4.7069,-4.6601,-4.6531,-4.6156,-4.5936,-4.5844,-4.6136,-4.6028,-4.5807,-4.5972,-4.59,-4.5807,-4.5807,-4.5698,-4.5552,-4.5552,-4.5552,-4.5515,-4.5368,-4.5128,-4.4839,-4.4362,-4.3476,-4.2489,-4.1746,-4.1588,-4.1588,-4.1588,-4.1588,-4.1588,-4.1588,-4.1588,-4.1415,-4.0893,-4.0575,-3.9895,-3.8623,-3.8107,-3.7483,-3.66,-3.6492,-3.6492,-3.6492,-3.6492,-3.6492,-3.6492,-3.6492,-3.6492,-3.6492,-3.6492,-3.6492,-3.6492,-3.6492,-3.6492,-3.6492,-3.5705,-3.5222,-3.5011,-3.3973,-3.3073,-4.156,-4.1604,-4.1604,-4.1604,-4.1604,-4.1622,-4.1692,0.0,0.0,-4.2728,-4.343,-4.415,-4.4957,-4.5688,-4.6196,0.0,0.0,-4.6232,0.0,0.0,0.0,0.0,0.0,0.0,0.0,0.0,0.0,0.0,0.0,0.0,0.0,-5.5472,-5.5359,-5.5022,-5.4992,-5.4838,-5.4512,-5.4512,-5.4512,-5.4512,-5.4512,-5.4512,-5.4512,-5.4512,-5.4512,-5.4512,0.0,0.0,0.0,-5.0426,-4.8858,-4.6914,-4.6191,-4.59,-4.5972,-4.6496,-4.6301,-4.5972,-4.7271,-4.6878,-4.59,-4.6496,-4.6282,-4.5807,-4.5807,-4.5771,-4.5771,-4.5771,-4.5771,-4.5771,-4.5735,-4.5724,-4.5381,-4.4082,-4.3197,-4.2489,-4.1746,-4.1588,-4.1588,-4.1588,-4.1588,-4.1588,-4.1588,-4.1588,-4.1573,-4.1509,-4.0988,-4.0196,-3.917,-3.8419,-3.7592,-3.66,-3.6492,-3.6492,-3.6492,-3.6492,-3.6492,-3.6492,-3.6492,-3.6492,-3.6492,-3.6492,-3.6492,-3.6492,-3.6492,-3.6492,-3.6492,-3.5593,-3.5059,-3.4876,-3.3269,-3.2362,-4.134,-4.1408,-4.1493,-4.1493,-4.1538,-4.1604,-4.1604,0.0,-4.1955,-4.3202,-4.3693,-4.4273,-4.5512,-4.6003,-4.6196,-4.6196,0.0,0.0,0.0,0.0,0.0,0.0,0.0,0.0,0.0,0.0,0.0,0.0,0.0,0.0,0.0,-5.5507,-5.5359,-5.5022,-5.4992,-5.4838,-5.4512,-5.4512,-5.4512,-5.4512,-5.4512,-5.4512,-5.4512,-5.4512,-5.4512,-5.4494,0.0,0.0,0.0,-5.0091,-4.8646,-4.7389,-4.6671,-4.6407,-4.6477,-4.7187,-4.6999,-4.6547,-4.7556,-4.6981,-4.59,-4.6601,-4.6353,-4.5807,-4.5807,-4.5807,-4.5807,-4.5807,-4.5807,-4.5807,-4.5807,-4.5807,-4.5555,-4.4559,-4.3801,-4.3121,-4.241,-4.1904,-4.1588,-4.1588,-4.1588,-4.1588,-4.1588,-4.1588,-4.1588,-4.1588,-4.1269,-4.0712,-3.994,-3.9043,-3.8151,-3.7311,-3.6785,-3.6492,-3.6492,-3.6492,-3.6492,-3.6492,-3.6492,-3.6492,-3.6492,-3.6492,-3.6492,-3.6492,-3.6492,-3.6492,-3.6492,-3.5222,-3.448,-3.4129,-3.2605,-3.174,-4.1163,-4.1295,-4.1403,-4.1403,-4.1493,-4.1604,0.0,0.0,-4.2043,-4.357,-4.3904,-4.4378,-4.5916,-4.6196,-4.6196,-4.6196,0.0,-4.6196,0.0,0.0,0.0,0.0,0.0,0.0,0.0,0.0,0.0,0.0,0.0,0.0,0.0,-5.5507,-5.5359,-5.5022,-5.4992,-5.4838,-5.4512,-5.4512,-5.4512,-5.4512,-5.4512,-5.4512,-5.4494,-5.4287,-5.4184,-5.4132,0.0,0.0,0.0,-4.9932,-4.8761,-4.7852,-4.7322,-4.7119,-4.7187,-4.7721,-4.7422,-4.6914,-4.7655,-4.6981,-4.59,-4.6601,-4.6353,-4.5807,-4.5807,-4.5807,-4.5807,-4.5807,-4.5807,-4.5807,-4.5807,-4.5807,-4.5618,-4.4891,-4.4211,-4.3532,-4.2837,-4.211,-4.1588,-4.1588,-4.1588,-4.1588,-4.1588,-4.1588,-4.1588,-4.1588,-4.1423,-4.1039,-4.0332,-3.9416,-3.8505,-3.7713,-3.6955,-3.6492,-3.6492,-3.6492,-3.6492,-3.6492,-3.6492,-3.6492,-3.6492,-3.6492,-3.6492,-3.6492,-3.6492,-3.6492,-3.6492,-3.496,-3.4027,-3.3671,-3.2187,-3.1336,-4.1163,-4.1295,-4.1403,-4.1403,-4.1493,-4.1604,0.0,0.0,-4.2043,-4.357,-4.3904,-4.4378,-4.5916,-4.6196,-4.6196,-4.6196,-4.6196,0.0,0.0,0.0,0.0,0.0,0.0,0.0,0.0,0.0,0.0,0.0,0.0,0.0,0.0,-5.5507,-5.5359,-5.5022,-5.4992,-5.4838,-5.4512,-5.4512,-5.4512,-5.4512,-5.4512,-5.4512,-5.4494,-5.3753,-5.3408,0.0,0.0,0.0,0.0,-5.0113,-4.9198,-4.7885,-4.7885,-4.7885,-4.7885,-4.7885,-4.7422,-4.6914,-4.7655,-4.6981,-4.59,-4.6601,-4.6353,-4.5807,-4.5807,-4.5807,-4.5807,-4.5807,-4.5807,-4.5807,-4.5807,-4.5807,-4.5618,-4.4891,-4.4211,-4.3532,-4.2837,-4.211,-4.1588,-4.1588,-4.1588,-4.1588,-4.1588,-4.1588,-4.1588,-4.1588,-4.1423,-4.1021,-4.0214,-3.9334,-3.8473,-3.7616,-3.6892,-3.6492,-3.6492,-3.6492,-3.6492,-3.6492,-3.6492,-3.6492,-3.6492,-3.6492,-3.6492,-3.6492,-3.6492,-3.6492,-3.6492,-3.4813,-3.391,-3.3671,-3.2064,-3.1198,-4.1123,-4.1267,-4.1403,-4.1403,-4.1493,-4.1604,-4.1604,0.0,-4.2043,-4.357,-4.3904,-4.4378,-4.5916,-4.6196,-4.6196,-4.6196,-4.6196,0.0,0.0,0.0,0.0,0.0,0.0,0.0,0.0,0.0,0.0,0.0,0.0,0.0,0.0,0.0,-5.5401,-5.5139,-5.5035,-5.4917,-5.4717,-5.4575,-5.4253,-5.3753,-5.3753,-5.3477,-5.2912,-5.2701,0.0,0.0,0.0,0.0,0.0,-4.9709,-4.901,-4.8541,-4.808,-4.7885,-4.7885,-4.7885,-4.7422,-4.6914,-4.7655,-4.6981,-4.59,-4.6601,-4.6353,-4.5807,-4.5807,-4.5807,-4.5807,-4.5807,-4.5807,-4.5807,-4.5807,-4.5807,-4.576,-4.5523,-4.4539,-4.3624,-4.3437,-4.2442,-4.1588,-4.1588,-4.1588,-4.1588,-4.1588,-4.1588,-4.1588,-4.1588,-4.1423,-4.116,-4.0839,-3.9613,-3.8659,-3.8215,-3.7169,-3.6492,-3.6492,-3.6492,-3.6492,-3.6492,-3.6492,-3.6492,-3.6492,-3.6492,-3.6492,-3.6492,-3.6006,-3.5737,-3.5737,-3.4197,-3.3052,-3.2237,-3.1445,-3.1061,0.0,-4.1238,-4.1403,-4.1403,-4.1493,0.0,0.0,-4.1604,-4.1955,-4.3219,-4.3711,-4.429,-4.5547,-4.6003,-4.6196,-4.6196,-4.6196,0.0,0.0,0.0,0.0,0.0,0.0,0.0,0.0,0.0,0.0,0.0,0.0,0.0,0.0,0.0,-5.4554,-5.4343,-5.4769,-5.4778,-5.4271,-5.416,-5.3701,-5.2959,-5.2959,-5.2684,-5.217,-5.1895,0.0,0.0,0.0,0.0,0.0,-4.9701,-4.9316,-4.9269,-4.8872,-4.8668,-4.8623,-4.808,-4.7622,-4.7221,-4.7135,-4.6528,-4.588,-4.6282,-4.6156,-4.5807,-4.5807,-4.5807,-4.5807,-4.5807,-4.5807,-4.5807,-4.5807,-4.5807,-4.5807,-4.5807,-4.4697,-4.3687,-4.3687,-4.26,-4.1588,-4.1588,-4.1588,-4.1588,-4.1588,-4.1588,-4.1588,-4.1588,-4.1423,-4.1239,-4.1117,-3.9987,-3.8982,-3.8539,-3.7523,-3.6769,-3.6507,-3.6492,-3.6492,-3.6492,-3.6492,-3.6492,-3.6492,-3.6492,-3.6352,-3.6085,-3.5625,-3.5255,-3.4993,-3.3679,-3.2511,-3.1609,-3.1174,-3.0986,0.0,-4.1238,-4.1403,0.0,0.0,0.0,0.0,-4.1604,0.0,-4.264,-4.3342,-4.4062,-4.4869,-4.5617,-4.6126,-4.6126,-4.6161,0.0,0.0,0.0,0.0,0.0,0.0,0.0,0.0,0.0,0.0,0.0,0.0,0.0,0.0,0.0,-5.307,-5.2881,-5.4129,-5.4335,-5.337,-5.3322,-5.2925,-5.2101,-5.2101,-5.2084,-5.1998,-5.1309,0.0,0.0,0.0,0.0,0.0,-5.0011,-5.0011,-5.0011,-4.9935,-4.9935,-4.9772,-4.8416,-4.7885,-4.7721,-4.6333,-4.588,-4.5864,-4.5807,-4.5807,-4.5807,-4.5807,-4.5807,-4.5807,-4.5807,-4.5807,-4.5807,-4.5807,-4.5807,-4.5807,-4.5807,-4.4697,-4.3687,-4.3687,-4.26,-4.1588,-4.1588,-4.1588,-4.1588,-4.1588,-4.1588,-4.1588,-4.1588,-4.1423,-4.1239,-4.1102,-4.0326,-3.9462,-3.8585,-3.7908,-3.723,-3.6553,-3.6492,-3.6492,-3.6492,-3.6492,-3.6492,-3.6492,-3.6492,-3.6148,-3.54,-3.5302,-3.4894,-3.4143,-3.3136,-3.225,-3.1609,-3.1174,-3.0986,-4.1093,0.0,-4.1403,-4.1403,-4.1493,-4.1604,0.0,-4.1604,-4.1832,-4.264,-4.2938,-4.3289,-4.4044,-4.4834,-4.5361,-4.5361,0.0,0.0,0.0,0.0,0.0,0.0,0.0,0.0,0.0,0.0,0.0,0.0,0.0,0.0,0.0,0.0,-5.2869,-5.2594,-5.2912,-5.2973,-5.2693,-5.2572,-5.2084,-5.1373,-5.1373,-5.108,-5.0528,-5.0338,0.0,0.0,0.0,0.0,-5.0011,-5.0011,-5.0011,-4.9935,-4.9376,-4.9161,-4.907,-4.8208,-4.7885,-4.7787,-4.6862,-4.6566,-4.6461,-4.5972,-4.5807,-4.5807,-4.5807,-4.5807,-4.5807,-4.5807,-4.5807,-4.5807,-4.5807,-4.5807,-4.5807,-4.5807,-4.4717,-4.369,-4.3687,-4.26,-4.1588,-4.1588,-4.1588,-4.1588,-4.1588,-4.1588,-4.1555,-4.139,-4.1323,-4.1189,-4.0916,-4.0244,-3.9462,-3.8585,-3.7908,-3.723,-3.6553,-3.6492,-3.6492,-3.6492,-3.6492,-3.6492,-3.6492,-3.6492,-3.6148,-3.54,-3.4279,-3.3367,-3.2682,-3.2119,-3.178,-3.1609,-3.1174,-3.0986,-4.1023,-4.1169,-4.1318,-4.1363,-4.1448,-4.1515,-4.1582,-4.1604,-4.1727,-4.2166,-4.2552,-4.2938,-4.3325,-4.4027,0.0,0.0,0.0,0.0,0.0,0.0,0.0,0.0,0.0,0.0,0.0,0.0,0.0,0.0,0.0,0.0,0.0,0.0,-5.1679,-5.1465,-5.1436,-5.158,-5.1837,-5.1748,-5.1338,-5.0614,-5.0614,-5.039,-5.0011,-5.0011,0.0,0.0,0.0,0.0,-5.0011,-5.0011,-5.0011,-4.9935,-4.9192,-4.8883,-4.879,-4.777,-4.7389,-4.7288,-4.6601,-4.6337,-4.6282,-4.59,-4.5807,-4.5807,-4.5807,-4.5807,-4.5807,-4.5807,-4.5807,-4.5807,-4.5807,-4.5807,-4.5807,-4.5807,-4.4717,-4.3706,-4.3687,-4.26,-4.1588,-4.1588,-4.1588,-4.1588,-4.1588,-4.1588,-4.1555,-4.1456,-4.1357,-4.1189,-4.0984,-4.0557,-3.9802,-3.8616,-3.8185,-3.7569,-3.6569,-3.6492,-3.6492,-3.6492,-3.6492,-3.6492,-3.6492,-3.6179,-3.5497,-3.4413,-3.3297,-3.2561,-3.2218,-3.178,-3.1609,-3.1609,-3.1174,-3.0986,-4.0912,-4.1018,-4.1203,-4.1312,-4.1358,-4.1386,-4.1538,-4.156,-4.1582,0.0,0.0,0.0,0.0,-4.3302,0.0,0.0,0.0,0.0,0.0,0.0,0.0,0.0,0.0,0.0,0.0,0.0,0.0,0.0,0.0,0.0,0.0,0.0,0.0,-5.016,-5.016,-5.0414,-5.0942,-5.0942,-5.0631,-5.0011,-5.0011,-5.0011,-5.0011,-5.0011,-5.0011,0.0,0.0,0.0,-5.0011,-5.0011,-5.0011,-4.9935,-4.9299,-4.907,-4.8883,-4.7474,-4.7021,-4.7017,-4.6211,-4.59,-4.5807,-4.5807,-4.5807,-4.5807,-4.5807,-4.5807,-4.5807,-4.5807,-4.5807,-4.5807,-4.5807,-4.5807,-4.5807,-4.5807,-4.4733,-4.3687,-4.3687,-4.26,-4.1588,-4.1588,-4.1588,-4.1588,-4.1588,-4.1588,-4.1588,-4.1522,-4.1372,-4.1205,-4.1034,-4.0848,-4.0186,-3.8646,-3.8508,-3.7969,-3.6599,-3.6492,-3.6492,-3.6492,-3.6492,-3.646,-3.6352,-3.564,-3.4581,-3.3213,-3.2538,-3.2218,-3.2218,-3.178,-3.1609,-3.1609,-3.1174,-3.0986,-4.0912,-4.0918,-4.0965,-4.1117,-4.1198,-4.1272,-4.1403,-4.1426,-4.1471,0.0,0.0,0.0,0.0,-4.287,0.0,0.0,0.0,0.0,0.0,0.0,0.0,0.0,0.0,0.0,0.0,0.0,0.0,0.0,0.0,0.0,0.0,0.0,0.0,-5.0022,-5.0022,-5.0091,-5.0183,-5.0183,-5.0114,-5.0011,-5.0011,-5.0011,-5.0011,-5.0011,-5.0011,0.0,0.0,-5.0011,-5.0011,-5.0011,-5.0011,-4.9982,-4.9877,-4.983,-4.9656,-4.8254,-4.8082,-4.8398,-4.7119,-4.6282,-4.5807,-4.5807,-4.5807,-4.5807,-4.5807,-4.5807,-4.5807,-4.5807,-4.5807,-4.5807,-4.5807,-4.5807,-4.5807,-4.5807,-4.4717,-4.369,-4.3687,-4.26,-4.1588,-4.1588,-4.1588,-4.1588,-4.1588,-4.1588,-4.1489,-4.1236,-4.1135,-4.1,-4.0643,-4.0574,-4.0001,-3.8662,-3.8508,-3.7969,-3.6599,-3.6492,-3.6492,-3.6492,-3.6492,-3.6226,-3.5593,-3.4846,-3.4075,-3.3213,-3.2538,-3.2218,-3.2218,-3.178,-3.1609,-3.1609,-3.1174,-3.0986,-4.0912,-4.0912,-4.0912,-4.0976,-4.1076,-4.1175,-4.1272,-4.1295,-4.134,0.0,0.0,0.0,0.0,0.0,0.0,0.0,0.0,0.0,0.0,0.0,0.0,0.0,0.0,0.0,0.0,0.0,0.0,0.0,0.0,0.0,0.0,0.0,0.0,0.0,-5.0011,-5.0011,-5.0011,-5.0011,-5.0011,-5.0011,-5.0011,-5.0011,-5.0011,-5.0011,-5.0011,-4.9993,0.0,-4.9344,-4.9292,-4.8528,-4.8672,-4.924,-4.8141,-4.819,-4.8697,-4.7292,-4.6959,-4.7119,-4.6477,-4.6064,-4.5807,-4.5807,-4.5807,-4.5807,-4.5807,-4.5807,-4.5807,-4.5807,-4.5807,-4.5807,-4.5807,-4.5807,-4.5713,-4.5317,-4.4433,-4.3595,-4.3248,-4.2331,-4.1588,-4.1588,-4.1588,-4.1588,-4.1588,-4.1588,-4.1555,-4.1372,-4.1236,-4.1034,-4.0864,-4.0627,-3.9982,-3.8646,-3.8508,-3.7969,-3.6599,-3.6492,-3.6492,-3.6492,-3.6492,-3.5975,-3.4846,-3.448,-3.3768,-3.2668,-3.2336,-3.2146,-3.2036,-3.1743,-3.1522,-3.1434,-3.1136,-3.0986,-4.0912,-4.0912,-4.0912,-4.0912,-4.0982,-4.1076,-4.1157,-4.118,-4.1203,-4.1318,0.0,0.0,0.0,0.0,0.0,0.0,0.0,0.0,0.0,0.0,0.0,0.0,0.0,0.0,0.0,0.0,0.0,0.0,0.0,0.0,0.0,0.0,0.0,0.0,-5.0011,-5.0011,-5.0011,-5.0011,-5.0011,-5.0011,-5.0011,-5.0011,-5.0011,-5.0011,-5.0011,-4.9976,-4.9355,-4.9068,-4.8988,-4.7921,-4.8128,-4.8908,-4.72,-4.6898,-4.7292,-4.6359,-4.5825,-4.5586,-4.576,-4.5807,-4.5807,-4.5807,-4.5807,-4.5807,-4.5807,-4.5807,-4.5807,-4.5807,-4.5697,-4.5586,-4.5776,-4.5681,-4.5412,-4.4843,-4.4085,-4.3342,-4.2805,-4.211,-4.1588,-4.1588,-4.1588,-4.1588,-4.1588,-4.1588,-4.1555,-4.1505,-4.1254,-4.1083,-4.0966,-4.0677,-3.9982,-3.8646,-3.8508,-3.7969,-3.6599,-3.6492,-3.6492,-3.6492,-3.6352,-3.5561,-3.4095,-3.4027,-3.3471,-3.2205,-3.2218,-3.2109,-3.1963,-3.172,-3.1522,-3.1347,-3.1136,-3.0986,-4.0912,-4.0912,-4.0912,-4.0912,-4.0912,-4.0959,-4.107,-4.1117,-4.1123,-4.1186,0.0,0.0,0.0,0.0,0.0,0.0,0.0,0.0,0.0,0.0,0.0,0.0,0.0,0.0,0.0,0.0,0.0,0.0,0.0,0.0,0.0,0.0,0.0,0.0,0.0,-5.0011,-5.0011,-5.0011,-5.0011,-5.0011,-5.0011,-5.0011,-5.0011,-5.0011,-5.0011,-5.0011,-4.9942,-4.9924,-4.9924,-4.9797,-4.9815,-4.982,-4.8985,-4.7549,-4.6006,-4.655,-4.5904,-4.4891,-4.557,-4.5807,-4.5807,-4.5807,-4.5807,-4.5807,-4.5807,-4.5807,-4.5807,-4.5807,-4.5317,-4.4954,-4.5634,-4.5302,-4.478,-4.4717,-4.3706,-4.2758,-4.2695,-4.211,-4.1588,-4.1588,-4.1588,-4.1588,-4.1588,-4.1588,-4.1505,-4.1169,-4.1117,-4.0966,-4.0593,-4.0524,-3.9982,-3.8646,-3.8508,-3.7969,-3.6599,-3.6492,-3.6492,-3.6492,-3.5879,-3.4828,-3.3353,-3.3283,-3.2925,-3.2205,-3.2218,-3.2182,-3.2182,-3.178,-3.1596,-3.1572,-3.1174,-3.0986,-4.0912,-4.0912,-4.0912,-4.0912,-4.0912,-4.0912,-4.0959,-4.0976,-4.1006,-4.1123,-4.1146,0.0,0.0,0.0,0.0,0.0,0.0,0.0,0.0,0.0,0.0,0.0,0.0,0.0,0.0,0.0,0.0,0.0,0.0,0.0,0.0,0.0,0.0,0.0,0.0,-5.0011,-5.0011,-5.0011,-5.0011,-5.0011,-5.0011,-5.0011,-5.0011,-5.0011,-5.0011,-4.9976,-4.9465,-4.924,-4.9177,-4.8299,-4.846,-4.9217,-4.9005,-4.788,-4.6439,-4.6714,-4.6196,-4.5428,-4.5713,-4.5807,-4.5807,-4.5807,-4.5807,-4.5807,-4.5807,-4.5491,-4.5128,-4.5128,-4.4587,-4.4224,-4.4954,-4.4622,-4.399,-4.3564,-4.3058,-4.2568,-4.2094,-4.1778,-4.1588,-4.1588,-4.1588,-4.1588,-4.1588,-4.1489,-4.1357,-4.1239,-4.1052,-4.0848,-4.0696,-4.0558,-3.9982,-3.8646,-3.7754,-3.7046,-3.6538,-3.6492,-3.6116,-3.519,-3.5302,-3.496,-3.3939,-3.3457,-3.2889,-3.2205,-3.2218,-3.2146,-3.2,-3.1853,-3.172,-3.1609,-3.1323,-3.1198,-4.0912,-4.0912,-4.0912,-4.0912,0.0,0.0,-4.0912,-4.0912,-4.0935,-4.1023,-4.1451,-4.2187,-4.3398,0.0,0.0,0.0,0.0,0.0,0.0,0.0,0.0,0.0,0.0,0.0,0.0,0.0,0.0,0.0,0.0,0.0,0.0,0.0,0.0,0.0,0.0,0.0,-5.0011,-5.0011,-5.0011,-5.0011,-5.0011,-5.0011,-5.0011,-5.0011,-5.0011,-4.9976,-4.9441,-4.9172,-4.9091,-4.815,-4.816,-4.8836,-4.888,-4.8175,-4.7153,-4.7153,-4.6705,-4.612,-4.612,-4.5972,-4.5776,-4.5539,-4.546,-4.5428,-4.5207,-4.4796,-4.4401,-4.4401,-4.3911,-4.35,-4.3959,-4.3737,-4.3279,-4.2805,-4.2505,-4.2205,-4.1699,-4.1588,-4.1588,-4.1588,-4.1555,-4.1522,-4.1522,-4.1372,-4.1205,-4.1156,-4.0953,-4.0765,-4.0696,-4.0593,-3.9982,-3.8646,-3.7292,-3.6492,-3.6492,-3.6492,-3.6085,-3.5059,-3.5026,-3.4614,-3.3679,-3.3136,-3.2668,-3.2218,-3.2218,-3.2146,-3.2,-3.1927,-3.1817,-3.1683,-3.1434,-3.131,-4.0912,-4.0912,-4.0912,-4.0912,0.0,0.0,-4.0912,-4.0912,-4.0912,-4.0912,-4.2241,-4.3412,-4.3412,0.0,0.0,0.0,0.0,0.0,0.0,0.0,0.0,0.0,0.0,0.0,0.0,0.0,0.0,0.0,0.0,0.0,0.0,0.0,0.0,0.0,0.0,0.0,-4.9993,-4.9993,-4.9993,-4.9993,-4.9993,-4.9993,-5.0011,-4.9993,-4.9993,-4.9993,-4.9993,-4.9993,-4.9993,-4.9993,-4.9555,-4.8897,-4.8897,-4.8493,-4.7901,-4.7901,-4.7389,-4.6795,-4.6761,-4.6321,-4.5665,-4.4938,-4.4701,-4.4591,-4.3892,-4.3687,-4.3671,-4.3671,-4.3216,-4.2679,-4.2679,-4.2679,-4.2679,-4.2679,-4.2126,-4.1588,-4.1588,-4.1588,-4.1588,-4.1588,-4.1423,-4.129,-4.129,-4.1187,-4.1034,-4.0833,-4.0799,-4.073,-4.0539,-4.0489,-3.9967,-3.8646,-3.7292,-3.6492,-3.6492,-3.6492,-3.6492,-3.6492,-3.5124,-3.3679,-3.2277,-3.2218,-3.2218,-3.2218,-3.2218,-3.2218,-3.2218,-3.2,-3.189,-3.189,-3.1495,-3.131,-4.0912,-4.0912,0.0,-4.0912,0.0,0.0,0.0,-4.0912,0.0,0.0,-4.2144,-4.3289,-4.3388,0.0,0.0,0.0,0.0,0.0,0.0,0.0,0.0,0.0,0.0,0.0,0.0,0.0,0.0,0.0,0.0,0.0,0.0,0.0,0.0,0.0,0.0,0.0,-4.8361,-4.8361,-4.8361,-4.8361,-4.8361,-4.8959,-4.9993,-4.9396,-4.9154,-4.912,-4.8631,-4.8361,-4.8361,-4.8361,-4.826,-4.8055,-4.8055,-4.7627,-4.6948,-4.6502,-4.5913,-4.5254,-4.4777,-4.4497,-4.4271,-4.405,-4.3987,-4.394,-4.375,-4.339,-4.2995,-4.2995,-4.2473,-4.192,-4.192,-4.192,-4.192,-4.192,-4.1746,-4.1588,-4.1588,-4.1588,-4.1588,-4.1588,-4.1423,-4.129,-4.129,-4.107,-4.0882,-4.0799,-4.0696,-4.0558,-4.0489,-3.9659,-3.8954,-3.8554,-3.7292,-3.6492,-3.6492,-3.6492,-3.6289,-3.5769,-3.5335,-3.4647,-3.3713,-3.2717,-3.2218,-3.2218,-3.2218,-3.2218,-3.2218,-3.2146,-3.2109,-3.2109,-3.1706,-3.1522,-4.0912,-4.0912,0.0,-4.0912,-4.0912,-4.0912,-4.0912,0.0,0.0,0.0,0.0,0.0,0.0,0.0,0.0,0.0,0.0,0.0,0.0,0.0,0.0,0.0,0.0,0.0,0.0,0.0,0.0,0.0,0.0,0.0,0.0,0.0,0.0,0.0,0.0,0.0,-4.7689,-4.7689,-4.7689,-4.7689,-4.7689,-4.82,-4.9079,-4.8568,-4.8344,-4.8327,-4.7879,-4.7689,-4.7689,-4.7689,-4.7544,-4.7301,-4.7301,-4.6876,-4.6234,-4.5884,-4.5305,-4.4641,-4.4239,-4.3931,-4.364,-4.3406,-4.3311,-4.3263,-4.2963,-4.2584,-4.2252,-4.2252,-4.1936,-4.1588,-4.1588,-4.1588,-4.1588,-4.1588,-4.1588,-4.1588,-4.1588,-4.1588,-4.1588,-4.1489,-4.1339,-4.1205,-4.1122,-4.0867,-4.0696,-4.0696,-4.0558,-4.0489,-4.0489,-3.9339,-3.8508,-3.8508,-3.7292,-3.6492,-3.6492,-3.6492,-3.632,-3.5879,-3.5561,-3.519,-3.4747,-3.3644,-3.3044,-3.3044,-3.3044,-3.2868,-3.2596,-3.2596,-3.2408,-3.2073,-3.1743,-3.1572,-4.0912,-4.0912,0.0,-4.0912,-4.0912,0.0,-4.0912,-4.0912,-4.0912,-4.0912,0.0,0.0,0.0,0.0,0.0,0.0,0.0,0.0,0.0,0.0,0.0,0.0,0.0,0.0,0.0,0.0,0.0,0.0,0.0,0.0,0.0,0.0,0.0,0.0,0.0,0.0,-4.7482,-4.7482,-4.7482,0.0,-4.7482,-4.7482,-4.7482,-4.7551,-4.7551,-4.7482,-4.7482,-4.7482,-4.7482,-4.7482,-4.7124,-4.6598,-4.6598,-4.6199,-4.5654,-4.5592,-4.5124,-4.4496,-4.4463,-4.3997,-4.3421,-4.2789,-4.2584,-4.2457,-4.1794,-4.1588,-4.1588,-4.1588,-4.1588,-4.1588,-4.1588,-4.1588,-4.1588,-4.1588,-4.1588,-4.1588,-4.1588,-4.1588,-4.1522,-4.1357,-4.1187,-4.1,-4.0833,-4.0627,-4.0489,-4.0489,-4.0489,-4.0489,-4.0489,-3.9339,-3.8508,-3.8508,-3.7292,-3.6492,-3.6492,-3.6492,-3.6492,-3.6492,-3.5879,-3.5497,-3.5497,-3.4714,-3.4312,-3.4312,-3.4312,-3.3973,-3.3283,-3.3213,-3.2761,-3.1986,-3.1706,-3.1471,-4.0912,-4.0912,0.0,0.0,-4.0912,-4.0912,-4.0912,-4.0912,-4.0912,-4.0912,0.0,0.0,0.0,0.0,0.0,0.0,0.0,0.0,0.0,0.0,0.0,0.0,0.0,0.0,0.0,0.0,0.0,0.0,0.0,0.0,0.0,0.0,0.0,0.0,0.0,-4.588,-4.588,-4.588,-4.588,0.0,-4.588,-4.588,-4.5914,-4.6535,-4.6483,-4.588,-4.588,-4.588,-4.588,-4.588,-4.5799,-4.5674,-4.5674,-4.5329,-4.4702,-4.4201,-4.3598,-4.2975,-4.2428,-4.2164,-4.2031,-4.1873,-4.1825,-4.1794,-4.1636,-4.1588,-4.1588,-4.1588,-4.1588,-4.1588,-4.1588,-4.1588,-4.1588,-4.1588,-4.1588,-4.1588,-4.1588,-4.1489,-4.1357,-4.1323,-4.1055,-4.0833,-4.0799,-4.0627,-4.0489,-4.0489,-4.0489,-4.0489,-4.0489,-3.9339,-3.8508,-3.8508,-3.7292,-3.6492,-3.6492,-3.6492,-3.6492,-3.6492,-3.6352,-3.6258,-3.6258,-3.4993,-3.4312,-3.4312,-3.4312,-3.4211,-3.4075,-3.3318,-3.2875,-3.2676,-3.1776,-3.1347,-4.0912,0.0,0.0,-4.0912,0.0,-4.0912,-4.0912,-4.0912,0.0,0.0,0.0,0.0,0.0,0.0,0.0,0.0,0.0,0.0,0.0,0.0,0.0,0.0,0.0,0.0,0.0,0.0,0.0,0.0,0.0,0.0,0.0,0.0,0.0,0.0,-4.5397,-4.5397,-4.5397,-4.5397,-4.5397,-4.5397,-4.5397,-4.5397,-4.5414,-4.5828,-4.5793,-4.5397,-4.5397,-4.5397,-4.5397,-4.5397,-4.522,-4.4934,-4.4625,-4.4128,-4.3515,-4.2833,-4.238,-4.2077,-4.172,-4.1588,-4.1588,-4.1588,-4.1588,-4.1588,-4.1588,-4.1588,-4.1588,-4.1588,-4.1588,-4.1588,-4.1588,-4.1588,-4.1588,-4.1489,-4.1522,-4.1555,-4.1489,-4.139,-4.1256,-4.1088,-4.0919,-4.0765,-4.0662,-4.0558,-4.0489,-4.0489,-4.0489,-4.0382,-4.0043,-3.9139,-3.8385,-3.8061,-3.7107,-3.6492,-3.6492,-3.6492,-3.6492,-3.6492,-3.6492,-3.6492,-3.6492,-3.5769,-3.5367,-3.5367,-3.5367,-3.519,-3.4828,-3.4346,-3.365,-3.2783,-3.2223,-3.1666,-4.0912,0.0,-4.0912,-4.0912,-4.0912,0.0,-4.0912,-4.0912,0.0,0.0,0.0,0.0,0.0,0.0,0.0,0.0,0.0,0.0,0.0,0.0,0.0,0.0,0.0,0.0,0.0,0.0,0.0,0.0,0.0,0.0,0.0,0.0,-4.5274,-4.5397,-4.5397,-4.5397,-4.5397,-4.5397,-4.5397,-4.5397,-4.5397,-4.5397,-4.5397,-4.5397,-4.5397,-4.5397,-4.5397,-4.5397,-4.5397,-4.5397,-4.5042,-4.4429,-4.3881,-4.3229,-4.2522,-4.1997,-4.172,-4.1588,-4.1588,-4.1588,-4.1588,-4.1588,-4.1588,-4.1588,-4.1588,-4.1588,-4.1588,-4.1588,-4.1588,-4.1588,-4.1588,-4.1588,-4.1522,-4.1357,-4.139,-4.1472,-4.129,-4.1223,-4.1122,-4.0851,-4.0765,-4.0696,-4.0524,-4.0489,-4.0489,-4.0489,-4.0489,-4.0259,-3.9582,-3.8923,-3.8246,-3.7569,-3.6892,-3.6492,-3.6492,-3.6492,-3.6492,-3.6492,-3.6492,-3.6492,-3.6492,-3.6492,-3.6492,-3.6492,-3.6492,-3.6179,-3.5593,-3.5432,-3.4547,-3.308,-3.2903,-3.2295,0.0,0.0,-4.0912,0.0,-4.0912,-4.0912,0.0,0.0,0.0,0.0,0.0,0.0,0.0,0.0,0.0,0.0,0.0,0.0,0.0,0.0,0.0,0.0,0.0,0.0,0.0,0.0,0.0,0.0,0.0,0.0,0.0,-4.4906,-4.4852,-4.5371,-4.5397,-4.5397,-4.5397,-4.5397,-4.5397,-4.5397,-4.5397,-4.5397,-4.5397,-4.5397,-4.5397,-4.5397,-4.5397,-4.5397,-4.5397,-4.5397,-4.5042,-4.4502,-4.4401,-4.3634,-4.2585,-4.2491,-4.2093,-4.1588,-4.1588,-4.1588,-4.1588,-4.1588,-4.1588,-4.1588,-4.1588,-4.1588,-4.1588,-4.1588,-4.1588,-4.1588,-4.1588,-4.1489,-4.1323,-4.1323,-4.1239,-4.1169,-4.1135,-4.0984,-4.0867,-4.0799,-4.0662,-4.0524,-4.0489,-4.0489,-4.0489,-4.0489,-4.0489,-4.0259,-3.9582,-3.8923,-3.8246,-3.7569,-3.6892,-3.6492,-3.6492,-3.6492,-3.6492,-3.6492,-3.6492,-3.6492,-3.6492,-3.6492,-3.6492,-3.6492,-3.6492,-3.646,-3.6352,-3.5529,-3.496,-3.4576,-3.3782,-3.3227,-4.0912,-4.0912,-4.0912,0.0,-4.0912,-4.0912,0.0,0.0,0.0,0.0,0.0,0.0,0.0,0.0,0.0,0.0,0.0,0.0,0.0,0.0,0.0,0.0,0.0,0.0,0.0,0.0,0.0,0.0,0.0,0.0,-4.4165,-4.3915,-4.406,-4.4768,-4.4785,-4.4992,-4.5397,-4.5397,-4.5397,-4.5397,-4.5397,-4.5397,-4.5397,-4.5397,-4.5397,-4.5397,-4.5397,-4.5397,-4.5397,-4.5397,-4.5247,-4.4934,-4.4214,-4.3588,-4.3017,-4.2285,-4.1835,-4.1588,-4.1588,-4.1588,-4.1588,-4.1588,-4.1588,-4.1588,-4.1588,-4.1588,-4.1588,-4.1588,-4.1588,-4.1588,-4.1456,-4.1357,-4.1256,-4.1055,-4.0969,-4.0882,-4.078,-4.0765,-4.0765,-4.0662,-4.0558,-4.0489,-4.0489,-4.0489,-4.0489,-4.0489,-4.0166,-3.969,-3.9046,-3.8354,-3.7692,-3.7015,-3.6676,-3.6492,-3.6492,-3.6492,-3.6492,-3.6492,-3.6492,-3.6492,-3.6492,-3.6492,-3.6492,-3.6492,-3.6492,-3.6492,-3.6492,-3.5975,-3.5432,-3.4876,-3.4361,-3.3782,0.0,0.0,-4.0912,-4.0912,-4.0912,0.0,0.0,0.0,0.0,0.0,0.0,0.0,0.0,0.0,0.0,0.0,0.0,0.0,0.0,0.0,0.0,0.0,0.0,0.0,0.0,0.0,0.0,0.0,0.0,0.0,-4.3189,-4.3021,-4.3279,-4.4,-4.4018,-4.4268,-4.4854,-4.4854,-4.4854,-4.4854,-4.5044,-4.513,-4.5121,-4.5311,-4.5397,-4.5397,-4.5397,-4.5397,-4.5397,-4.5397,-4.5318,-4.5042,-4.3922,-4.3393,-4.3122,-4.2013,-4.1588,-4.1588,-4.1588,-4.1588,-4.1588,-4.1588,-4.1588,-4.1588,-4.1588,-4.1588,-4.1588,-4.1588,-4.1588,-4.1555,-4.1357,-4.1256,-4.1171,-4.0867,-4.0765,-4.0696,-4.0524,-4.0627,-4.0696,-4.0524,-4.0489,-4.0489,-4.0489,-4.0489,-4.0428,-4.0259,-3.9813,-3.9216,-3.8354,-3.7815,-3.723,-3.6569,-3.6492,-3.6492,-3.6492,-3.6492,-3.6492,-3.6492,-3.6492,-3.6492,-3.6492,-3.6492,-3.6492,-3.6492,-3.6492,-3.6492,-3.6492,-3.6352,-3.5911,-3.5187,-3.5041,-3.4528,0.0,-4.0912,0.0,0.0,0.0,0.0,0.0,0.0,0.0,0.0,0.0,0.0,0.0,0.0,0.0,0.0,0.0,0.0,0.0,0.0,0.0,0.0,0.0,0.0,0.0,0.0,0.0,0.0,0.0,0.0,-4.3164,-4.2602,-4.2567,-4.3258,-4.3258,-4.3276,-4.331,-4.331,-4.331,-4.331,-4.4018,-4.4363,-4.438,-4.5096,-4.5397,-4.5397,-4.5397,-4.5397,-4.5397,-4.5397,-4.5042,-4.4474,-4.3748,-4.3169,-4.2554,-4.1867,-4.1588,-4.1588,-4.1588,-4.1588,-4.1588,-4.1588,-4.1588,-4.1588,-4.1588,-4.1588,-4.1588,-4.1588,-4.1588,-4.1555,-4.1357,-4.1221,-4.1068,-4.0833,-4.0662,-4.0524,-4.0489,-4.0489,-4.0524,-4.0489,-4.0489,-4.0489,-4.0489,-4.0489,-4.0274,-3.9644,-3.9505,-3.9046,-3.7723,-3.7523,-3.723,-3.6569,-3.6492,-3.6492,-3.6492,-3.6492,-3.6492,-3.6492,-3.6492,-3.6492,-3.6492,-3.6492,-3.6492,-3.6492,-3.6492,-3.6492,-3.6492,-3.6492,-3.6304,-3.5941,-3.5941,-3.5718,0.0,0.0,0.0,0.0,0.0,0.0,0.0,0.0,0.0,0.0,0.0,0.0,0.0,0.0,0.0,0.0,0.0,0.0,0.0,0.0,0.0,0.0,0.0,0.0,0.0,0.0,0.0,0.0,0.0,0.0,-4.1698,-4.1511,-4.1692,-4.243,-4.243,-4.2689,-4.3189,-4.3189,-4.3189,-4.3189,-4.3465,-4.3586,-4.3603,-4.388,-4.3975,-4.4009,-4.4475,-4.4958,-4.5397,-4.5397,-4.5274,-4.5032,-4.4401,-4.4013,-4.3693,-4.2632,-4.2238,-4.2174,-4.1753,-4.1588,-4.1588,-4.1588,-4.1588,-4.1588,-4.1588,-4.1588,-4.1555,-4.1456,-4.1423,-4.1357,-4.1055,-4.0935,-4.0848,-4.0662,-4.0558,-4.0489,-4.0489,-4.0489,-4.0489,-4.0489,-4.0489,-4.0489,-4.0489,-4.0136,-3.9767,-3.9521,-3.8785,-3.8046,-3.7569,-3.7123,-3.6769,-3.6522,-3.6492,-3.6492,-3.6492,-3.6492,-3.6492,-3.6492,-3.6492,-3.6492,-3.6492,-3.6492,-3.6492,-3.6492,-3.6492,-3.6492,-3.6492,-3.6383,-3.6258,-3.6116,-3.5926,-3.5735,-4.0912,0.0,0.0,0.0,0.0,0.0,0.0,0.0,0.0,0.0,0.0,0.0,0.0,0.0,0.0,0.0,0.0,0.0,0.0,0.0,0.0,0.0,0.0,0.0,0.0,0.0,0.0,0.0,0.0,0.0,-4.0912,-4.0912,-4.1119,-4.1619,-4.1636,-4.1895,-4.2413,-4.243,-4.243,-4.243,-4.2672,-4.2792,-4.281,-4.3086,-4.3189,-4.3224,-4.3724,-4.4363,-4.5061,-4.5294,-4.5291,-4.5059,-4.4401,-4.4042,-4.3722,-4.2663,-4.2269,-4.2206,-4.1737,-4.1588,-4.1588,-4.1588,-4.1588,-4.1588,-4.1588,-4.1555,-4.1489,-4.1357,-4.1256,-4.1171,-4.0867,-4.0765,-4.0662,-4.0524,-4.0489,-4.0489,-4.0489,-4.0489,-4.0489,-4.0489,-4.0489,-4.0428,-4.0197,-3.9782,-3.9336,-3.8908,-3.8077,-3.7415,-3.7184,-3.6769,-3.6492,-3.6492,-3.6492,-3.6492,-3.6492,-3.6492,-3.6492,-3.6492,-3.6492,-3.6492,-3.6492,-3.6492,-3.6492,-3.6492,-3.6492,-3.6492,-3.6492,-3.6383,-3.6274,-3.6196,-3.5926,-3.5735,0.0,0.0,0.0,0.0,0.0,0.0,0.0,0.0,0.0,0.0,0.0,0.0,0.0,0.0,0.0,0.0,0.0,0.0,0.0,0.0,0.0,0.0,0.0,0.0,0.0,0.0,0.0,0.0,0.0,-4.0912,-4.0912,-4.0912,-4.0912,-4.0912,-4.0912,-4.0912,-4.0912,-4.0912,-4.0912,-4.0912,-4.1636,-4.1981,-4.1974,-4.2775,-4.312,-4.3138,-4.3155,-4.3569,-4.4294,-4.5044,-4.4991,-4.4406,-4.3773,-4.3166,-4.2553,-4.1884,-4.1654,-4.1621,-4.1621,-4.1588,-4.1588,-4.1588,-4.1588,-4.1588,-4.1588,-4.1456,-4.129,-4.129,-4.1187,-4.1034,-4.0833,-4.0662,-4.0489,-4.0489,-4.0489,-4.0489,-4.0459,-4.0459,-4.0459,-4.0459,-4.0459,-4.0259,-3.9582,-3.9428,-3.9016,-3.7707,-3.7477,-3.723,-3.6569,-3.6492,-3.6492,-3.6492,-3.6492,-3.6492,-3.6492,-3.6492,-3.6492,-3.6492,-3.6492,-3.6492,-3.6492,-3.6492,-3.6492,-3.6492,-3.6492,-3.6492,-3.6492,-3.6492,-3.6383,-3.6211,-3.6068,-3.5829,-4.0912,0.0,0.0,0.0,0.0,0.0,0.0,0.0,0.0,0.0,0.0,0.0,0.0,0.0,0.0,0.0,0.0,0.0,0.0,0.0,0.0,0.0,0.0,0.0,0.0,0.0,0.0,0.0,-4.0912,-4.0912,-4.0912,-4.0912,-4.0912,-4.0912,-4.0912,-4.0912,-4.0912,-4.0912,-4.0912,-4.0912,-4.1119,-4.1205,-4.1222,-4.1429,-4.1533,-4.1567,-4.2102,-4.2465,-4.2706,-4.3475,-4.3709,-4.3589,-4.3945,-4.3684,-4.3118,-4.3015,-4.2709,-4.2238,-4.1785,-4.1588,-4.1588,-4.1588,-4.1588,-4.1555,-4.1423,-4.1357,-4.1256,-4.0987,-4.0901,-4.0848,-4.0627,-4.0524,-4.0489,-4.0489,-4.0489,-4.0366,-3.9874,-3.9767,-3.9767,-3.9767,-3.9767,-3.9551,-3.8908,-3.8385,-3.7938,-3.7554,-3.7092,-3.6707,-3.6507,-3.6492,-3.6492,-3.6492,-3.6492,-3.6492,-3.6492,-3.6492,-3.6492,-3.6492,-3.6492,-3.6492,-3.6492,-3.6492,-3.6492,-3.6492,-3.6492,-3.6492,-3.6492,-3.6492,-3.646,-3.6414,-3.6132,-3.5878,-4.0912,-4.0912,0.0,0.0,0.0,0.0,0.0,-4.0912,0.0,0.0,0.0,0.0,0.0,0.0,0.0,0.0,0.0,0.0,0.0,0.0,0.0,0.0,0.0,0.0,0.0,0.0,0.0,0.0,-4.0912,-4.0912,-4.0912,-4.0912,-4.0912,-4.0912,-4.0912,-4.0912,-4.0912,-4.0912,-4.0912,-4.0912,-4.0912,-4.0912,-4.0912,-4.0912,-4.0912,-4.0929,-4.136,-4.155,-4.1585,-4.205,-4.2454,-4.2826,-4.3253,-4.3003,-4.2417,-4.2248,-4.1983,-4.162,-4.1294,-4.1178,-4.1225,-4.1494,-4.1555,-4.1456,-4.1357,-4.1189,-4.1055,-4.0851,-4.073,-4.0662,-4.0524,-4.0274,-4.0074,-4.0074,-3.9859,-3.9551,-3.9185,-3.9059,-3.9059,-3.9059,-3.9059,-3.8893,-3.82,-3.7769,-3.74,-3.7123,-3.6738,-3.6492,-3.6492,-3.6492,-3.6492,-3.6492,-3.6492,-3.6492,-3.6492,-3.6492,-3.6492,-3.6492,-3.6492,-3.6492,-3.6492,-3.6492,-3.6492,-3.6492,-3.6492,-3.6492,-3.6492,-3.6492,-3.6429,-3.6304,-3.61,-3.5846,-4.0912,-4.0912,-4.0912,0.0,0.0,0.0,-4.0912,-4.0912,-4.0912,0.0,0.0,0.0,0.0,0.0,0.0,0.0,0.0,0.0,0.0,0.0,0.0,0.0,0.0,0.0,0.0,0.0,-4.0912,-4.0912,-4.0912,-4.0912,-4.0912,-4.0912,-4.0912,-4.0912,-4.0912,-4.0912,-4.0912,-4.0912,-4.0912,-4.0912,-4.0912,-4.0912,-4.0912,-4.0912,-4.0912,-4.0912,-4.0912,-4.0912,-4.0894,-4.0823,-4.1304,-4.2042,-4.2074,-4.167,-4.104,-4.0564,-4.0345,-4.0321,-4.0436,-4.0482,-4.0577,-4.1162,-4.122,-4.1054,-4.1021,-4.0787,-4.0566,-4.0532,-4.0411,-4.0274,-4.0274,-3.9828,-3.9367,-3.9367,-3.8921,-3.8492,-3.8415,-3.84,-3.8369,-3.8292,-3.8354,-3.8185,-3.7507,-3.7384,-3.7184,-3.6584,-3.6492,-3.6492,-3.6492,-3.6492,-3.6492,-3.6492,-3.6492,-3.6492,-3.6492,-3.6492,-3.6492,-3.6492,-3.6492,-3.6492,-3.6492,-3.6492,-3.6492,-3.6492,-3.6492,-3.646,-3.646,-3.646,-3.632,-3.6037,-3.5973,-3.5797,0.0,0.0,0.0,0.0,0.0,0.0,-4.0912,-4.0912,-4.0912,0.0,0.0,0.0,0.0,0.0,0.0,0.0,0.0,0.0,0.0,0.0,0.0,0.0,0.0,0.0,0.0,0.0,-4.0912,-4.0912,-4.0912,-4.0912,-4.0912,-4.0912,-4.0912,-4.0912,-4.0912,-4.0912,-4.0912,-4.0912,-4.0912,-4.0912,-4.0912,-4.0912,-4.0912,-4.0912,-4.0912,-4.0912,-4.0912,-4.0912,-4.0847,-4.0385,-4.0556,-4.116,-4.1316,-4.0996,-4.0403,-4.0456,-4.0118,-3.9675,-3.9692,-3.9708,-3.9708,-3.9739,-3.9723,-3.9627,-3.9385,-3.9254,-3.9172,-3.8992,-3.8941,-3.8908,-3.8908,-3.88,-3.8708,-3.8708,-3.8616,-3.8354,-3.7815,-3.7707,-3.7538,-3.6984,-3.7323,-3.7477,-3.6799,-3.6692,-3.6645,-3.6507,-3.6492,-3.6492,-3.6492,-3.6492,-3.6492,-3.6492,-3.6492,-3.6492,-3.6492,-3.6492,-3.6492,-3.6492,-3.6492,-3.6492,-3.6492,-3.6492,-3.6492,-3.6492,-3.6352,-3.6274,-3.6274,-3.6274,-3.6211,-3.6148,-3.5879,-3.572,0.0,0.0,0.0,-4.0912,0.0,0.0,0.0,-4.0912,-4.0912,0.0,0.0,0.0,0.0,0.0,0.0,0.0,0.0,0.0,0.0,0.0,0.0,0.0,0.0,0.0,0.0,0.0,-4.0912,-4.0912,-4.0912,-4.0912,-4.0912,-4.0912,-4.0912,-4.0912,-4.0912,-4.0912,-4.0912,-4.0912,-4.0912,-4.0912,-4.0912,-4.0912,-4.0912,-4.0912,-4.0912,-4.0912,-4.0912,-4.0912,-4.0888,-4.0573,-4.0638,-4.0858,-4.0383,-4.0004,-3.9687,-3.9491,-3.9188,-3.8898,-3.8963,-3.8951,-3.8952,-3.9298,-3.9235,-3.9043,-3.8915,-3.8786,-3.8639,-3.8541,-3.8508,-3.8508,-3.8508,-3.8262,-3.8,-3.8,-3.7754,-3.7415,-3.7076,-3.6999,-3.6892,-3.6553,-3.6769,-3.6892,-3.6553,-3.6492,-3.6492,-3.6492,-3.6492,-3.6492,-3.6492,-3.6492,-3.6492,-3.6492,-3.6492,-3.6492,-3.6492,-3.6492,-3.6492,-3.6492,-3.6492,-3.6492,-3.6492,-3.6492,-3.6492,-3.6492,-3.6383,-3.6352,-3.6352,-3.6179,-3.6053,-3.5943,-3.5784,-3.5671,0.0,0.0,0.0,0.0,0.0,-4.0912,0.0,0.0,0.0,0.0,0.0,0.0,0.0,0.0,0.0,0.0,0.0,0.0,0.0,0.0,0.0,0.0,0.0,0.0,0.0,0.0,-4.0912,-4.0912,-4.0912,-4.0912,-4.0912,-4.0912,-4.0912,-4.0912,-4.0912,-4.0912,-4.0912,-4.0912,-4.0912,-4.0912,-4.0912,-4.0912,-4.0912,-4.0912,-4.0912,-4.0912,-4.0912,-4.0912,-4.0894,-4.0776,-4.0734,-4.0638,-3.9714,-3.9295,-3.9125,-3.8518,-3.8238,-3.8164,-3.8247,-3.818,-3.8182,-3.8779,-3.8685,-3.8381,-3.8494,-3.8334,-3.8123,-3.8123,-3.8123,-3.8123,-3.8123,-3.7707,-3.7307,-3.7307,-3.6892,-3.6492,-3.6492,-3.6492,-3.6492,-3.6492,-3.6492,-3.6492,-3.6492,-3.6492,-3.6492,-3.6492,-3.6492,-3.6492,-3.6492,-3.6492,-3.6492,-3.6492,-3.6492,-3.6492,-3.6492,-3.6492,-3.6492,-3.6492,-3.6492,-3.6492,-3.6492,-3.6492,-3.6492,-3.6492,-3.646,-3.6429,-3.6398,-3.61,-3.5863,-3.5752,-3.5688,-3.5589,0.0,0.0,0.0,0.0,-4.0912,0.0,0.0,0.0,0.0,0.0,0.0,0.0,0.0,0.0,0.0,0.0,0.0,0.0,0.0,0.0,0.0,0.0,0.0,0.0,0.0,0.0,0.0,-4.0912,-4.0912,-4.0912,-4.0912,-4.0912,-4.0912,-4.0912,-4.0912,-4.0912,-4.0912,-4.0912,-4.0912,-4.0912,-4.0912,-4.0912,-4.0912,-4.0912,-4.0912,-4.0912,-4.0912,-4.0912,-4.0847,-4.0336,-4.0103,-4.0078,-3.9952,-3.9636,-3.9125,-3.8518,-3.8014,-3.7553,-3.7408,-3.7334,-3.7289,-3.7063,-3.6894,-3.6754,-3.6785,-3.6754,-3.6722,-3.6722,-3.6722,-3.6722,-3.6722,-3.6661,-3.6599,-3.6599,-3.6553,-3.6492,-3.6492,-3.6492,-3.6492,-3.6492,-3.6492,-3.6492,-3.6492,-3.6492,-3.6492,-3.6492,-3.6492,-3.6492,-3.6492,-3.6492,-3.6492,-3.6492,-3.6492,-3.6492,-3.6492,-3.6492,-3.6492,-3.6492,-3.6492,-3.6492,-3.6492,-3.6492,-3.6492,-3.6492,-3.6305,-3.6179,-3.6068,-3.5831,-3.5831,-3.5973,-3.5651,-3.5504,0.0,0.0,0.0,0.0,0.0,0.0,-4.0888,0.0,-4.0912,0.0,0.0,0.0,0.0,0.0,0.0,0.0,0.0,0.0,0.0,0.0,0.0,0.0,0.0,0.0,0.0,0.0,0.0,0.0,0.0,-4.0912,-4.0912,-4.0912,-4.0912,-4.0912,-4.0912,-4.0912,-4.0912,-4.0912,-4.0912,-4.0912,-4.0912,-4.0912,-4.0912,-4.0912,-4.0912,-4.0912,-4.0912,-4.0912,-4.0871,-4.0638,-4.0524,-4.0524,-4.0524,-3.9969,-3.9179,-3.892,-3.8395,-3.7844,-3.774,-3.7358,-3.6861,-3.6662,-3.66,-3.66,-3.6523,-3.6492,-3.6492,-3.6492,-3.6492,-3.6492,-3.6492,-3.6492,-3.6492,-3.6492,-3.6492,-3.6492,-3.6492,-3.6492,-3.6492,-3.6492,-3.6492,-3.6492,-3.6492,-3.6492,-3.6492,-3.6492,-3.6492,-3.6492,-3.6492,-3.6492,-3.6492,-3.6492,-3.6492,-3.6492,-3.6492,-3.6492,-3.6492,-3.6492,-3.6492,-3.6492,-3.6492,-3.6492,-3.646,-3.6352,-3.6242,-3.6148,-3.6005,-3.5799,-3.5752,-3.5831,-3.5619,-3.5504,-4.0551,0.0,0.0,0.0,0.0,0.0,0.0,0.0,0.0,0.0,0.0,0.0,0.0,0.0,0.0,0.0,0.0,0.0,0.0,0.0,0.0,0.0,0.0,0.0,0.0,0.0,0.0,0.0,-4.0912,0.0,-4.0912,-4.0912,-4.0912,-4.0912,-4.0912,-4.0912,-4.0912,-4.0912,-4.0912,-4.0912,-4.0912,-4.0912,-4.0912,-4.0912,-4.0912,-4.0912,-4.0912,-4.0912,-4.0912,-4.0864,-4.084,-4.084,-4.0799,-4.0279,-3.9549,-3.9418,-3.892,-3.8327,-3.8226,-3.7738,-3.7088,-3.6831,-3.68,-3.6831,-3.6569,-3.6492,-3.6492,-3.6492,-3.6492,-3.6492,-3.6492,-3.6492,-3.6492,-3.6492,-3.6492,-3.6492,-3.6492,-3.6492,-3.6492,-3.6492,-3.6492,-3.6492,-3.6492,-3.6492,-3.6492,-3.6492,-3.6492,-3.6492,-3.6492,-3.6492,-3.6492,-3.6492,-3.6492,-3.6492,-3.6492,-3.6492,-3.6492,-3.6492,-3.6492,-3.6492,-3.6492,-3.646,-3.6352,-3.6196,-3.6164,-3.6085,-3.5926,-3.5752,-3.5688,-3.5638,-3.5554,-3.5504,0.0,0.0,0.0,-4.0673,0.0,0.0,0.0,0.0,-4.0745,0.0,0.0,0.0,0.0,0.0,-4.0653,-3.9871,0.0,0.0,0.0,0.0,0.0,0.0,0.0,0.0,0.0,0.0,0.0,0.0,-4.0912,0.0,-4.0912,-4.0912,-4.0912,-4.0912,-4.0912,-4.0912,-4.0912,-4.0912,-4.0912,-4.0912,-4.0912,-4.0912,-4.0912,-4.0912,-4.0912,-4.0912,-4.0912,-4.0912,-4.0888,-4.0769,-4.0697,-4.0697,-4.0558,-4.0493,-4.0395,-3.9935,-3.9428,-3.892,-3.8601,-3.8362,-3.8153,-3.7578,-3.7387,-3.7268,-3.6693,-3.6492,-3.6492,-3.6492,-3.6492,-3.6492,-3.6492,-3.6492,-3.6492,-3.6492,-3.6492,-3.6492,-3.6492,-3.6492,-3.6492,-3.6492,-3.6492,-3.6492,-3.6492,-3.6492,-3.6492,-3.6492,-3.6492,-3.6492,-3.6492,-3.6492,-3.6492,-3.6492,-3.6492,-3.6492,-3.6492,-3.6492,-3.6492,-3.6492,-3.6492,-3.6492,-3.6492,-3.6305,-3.6211,-3.6196,-3.6053,-3.5894,-3.572,-3.5688,-3.5638,-3.5504,-3.5504,-3.5504,0.0,0.0,-4.0271,-4.051,0.0,0.0,0.0,0.0,0.0,0.0,0.0,0.0,0.0,0.0,-4.0784,-4.0408,-4.0651,-4.0808,0.0,0.0,0.0,0.0,0.0,0.0,0.0,0.0,0.0,-4.0912,-4.0912,-4.0912,0.0,-4.0912,-4.0912,-4.0912,-4.0912,-4.0912,-4.0912,-4.0912,-4.0912,-4.0912,-4.0912,-4.0912,-4.0912,-4.0912,-4.0912,-4.0912,-4.0912,-4.0864,-4.0769,-4.0721,-4.0648,-4.0558,-4.0534,-4.051,-4.0468,-4.032,-3.9833,-3.9172,-3.8585,-3.8334,-3.8266,-3.8067,-3.7982,-3.7867,-3.7298,-3.7104,-3.7013,-3.66,-3.6492,-3.6492,-3.6492,-3.6492,-3.6492,-3.6492,-3.6492,-3.6492,-3.6492,-3.6492,-3.6492,-3.6492,-3.6492,-3.6492,-3.6492,-3.6492,-3.6492,-3.6492,-3.6492,-3.6492,-3.6492,-3.6492,-3.6492,-3.6492,-3.6492,-3.6492,-3.6492,-3.6492,-3.6492,-3.6492,-3.6383,-3.6305,-3.6305,-3.6148,-3.6022,-3.5879,-3.5816,-3.5703,-3.5572,-3.5572,-3.5554,-3.5504,-3.5504,-3.5504,-4.0213,-4.0163,0.0,-4.0362,-4.0337,0.0,-4.0461,0.0,0.0,0.0,0.0,0.0,0.0,0.0,-4.0769,-4.0697,-4.0769,-4.084,0.0,-4.0912,0.0,0.0,0.0,0.0,0.0,0.0,-4.0912,-4.0912,-4.0912,-4.0912,0.0,0.0,-4.0912,-4.0912,-4.0912,-4.0912,-4.0912,-4.0912,-4.0912,-4.0912,-4.0912,-4.0912,-4.0912,-4.0912,-4.0912,-4.0912,-4.0864,-4.0793,-4.0697,-4.06,-4.0502,-4.0412,-4.0387,-4.0362,-4.0345,-4.0412,-4.0104,-3.9584,-3.9092,-3.8794,-3.8574,-3.8379,-3.8306,-3.8153,-3.7312,-3.7238,-3.7328,-3.6922,-3.6662,-3.6554,-3.6754,-3.6662,-3.6492,-3.6492,-3.6492,-3.6492,-3.6492,-3.6492,-3.6492,-3.6492,-3.6492,-3.6492,-3.6492,-3.6492,-3.6492,-3.6492,-3.6492,-3.6492,-3.6492,-3.6492,-3.6492,-3.6492,-3.6492,-3.6492,-3.6492,-3.6492,-3.6492,-3.6492,-3.6305,-3.6196,-3.6196,-3.599,-3.5831,-3.5688,-3.5638,-3.5604,-3.5504,-3.5504,-3.5504,-3.5504,-3.5504,-3.5504]},{"header":{"parameterUnit":"m.s-1","parameterCategory":1,"la1":30.6,"la2":29.2853,"lo1":-89.7004,"lo2":-87.6739,"dy":0.0162,"dx":0.0183,"nx":112,"ny":82,"refTime":"2023-08-10T06:00:00:Z","depth":0,"parameterNumber":3,"parameterNumberName":"V-component_of_WINDS"},"data":[0.0,0.0,0.0,0.0,0.0,0.0,0.0,0.0,0.0,0.0,0.0,0.0,0.0,0.0,0.0,0.0,0.0,0.0,0.0,0.0,0.0,0.0,0.0,0.0,0.0,0.0,0.0,0.0,0.0,0.0,0.0,0.0,0.0,0.0,0.0,0.0,0.0,0.0,0.0,0.0,0.0,0.0,0.0,0.0,0.0,0.0,0.0,0.0,0.0,0.0,0.0,0.0,0.0,0.0,0.0,0.0,0.0,0.0,0.0,0.0,0.0,0.0,0.0,0.0,0.0,0.0,0.0,0.0,0.0,0.0,0.0,0.0,0.0,0.0,0.0,0.0,0.0,0.0,0.0,0.0,0.0,0.0,0.0,0.0,0.0,0.0,0.0,0.0,0.0,0.0,0.0,-2.6758,-2.5577,-2.4726,-2.4578,-2.4578,-2.4381,-2.3926,0.0,0.0,0.0,0.0,0.0,0.0,0.0,0.0,0.0,0.0,0.0,0.0,0.0,0.0,0.0,0.0,0.0,0.0,0.0,0.0,0.0,0.0,0.0,0.0,0.0,0.0,0.0,0.0,0.0,0.0,0.0,0.0,0.0,0.0,0.0,0.0,0.0,0.0,0.0,0.0,0.0,0.0,0.0,0.0,0.0,0.0,0.0,0.0,0.0,0.0,0.0,0.0,0.0,0.0,0.0,0.0,0.0,0.0,0.0,0.0,0.0,0.0,0.0,0.0,0.0,0.0,0.0,0.0,0.0,0.0,0.0,0.0,0.0,0.0,0.0,0.0,0.0,0.0,0.0,0.0,0.0,0.0,0.0,0.0,0.0,0.0,0.0,0.0,0.0,0.0,0.0,0.0,0.0,0.0,0.0,0.0,0.0,0.0,0.0,0.0,0.0,0.0,0.0,0.0,-2.9485,-2.8172,-2.6856,-2.5771,-2.4932,-2.4833,-2.4784,-2.4735,0.0,0.0,0.0,0.0,0.0,0.0,0.0,0.0,0.0,0.0,0.0,0.0,0.0,0.0,0.0,0.0,0.0,0.0,0.0,0.0,0.0,0.0,0.0,0.0,0.0,0.0,0.0,0.0,0.0,0.0,0.0,0.0,0.0,0.0,0.0,0.0,0.0,0.0,0.0,0.0,0.0,0.0,0.0,0.0,0.0,0.0,0.0,0.0,0.0,0.0,0.0,0.0,0.0,0.0,0.0,0.0,0.0,0.0,0.0,0.0,0.0,0.0,0.0,0.0,0.0,0.0,0.0,0.0,0.0,0.0,0.0,0.0,0.0,0.0,0.0,0.0,0.0,0.0,0.0,0.0,0.0,0.0,0.0,0.0,0.0,0.0,0.0,0.0,0.0,0.0,0.0,0.0,0.0,0.0,0.0,0.0,0.0,0.0,0.0,0.0,0.0,0.0,0.0,-2.8734,-2.8971,-2.7702,-2.6536,-2.5488,-2.4479,-2.466,-2.4746,-2.465,-2.4725,0.0,0.0,0.0,0.0,0.0,0.0,0.0,0.0,0.0,0.0,0.0,0.0,0.0,0.0,0.0,0.0,0.0,0.0,0.0,0.0,0.0,0.0,0.0,0.0,0.0,0.0,0.0,0.0,0.0,0.0,0.0,0.0,0.0,0.0,0.0,0.0,0.0,0.0,0.0,0.0,0.0,0.0,0.0,0.0,0.0,0.0,0.0,0.0,0.0,0.0,0.0,0.0,0.0,0.0,0.0,0.0,0.0,0.0,0.0,0.0,0.0,0.0,0.0,0.0,0.0,0.0,0.0,0.0,0.0,0.0,0.0,0.0,0.0,0.0,0.0,0.0,0.0,0.0,0.0,0.0,0.0,0.0,0.0,0.0,0.0,0.0,0.0,0.0,0.0,0.0,0.0,0.0,0.0,0.0,0.0,0.0,0.0,0.0,0.0,0.0,0.0,0.0,-2.856,-2.8,-2.6786,-2.6003,-2.5108,-2.4173,-2.4408,-2.4551,-2.4397,-2.4802,0.0,0.0,0.0,0.0,0.0,0.0,0.0,0.0,0.0,0.0,0.0,0.0,0.0,0.0,0.0,0.0,0.0,0.0,0.0,0.0,0.0,0.0,0.0,0.0,0.0,0.0,0.0,0.0,0.0,0.0,0.0,0.0,0.0,0.0,0.0,0.0,0.0,0.0,0.0,0.0,0.0,0.0,0.0,0.0,0.0,0.0,0.0,0.0,0.0,0.0,0.0,0.0,0.0,0.0,0.0,0.0,0.0,0.0,0.0,0.0,0.0,0.0,0.0,0.0,0.0,0.0,0.0,0.0,0.0,0.0,0.0,0.0,0.0,0.0,0.0,0.0,0.0,0.0,0.0,0.0,0.0,0.0,0.0,0.0,0.0,0.0,0.0,0.0,0.0,0.0,0.0,0.0,0.0,0.0,0.0,0.0,0.0,0.0,0.0,0.0,0.0,0.0,-2.7522,-2.7512,-2.6096,-2.5924,-2.5482,-2.446,-2.4397,-2.4407,-2.4414,-2.3523,0.0,0.0,0.0,0.0,0.0,0.0,0.0,0.0,0.0,0.0,0.0,0.0,0.0,0.0,0.0,0.0,0.0,0.0,0.0,0.0,0.0,0.0,0.0,0.0,0.0,0.0,0.0,0.0,0.0,0.0,0.0,0.0,0.0,0.0,0.0,0.0,0.0,0.0,0.0,0.0,0.0,0.0,0.0,0.0,0.0,0.0,0.0,0.0,0.0,0.0,0.0,0.0,0.0,0.0,0.0,0.0,0.0,0.0,0.0,0.0,0.0,0.0,0.0,0.0,0.0,0.0,0.0,0.0,0.0,0.0,0.0,0.0,0.0,0.0,0.0,0.0,0.0,0.0,0.0,0.0,0.0,0.0,0.0,0.0,0.0,0.0,0.0,0.0,0.0,0.0,0.0,0.0,0.0,0.0,0.0,0.0,0.0,0.0,0.0,0.0,0.0,0.0,-2.7295,-2.6864,0.0,-2.5039,-2.4655,-2.3658,-2.3867,-2.3906,-2.3598,0.0,0.0,0.0,0.0,0.0,0.0,0.0,0.0,0.0,0.0,0.0,0.0,0.0,0.0,0.0,0.0,0.0,0.0,0.0,0.0,0.0,0.0,0.0,0.0,0.0,0.0,0.0,0.0,0.0,0.0,0.0,0.0,0.0,0.0,0.0,0.0,0.0,0.0,0.0,0.0,0.0,0.0,0.0,0.0,0.0,0.0,0.0,0.0,0.0,0.0,0.0,0.0,0.0,0.0,0.0,0.0,0.0,0.0,0.0,0.0,0.0,0.0,0.0,0.0,0.0,0.0,0.0,0.0,0.0,0.0,0.0,0.0,0.0,0.0,0.0,0.0,0.0,0.0,0.0,0.0,0.0,0.0,0.0,0.0,0.0,0.0,0.0,0.0,0.0,0.0,0.0,0.0,0.0,0.0,0.0,0.0,0.0,0.0,0.0,0.0,0.0,0.0,-2.6753,-2.701,-2.6588,0.0,-2.4669,-2.4241,-2.3604,-2.3541,-2.3457,-2.311,0.0,0.0,0.0,0.0,0.0,0.0,0.0,0.0,0.0,0.0,0.0,0.0,0.0,0.0,0.0,0.0,0.0,0.0,0.0,0.0,0.0,0.0,0.0,0.0,0.0,0.0,0.0,0.0,0.0,0.0,0.0,0.0,0.0,0.0,0.0,0.0,0.0,0.0,0.0,0.0,0.0,0.0,0.0,0.0,0.0,0.0,0.0,0.0,0.0,0.0,0.0,0.0,0.0,0.0,0.0,0.0,0.0,0.0,0.0,0.0,0.0,0.0,0.0,0.0,0.0,0.0,0.0,0.0,0.0,0.0,0.0,0.0,0.0,0.0,0.0,0.0,0.0,0.0,0.0,0.0,0.0,0.0,0.0,0.0,0.0,0.0,0.0,0.0,0.0,0.0,0.0,0.0,0.0,0.0,0.0,0.0,0.0,0.0,0.0,0.0,0.0,0.0,-2.6038,-2.6629,-2.6846,-2.5913,-2.5031,-2.4498,-2.4498,-2.3647,-2.3091,0.0,0.0,0.0,0.0,0.0,0.0,0.0,0.0,0.0,0.0,0.0,0.0,0.0,0.0,0.0,0.0,0.0,0.0,0.0,0.0,0.0,0.0,0.0,0.0,0.0,0.0,0.0,0.0,0.0,0.0,0.0,0.0,0.0,0.0,0.0,0.0,0.0,0.0,0.0,0.0,0.0,0.0,0.0,0.0,0.0,0.0,0.0,0.0,0.0,0.0,0.0,0.0,0.0,0.0,0.0,0.0,0.0,0.0,0.0,0.0,0.0,0.0,0.0,0.0,0.0,0.0,0.0,0.0,0.0,0.0,0.0,0.0,0.0,0.0,0.0,0.0,0.0,0.0,0.0,0.0,0.0,0.0,0.0,0.0,0.0,0.0,0.0,0.0,0.0,0.0,0.0,0.0,0.0,0.0,0.0,0.0,0.0,0.0,0.0,0.0,0.0,0.0,0.0,-2.6846,-2.701,-2.6846,-2.5913,-2.5031,-2.4498,-2.4498,-2.3647,-2.3091,-2.3091,0.0,0.0,0.0,0.0,0.0,0.0,0.0,0.0,0.0,0.0,0.0,0.0,0.0,0.0,0.0,0.0,0.0,0.0,0.0,0.0,0.0,0.0,0.0,0.0,0.0,0.0,0.0,0.0,0.0,0.0,0.0,0.0,0.0,0.0,0.0,0.0,0.0,0.0,0.0,0.0,0.0,0.0,0.0,0.0,0.0,0.0,0.0,0.0,0.0,0.0,0.0,0.0,0.0,0.0,0.0,0.0,0.0,0.0,0.0,0.0,0.0,0.0,0.0,0.0,0.0,0.0,0.0,0.0,0.0,0.0,0.0,0.0,0.0,0.0,0.0,0.0,0.0,0.0,0.0,0.0,0.0,0.0,0.0,0.0,0.0,0.0,0.0,0.0,0.0,0.0,0.0,0.0,0.0,0.0,0.0,0.0,0.0,0.0,0.0,0.0,0.0,0.0,-2.7725,-2.7725,-2.751,-2.6958,-2.608,-2.5421,-2.5031,-2.4188,-2.3517,-2.3135,0.0,0.0,0.0,0.0,0.0,0.0,0.0,0.0,0.0,0.0,0.0,0.0,0.0,0.0,0.0,0.0,0.0,0.0,0.0,0.0,0.0,0.0,0.0,0.0,0.0,0.0,0.0,0.0,0.0,0.0,0.0,0.0,0.0,0.0,0.0,0.0,0.0,0.0,0.0,0.0,0.0,0.0,0.0,0.0,0.0,0.0,0.0,0.0,0.0,0.0,0.0,0.0,0.0,0.0,0.0,0.0,0.0,0.0,0.0,0.0,0.0,0.0,0.0,0.0,0.0,0.0,0.0,0.0,0.0,0.0,0.0,0.0,0.0,0.0,0.0,0.0,0.0,0.0,0.0,0.0,0.0,0.0,0.0,0.0,0.0,0.0,0.0,0.0,0.0,0.0,0.0,0.0,0.0,0.0,0.0,0.0,0.0,0.0,0.0,0.0,0.0,0.0,-2.851,-2.851,-2.851,-2.851,-2.7725,-2.6835,-2.5872,-2.4988,-2.4112,-2.3178,0.0,0.0,0.0,0.0,0.0,0.0,0.0,0.0,0.0,0.0,0.0,0.0,0.0,0.0,0.0,0.0,0.0,0.0,0.0,0.0,0.0,0.0,0.0,0.0,0.0,0.0,0.0,0.0,0.0,0.0,0.0,0.0,0.0,0.0,0.0,0.0,0.0,0.0,0.0,0.0,0.0,0.0,0.0,0.0,0.0,0.0,0.0,0.0,0.0,0.0,0.0,0.0,0.0,0.0,0.0,0.0,0.0,0.0,0.0,0.0,-2.0709,0.0,0.0,0.0,0.0,0.0,0.0,0.0,0.0,0.0,0.0,0.0,0.0,0.0,0.0,0.0,0.0,0.0,0.0,0.0,0.0,0.0,0.0,0.0,0.0,0.0,0.0,0.0,0.0,0.0,0.0,0.0,0.0,0.0,0.0,0.0,0.0,0.0,0.0,0.0,0.0,0.0,-2.851,-2.851,-2.851,-2.851,-2.7725,-2.6835,-2.5872,-2.4988,-2.4112,-2.3178,-2.3091,0.0,0.0,0.0,0.0,0.0,0.0,0.0,0.0,0.0,0.0,0.0,0.0,0.0,0.0,0.0,0.0,0.0,0.0,0.0,0.0,0.0,0.0,0.0,0.0,0.0,0.0,0.0,0.0,0.0,0.0,0.0,0.0,0.0,0.0,0.0,0.0,0.0,0.0,0.0,0.0,0.0,0.0,0.0,0.0,0.0,0.0,0.0,0.0,0.0,0.0,0.0,0.0,0.0,0.0,0.0,0.0,0.0,0.0,0.0,0.0,-2.1454,0.0,0.0,0.0,0.0,0.0,0.0,0.0,0.0,0.0,0.0,0.0,0.0,0.0,0.0,0.0,0.0,0.0,0.0,0.0,0.0,0.0,0.0,0.0,0.0,0.0,0.0,0.0,0.0,0.0,0.0,0.0,0.0,0.0,0.0,0.0,0.0,0.0,0.0,0.0,0.0,-2.7886,-2.8219,-2.851,-2.851,-2.8099,-2.7296,-2.5902,-2.5368,-2.4531,-2.3178,-2.3091,0.0,0.0,0.0,0.0,0.0,0.0,0.0,0.0,0.0,0.0,0.0,0.0,0.0,0.0,0.0,0.0,0.0,0.0,0.0,0.0,0.0,0.0,0.0,0.0,0.0,0.0,0.0,0.0,0.0,0.0,0.0,0.0,0.0,0.0,0.0,0.0,0.0,0.0,0.0,0.0,0.0,0.0,0.0,0.0,0.0,0.0,0.0,0.0,0.0,0.0,0.0,0.0,0.0,-2.1696,-2.1696,-2.1696,-2.1741,-2.1785,-2.1785,-2.2052,-2.2141,-2.2097,0.0,0.0,0.0,0.0,0.0,0.0,0.0,0.0,0.0,0.0,0.0,0.0,0.0,0.0,0.0,0.0,0.0,0.0,0.0,0.0,0.0,0.0,0.0,0.0,0.0,-2.6876,-2.7214,0.0,0.0,0.0,0.0,0.0,0.0,0.0,0.0,0.0,0.0,0.0,0.0,-2.7429,-2.8059,-2.851,-2.851,-2.851,-2.7834,-2.6163,-2.5902,-2.5073,-2.3387,-2.3135,-2.2925,0.0,0.0,0.0,0.0,0.0,0.0,0.0,0.0,0.0,0.0,0.0,0.0,0.0,0.0,0.0,0.0,0.0,0.0,0.0,0.0,0.0,0.0,0.0,0.0,0.0,0.0,0.0,0.0,0.0,0.0,0.0,0.0,-2.2555,-2.1606,0.0,0.0,0.0,0.0,0.0,0.0,0.0,0.0,0.0,0.0,0.0,0.0,0.0,0.0,-2.1347,-2.1562,-2.1696,-2.1696,-2.1696,-2.1696,-2.1696,-2.1919,-2.2052,-2.2052,-2.2264,0.0,-2.2097,-2.2309,0.0,0.0,0.0,0.0,0.0,0.0,0.0,0.0,0.0,0.0,0.0,0.0,0.0,0.0,0.0,0.0,0.0,0.0,0.0,0.0,0.0,0.0,-2.8127,-2.8127,-2.8219,-2.8299,0.0,-2.6917,-2.5997,-2.6712,-2.6205,0.0,0.0,0.0,0.0,0.0,0.0,0.0,-2.8351,-2.8431,-2.851,-2.851,-2.851,-2.8099,-2.7092,-2.6287,-2.5274,-2.4049,-2.3256,-2.2627,-2.223,-2.2185,0.0,0.0,0.0,0.0,0.0,0.0,0.0,0.0,0.0,0.0,0.0,0.0,0.0,0.0,0.0,0.0,0.0,0.0,0.0,0.0,0.0,0.0,0.0,0.0,0.0,0.0,0.0,0.0,0.0,-2.1006,-2.1275,-2.0195,-2.0187,-1.9914,0.0,0.0,0.0,0.0,0.0,0.0,0.0,0.0,0.0,-2.1132,-2.1042,-2.1141,-2.1392,-2.1607,-2.1696,-2.1696,-2.1696,-2.1696,-2.1696,-2.183,-2.1874,-2.1874,-2.2141,-2.2264,-2.2264,-2.2353,-2.2353,-2.2264,0.0,0.0,0.0,0.0,-2.356,-2.3343,-2.4198,-2.4988,0.0,0.0,0.0,0.0,0.0,0.0,0.0,0.0,0.0,0.0,0.0,0.0,0.0,-2.8379,-2.851,-2.851,-2.851,-2.7886,-2.7296,0.0,-2.6464,-2.5955,-2.6505,0.0,0.0,0.0,0.0,0.0,-2.7765,-2.8179,-2.851,-2.851,-2.851,-2.8087,-2.708,-2.6607,-2.5694,-2.4049,-2.3594,-2.3003,-2.2141,-2.2097,-2.2008,0.0,0.0,0.0,0.0,0.0,0.0,0.0,0.0,0.0,0.0,0.0,0.0,0.0,0.0,0.0,0.0,0.0,0.0,0.0,0.0,0.0,0.0,0.0,0.0,0.0,0.0,0.0,0.0,-2.0096,-2.0602,-1.9658,-1.9778,-1.9687,0.0,0.0,0.0,0.0,0.0,0.0,-2.1935,-2.1579,-2.1356,-2.132,-2.1132,-2.1141,-2.1482,-2.1607,-2.1696,-2.1696,-2.1696,-2.1696,-2.1696,-2.1776,-2.1785,-2.1687,-2.1963,-2.2141,-2.222,-2.2353,-2.2309,-2.223,-2.2574,-2.2671,-2.2759,-2.3691,-2.3691,-2.3299,-2.4445,-2.5326,-2.5872,-2.5621,0.0,-2.7051,-2.637,0.0,0.0,0.0,0.0,-2.637,-2.7307,-2.751,-2.7684,-2.8351,-2.851,-2.851,-2.851,-2.8299,-2.8059,0.0,-2.6958,-2.6712,-2.7429,0.0,0.0,0.0,0.0,-2.751,-2.751,-2.8099,-2.851,-2.851,-2.8471,-2.7966,-2.6894,-2.6565,-2.5599,-2.379,-2.3497,-2.294,-2.2052,-2.2008,-2.1919,-2.1696,0.0,0.0,0.0,0.0,0.0,0.0,0.0,0.0,0.0,0.0,0.0,0.0,0.0,0.0,0.0,0.0,0.0,0.0,0.0,0.0,0.0,0.0,0.0,0.0,0.0,0.0,0.0,0.0,0.0,-2.1597,-2.1971,0.0,0.0,0.0,0.0,-2.165,-2.2129,-2.2677,-2.3363,-2.2113,-2.1891,-2.296,-2.1713,-2.123,-2.1696,-2.1687,-2.1696,-2.1696,-2.1696,-2.1696,-2.1696,-2.1963,-2.1919,-2.1687,-2.1963,-2.1963,-2.1776,-2.222,-2.2388,-2.2397,-2.2397,-2.2309,-2.2185,-2.2706,-2.3387,-2.4221,-2.5358,-2.6329,-2.7267,-2.8047,-2.7805,-2.7185,-2.7144,-2.6505,0.0,0.0,-2.7144,-2.7348,-2.8219,-2.8431,-2.8431,-2.8471,-2.851,-2.851,-2.851,-2.7846,-2.751,0.0,-2.8391,-2.8379,-2.8431,0.0,-2.8379,-2.8431,-2.8431,-2.8431,-2.8431,-2.8471,-2.851,-2.851,-2.8339,-2.7834,-2.6894,-2.5861,-2.4766,-2.3521,-2.2643,-2.2052,-2.1731,-2.1741,-2.1687,-2.1696,-2.1696,0.0,0.0,0.0,0.0,0.0,0.0,0.0,0.0,0.0,0.0,0.0,0.0,0.0,0.0,0.0,0.0,0.0,0.0,0.0,0.0,0.0,0.0,0.0,0.0,0.0,0.0,0.0,0.0,-2.1275,-2.2031,0.0,0.0,-2.2041,-2.2306,-2.2183,-2.3149,-2.3474,-2.2809,-2.2579,-2.256,-2.2839,-2.2125,-2.1992,-2.2474,-2.2474,-2.2474,-2.2474,-2.2474,-2.2474,-2.2474,-2.2566,-2.2566,-2.2474,-2.276,-2.2806,-2.2751,-2.2889,-2.2662,-2.223,-2.253,-2.2618,-2.2662,-2.356,-2.3734,-2.3594,-2.4616,-2.5168,-2.5715,-2.7174,-2.7846,-2.8059,-2.8059,-2.7794,-2.7632,-2.7926,-2.8059,-2.8099,-2.8431,-2.851,-2.851,-2.851,-2.851,-2.851,-2.851,-2.8259,-2.8139,-2.8431,-2.8059,-2.7846,-2.8391,-2.851,-2.851,-2.851,-2.851,-2.851,-2.851,-2.851,-2.8471,-2.8299,-2.8259,-2.7926,-2.7296,-2.6381,-2.5337,-2.4188,-2.3236,-2.2422,-2.1731,-2.1696,-2.1696,-2.1696,-2.1696,-2.1696,0.0,0.0,0.0,0.0,0.0,0.0,0.0,0.0,0.0,0.0,0.0,0.0,0.0,0.0,0.0,0.0,0.0,0.0,0.0,0.0,0.0,0.0,0.0,0.0,0.0,0.0,-2.2375,-2.1525,-2.2507,-2.3062,-2.2369,-2.2931,-2.3236,-2.3105,-2.4102,-2.4226,-2.3011,-2.3109,-2.3118,-2.2861,-2.2411,-2.2413,-2.2904,-2.2904,-2.2904,-2.2904,-2.2904,-2.2904,-2.2904,-2.2904,-2.2904,-2.2913,-2.3101,-2.3148,-2.3148,-2.3148,-2.2871,-2.2407,-2.2662,-2.2698,-2.275,-2.3604,-2.357,-2.3222,-2.4155,-2.4701,-2.521,-2.6723,-2.7592,-2.8139,-2.8431,-2.851,-2.851,-2.851,-2.851,-2.851,-2.851,-2.851,-2.851,-2.851,-2.851,-2.851,-2.851,-2.851,-2.851,-2.851,-2.8007,-2.7805,-2.8391,-2.851,-2.851,-2.851,-2.851,-2.851,-2.851,-2.851,-2.8431,-2.8219,-2.8139,-2.7817,-2.7103,-2.6185,-2.5168,-2.4102,-2.3149,-2.2325,-2.1731,-2.1696,-2.1696,-2.1696,-2.1696,-2.1696,-2.1696,0.0,0.0,0.0,0.0,0.0,0.0,0.0,0.0,0.0,0.0,0.0,0.0,0.0,0.0,0.0,0.0,0.0,0.0,0.0,0.0,0.0,0.0,0.0,-2.1784,-2.2306,-2.2692,-2.2482,-2.3647,-2.4196,-2.3547,-2.4077,-2.4475,-2.4475,-2.4898,-2.4836,-2.4093,-2.3777,-2.3561,-2.3289,-2.2582,-2.2449,-2.295,-2.295,-2.295,-2.295,-2.295,-2.295,-2.295,-2.295,-2.295,-2.295,-2.295,-2.295,-2.295,-2.295,-2.294,-2.2933,-2.2787,-2.2605,-2.2479,-2.2754,-2.2955,-2.3242,-2.4166,-2.5073,-2.5944,-2.6887,-2.7226,-2.7389,-2.8219,-2.851,-2.851,-2.851,-2.851,-2.851,-2.851,-2.851,-2.851,-2.851,-2.851,-2.851,-2.851,-2.851,-2.851,-2.851,-2.851,-2.851,-2.851,-2.851,-2.851,-2.851,-2.851,0.0,-2.851,-2.851,-2.8431,-2.8219,-2.799,-2.7423,-2.631,-2.5179,-2.4102,-2.3183,-2.229,-2.1776,-2.1731,-2.1731,-2.1731,-2.1696,-2.1696,-2.1696,-2.1696,0.0,0.0,0.0,0.0,0.0,0.0,0.0,0.0,0.0,0.0,0.0,0.0,0.0,0.0,0.0,0.0,0.0,0.0,0.0,0.0,0.0,0.0,-2.1793,-2.2183,-2.3246,-2.4003,-2.3917,-2.3841,-2.3721,-2.3503,-2.3991,-2.4072,-2.3539,-2.4301,-2.4776,-2.4574,-2.3683,-2.3594,-2.4496,-2.3551,-2.3323,-2.3822,-2.3822,-2.3822,-2.3822,-2.3822,-2.3822,-2.3822,-2.3822,-2.3822,-2.3822,-2.3822,-2.3822,-2.3822,-2.3822,-2.3648,-2.3345,-2.3177,-2.3214,-2.3377,-2.3606,-2.3641,-2.3688,-2.4268,-2.5073,-2.5944,-2.6887,-2.7632,-2.8179,-2.8431,-2.851,-2.851,-2.851,-2.851,-2.851,-2.851,-2.851,-2.851,-2.851,-2.851,-2.851,-2.851,-2.851,-2.851,-2.851,-2.851,-2.851,-2.851,-2.851,-2.851,-2.851,-2.851,0.0,-2.851,-2.8379,-2.8259,-2.8219,-2.7278,-2.6816,-2.7103,-2.5505,-2.4402,-2.4145,-2.3854,-2.341,-2.2755,-2.2711,-2.2369,-2.1687,-2.1696,-2.1696,0.0,0.0,0.0,0.0,0.0,0.0,0.0,0.0,0.0,0.0,0.0,0.0,0.0,0.0,0.0,0.0,0.0,0.0,0.0,0.0,0.0,0.0,-2.1177,-2.1535,-2.1917,-2.294,-2.3604,-2.3604,-2.3256,-2.3247,-2.3741,-2.3757,-2.3703,-2.3777,-2.4516,-2.4715,-2.4097,-2.3875,-2.3962,-2.4302,-2.3718,-2.3646,-2.4202,-2.4202,-2.4202,-2.4202,-2.4202,-2.4202,-2.4202,-2.4202,-2.4202,0.0,-2.4202,-2.4202,-2.4202,-2.4202,-2.4064,0.0,0.0,0.0,0.0,0.0,-2.4639,-2.473,-2.5237,-2.5701,-2.6261,-2.6955,-2.7551,-2.8007,-2.8391,-2.851,-2.851,-2.851,-2.851,-2.851,-2.851,-2.851,-2.851,-2.851,-2.851,-2.851,-2.851,-2.851,-2.851,-2.851,0.0,0.0,-2.851,-2.851,-2.851,-2.851,-2.851,-2.851,-2.851,-2.8391,-2.8259,-2.8111,-2.736,-2.7033,-2.7371,-2.5924,0.0,0.0,0.0,-2.4274,-2.3704,-2.3704,0.0,0.0,0.0,-2.2862,-2.2862,0.0,0.0,0.0,-2.1736,-2.1476,0.0,0.0,0.0,0.0,0.0,0.0,0.0,0.0,0.0,0.0,0.0,0.0,0.0,0.0,0.0,0.0,-2.0871,-2.1266,-2.1266,-2.183,-2.2293,-2.247,-2.247,-2.2897,-2.3924,-2.347,-2.3515,-2.4443,-2.4977,-2.4641,-2.3293,0.0,0.0,0.0,0.0,-2.384,-2.4339,-2.4339,-2.4339,-2.4339,-2.4339,-2.4339,-2.4339,-2.4339,-2.4339,-2.4339,-2.4339,-2.4339,-2.4339,-2.4293,-2.4248,-2.4165,-2.3749,-2.3544,-2.3645,-2.4934,-2.5589,-2.5889,-2.6487,0.0,0.0,-2.7318,-2.7521,-2.7685,-2.8438,-2.8691,-2.8691,-2.8691,-2.8691,-2.8679,-2.8619,-2.8595,-2.8582,-2.8522,-2.851,-2.851,-2.851,-2.851,-2.851,-2.851,-2.851,-2.851,-2.851,-2.851,-2.851,-2.851,-2.851,-2.8471,-2.8471,-2.8431,-2.8323,-2.7933,0.0,0.0,-2.7272,-2.6393,-2.5819,-2.5777,-2.5073,-2.4669,-2.4669,-2.4669,-2.4616,-2.4498,-2.4498,-2.4498,-2.4498,-2.4904,-2.5189,-2.5284,-2.237,-2.2038,0.0,0.0,0.0,0.0,0.0,0.0,0.0,0.0,0.0,0.0,0.0,0.0,0.0,0.0,0.0,-2.0292,-2.0419,-2.051,-2.051,-2.0878,-2.1623,-2.2744,-2.2915,-2.2939,-2.2842,-2.3561,-2.389,-2.3535,-2.3825,-2.4193,-2.4527,-2.4099,0.0,-2.4762,-2.4745,-2.4823,-2.5133,-2.5185,-2.5185,-2.5185,0.0,0.0,-2.5185,-2.5185,-2.5185,-2.5185,-2.5185,-2.5185,-2.5166,-2.4845,-2.4514,-2.4192,-2.4298,-2.4419,-2.4609,-2.4793,-2.5036,-2.5425,-2.6717,-2.7173,-2.7414,-2.9031,-2.9523,-2.9565,-2.9743,-2.9785,0.0,-2.9785,-2.9785,-2.9689,-2.9256,-2.9148,-2.9039,-2.8607,-2.851,-2.851,-2.851,-2.851,-2.851,-2.851,-2.851,-2.851,-2.851,-2.851,-2.851,-2.851,-2.851,-2.8431,-2.8259,-2.8111,-2.8014,-2.7933,-2.7085,-2.6787,-2.74,-2.664,-2.6049,-2.5819,-2.5652,-2.5526,-2.5526,-2.5526,-2.52,-2.4498,-2.4498,-2.4498,-2.4498,-2.4573,-2.52,-2.6202,-2.4468,-2.3874,0.0,0.0,0.0,0.0,0.0,0.0,0.0,0.0,0.0,0.0,0.0,-2.0292,0.0,0.0,-2.0292,-2.0292,-2.0454,-2.0583,-2.0583,-2.0908,-2.1353,-2.1895,-2.2122,-2.2393,-2.2799,-2.3015,-2.3304,-2.3741,-2.3908,-2.4106,-2.4296,-2.4264,-2.4432,-2.4775,-2.4776,-2.4936,-2.5424,-2.5424,-2.5424,-2.5424,-2.5424,-2.5424,-2.5424,-2.5424,-2.5424,-2.5424,-2.5424,-2.5424,-2.5405,-2.5161,-2.5001,-2.479,-2.4688,-2.4675,-2.4756,-2.5363,-2.5706,-2.6111,-2.7198,-2.761,-2.78,-2.8973,-2.9331,-2.9416,-2.9947,-3.0086,-3.0086,-3.0086,-3.0086,-3.0025,-2.9761,-2.9689,-2.9629,-2.9364,-2.9304,-2.9232,-2.8967,-2.8907,-2.8823,-2.8558,-2.851,-2.851,-2.851,-2.851,-2.851,-2.851,-2.8431,-2.8299,-2.8219,-2.803,-2.7841,-2.7696,-2.7196,-2.6981,-2.733,-2.6962,-2.6622,-2.6528,-2.6487,-2.6487,-2.6487,-2.6487,-2.6321,-2.5863,-2.5863,-2.5863,-2.5863,-2.6113,-2.6569,-2.7162,-2.614,-2.5631,0.0,0.0,0.0,0.0,0.0,0.0,0.0,0.0,-2.0292,-2.0292,-2.0292,-2.0292,-2.0292,-2.0292,-2.0317,-2.0394,-2.0677,-2.09,-2.0968,-2.1293,-2.1413,-2.1131,-2.1488,-2.2132,-2.3077,-2.2737,-2.2935,-2.4121,-2.4175,-2.4059,-2.3701,-2.4421,-2.4782,-2.4624,-2.4747,-2.5065,-2.561,-2.561,-2.561,-2.561,-2.561,-2.561,-2.561,-2.561,-2.561,-2.561,-2.561,-2.5617,-2.5534,-2.5534,-2.5488,-2.5387,-2.5023,-2.4836,-2.4802,-2.5684,-2.6244,-2.6635,-2.7647,-2.8011,-2.8172,-2.896,-2.9181,-2.9354,-3.0174,-3.0398,-3.0398,-3.0398,-3.0398,-3.0374,-3.0266,-3.0242,-3.0218,-3.011,-3.0086,-2.9965,-2.9544,-2.9448,-2.9304,-2.8763,-2.8667,-2.8631,-2.8522,-2.8471,-2.8471,-2.851,-2.8339,-2.8179,-2.8139,-2.795,-2.7708,-2.7482,-2.7482,-2.7441,-2.726,-2.726,-2.726,-2.726,-2.7231,-2.7231,-2.726,-2.726,-2.7219,-2.719,-2.7272,-2.7313,-2.726,-2.7679,-2.7921,-2.7938,-2.7305,-2.6956,-2.0292,-2.0292,0.0,-2.0292,-2.0292,-2.0292,0.0,0.0,-2.0292,-2.0292,-2.0292,-2.0292,-2.0292,-2.0292,-2.0403,-2.0754,-2.0848,-2.0994,-2.1302,-2.1687,-2.1919,-2.1876,-2.2518,-2.3024,-2.3116,-2.3679,-2.3959,-2.3773,-2.3781,-2.3745,-2.3718,-2.4365,-2.4834,-2.5049,-2.5594,-2.6109,-2.6454,-2.6454,-2.6454,-2.6454,-2.6454,-2.6454,-2.6454,-2.6454,-2.6454,-2.6454,-2.6454,-2.6243,-2.5947,-2.5947,-2.5736,-2.5414,-2.5378,-2.5323,-2.5245,-2.4849,-2.502,-2.5752,-2.761,-2.8419,-2.8916,-3.0761,-3.1348,-3.1392,-3.1492,-3.1536,-3.1536,-3.1536,-3.1536,-3.1428,-3.0946,-3.0826,-3.0675,-3.0194,-3.0086,-3.0074,-3.0013,-3.0001,-2.9845,-2.9316,-2.9208,-2.9063,-2.8595,-2.8339,-2.8299,-2.8471,-2.8339,-2.8139,-2.7962,-2.7696,-2.7441,-2.7272,-2.7412,-2.7482,-2.7482,-2.7482,-2.7482,-2.7482,-2.7301,-2.726,-2.7441,-2.7482,-2.7371,-2.719,-2.7598,-2.7708,-2.7482,-2.776,-2.8002,-2.8167,-2.7584,-2.7177,-2.0292,0.0,0.0,0.0,-2.0292,-2.0292,-2.0292,-2.0292,-2.0292,-2.0292,-2.0292,-2.036,-2.0591,-2.0634,-2.0754,0.0,-2.1379,-2.1585,-2.173,-2.2081,-2.2398,-2.2621,-2.2941,-2.3113,-2.3083,-2.3609,-2.3948,-2.3965,-2.3999,-2.4102,-2.4324,-2.4605,-2.4902,-2.5158,-2.5599,-2.6017,-2.63,-2.6473,-2.6591,-2.6591,-2.6591,-2.6591,-2.6591,-2.6591,-2.6591,-2.6591,-2.6591,-2.649,-2.6325,-2.6325,-2.6233,-2.6059,-2.5865,-2.5764,-2.5795,-2.6104,-2.6035,-2.6116,-2.8082,-2.8513,-2.8507,-3.0273,-3.0824,-3.0958,-3.1516,-3.1705,-3.1705,-3.1705,-3.1705,-3.1657,-3.1428,-3.138,-3.132,-3.1103,-3.1043,-3.097,-3.0615,-3.0585,-3.0386,-2.9857,-2.9508,-2.9232,-2.9003,-2.8542,-2.8219,-2.8299,-2.8007,-2.7765,-2.7696,-2.7464,-2.733,-2.7371,-2.7441,-2.7563,-2.7708,-2.7748,-2.7748,-2.7748,-2.7626,-2.7638,-2.7748,-2.7748,-2.7708,-2.7598,-2.78,-2.7841,-2.7748,-2.795,-2.8099,-2.8207,-2.7762,-2.739,-2.0292,0.0,0.0,-2.0292,-2.0292,-2.0292,-2.0292,-2.0292,-2.0292,-2.0292,-2.0377,-2.054,-2.0823,-2.096,-2.1148,-2.1516,-2.1807,-2.203,-2.2133,-2.2517,-2.2809,-2.3083,-2.3297,-2.3417,-2.3417,-2.3665,-2.3973,-2.4367,-2.4393,-2.4466,-2.4804,-2.4821,-2.4979,-2.534,-2.5569,-2.5852,-2.6245,-2.6473,-2.6591,-2.6591,-2.6591,-2.6591,-2.6591,-2.6591,-2.6591,-2.6591,-2.6591,-2.6591,-2.6591,-2.6591,-2.6591,-2.6554,-2.6306,-2.6186,-2.6301,-2.7266,-2.7209,-2.6863,-2.8575,-2.9101,-2.9203,-3.0582,-3.0971,-3.0956,-3.1699,-3.1837,-3.1705,-3.1705,-3.1705,-3.1705,-3.1705,-3.1472,-3.1383,-3.1617,-3.1472,-3.1276,-3.1124,-3.1052,-3.0853,-3.0325,-2.9834,-2.9433,-2.9176,-2.8614,-2.8184,-2.803,-2.7684,-2.7441,-2.7482,-2.7342,-2.726,-2.7482,-2.7563,-2.7708,-2.7881,-2.7962,-2.8002,-2.8002,-2.7921,-2.7921,-2.8002,-2.8002,-2.7962,-2.7893,-2.8002,-2.8042,-2.8002,-2.8179,-2.8299,-2.8287,-2.8035,-2.7722,0.0,0.0,-2.0292,-2.0292,-2.0292,-2.0292,-2.0292,-2.0292,-2.0292,-2.0292,-2.0591,-2.0912,-2.0883,-2.1156,-2.1525,-2.1919,-2.1987,-2.2124,-2.2534,-2.286,-2.31,-2.3117,-2.3759,-2.4142,0.0,-2.4159,-2.4321,-2.477,-2.4804,-2.4804,-2.4821,-2.4821,-2.509,-2.5688,-2.5679,-2.5962,-2.6591,-2.6582,-2.6591,-2.6591,-2.6591,-2.6591,-2.6591,-2.6591,-2.6591,-2.6591,-2.6591,-2.6591,-2.6591,-2.6591,-2.6591,-2.6591,-2.6573,-2.6564,-2.6727,-2.7785,-2.8011,-2.7925,-2.894,-3.0332,-3.1839,-3.2852,-3.2841,-3.2433,-3.2478,-3.2094,-3.1705,-3.1705,-3.1705,-3.1705,-3.1705,-3.0958,-3.0498,-3.1472,-3.0958,-3.0498,-3.1448,-3.146,-3.1128,-3.0604,-3.0336,-2.9832,-2.8798,-2.8414,-2.8126,-2.7592,-2.733,-2.726,-2.7482,-2.7342,-2.726,-2.7482,-2.7748,-2.7881,-2.7893,-2.807,-2.8179,-2.8179,-2.8002,-2.8002,-2.8179,-2.8179,-2.8111,-2.7893,-2.8271,-2.8391,-2.8179,-2.8379,-2.8471,-2.8471,-2.8498,-2.8316,-2.0292,0.0,-2.0292,-2.0292,-2.0292,-2.0292,-2.0292,-2.0292,-2.0369,-2.0626,-2.0788,-2.1028,-2.1533,-2.1722,-2.1927,-2.2354,-2.2414,-2.2542,-2.2869,-2.3032,-2.3297,-2.3794,-2.4022,0.0,0.0,0.0,0.0,-2.4812,-2.4821,-2.4821,-2.4821,-2.4821,-2.4979,-2.534,-2.5569,-2.5907,-2.6236,-2.6473,-2.6591,-2.6591,-2.6591,-2.6591,-2.6591,-2.6591,-2.6591,-2.6591,-2.6591,-2.6591,-2.6591,-2.6591,-2.6591,-2.6591,-2.6591,-2.7053,-2.7609,-2.7251,-2.811,-2.9599,-3.0491,-3.0828,-3.1078,-3.2759,-3.3176,-3.302,-3.302,-3.2647,-3.2214,-3.2214,-3.1949,-3.1705,-3.1705,-3.1427,-3.1282,-3.1617,-3.1427,-3.1282,-3.1617,-3.1484,-3.1247,-3.108,-3.0564,-3.0102,-2.9738,-2.8904,-2.8066,-2.7423,-2.7219,-2.7231,-2.7301,-2.7219,-2.7353,-2.7708,-2.7841,-2.8002,-2.8283,-2.8351,-2.8391,-2.8391,-2.8351,-2.8311,-2.8391,-2.8391,-2.8351,-2.8323,-2.8431,-2.8471,-2.8391,-2.8471,-2.851,-2.851,-2.8657,-2.8524,-2.0292,-2.0292,-2.0292,-2.0292,-2.0292,-2.0292,-2.0292,-2.0403,-2.0574,-2.0823,-2.1097,-2.1422,-2.191,-2.2107,-2.2319,-2.256,-2.2594,-2.2731,-2.3066,-2.3228,-2.3537,-2.4108,-2.4359,-2.4538,0.0,0.0,0.0,-2.4821,-2.4821,-2.4821,-2.4821,-2.4821,-2.5039,-2.5597,-2.5827,-2.6176,-2.6708,-2.6893,-2.7013,-2.7013,-2.7013,-2.7013,-2.7004,-2.6866,-2.6793,-2.6793,-2.6646,-2.6591,-2.6646,-2.6999,-2.7152,-2.7206,-2.7628,-2.8198,-2.8701,-2.8038,-2.8774,-3.0224,-3.0889,-3.1083,-3.1329,-3.3147,-3.3576,-3.3479,-3.3514,-3.32,-3.2791,-3.2791,-3.2382,-3.2006,-3.2006,-3.1583,-3.1238,-3.1617,-3.1427,-3.1238,-3.1484,-3.1362,-3.1172,-3.1083,-3.0589,-3.0155,-2.998,-2.8955,-2.8041,-2.7552,-2.7305,-2.719,-2.719,-2.719,-2.7394,-2.7852,-2.7893,-2.8042,-2.8471,-2.851,-2.851,-2.851,-2.851,-2.851,-2.851,-2.851,-2.851,-2.851,-2.851,-2.851,-2.851,-2.851,-2.851,-2.851,-2.8724,-2.8739,-2.0292,-2.0292,-2.0292,-2.0292,-2.0292,-2.03,-2.0317,-2.0609,-2.0891,-2.0925,-2.1499,-2.2004,0.0,0.0,-2.2594,-2.2594,-2.2594,-2.274,-2.3091,-2.3443,-2.3811,0.0,0.0,0.0,0.0,0.0,0.0,-2.4821,0.0,-2.483,-2.4847,-2.4847,-2.5289,-2.6273,-2.6338,-2.6807,-2.7765,-2.7765,-2.7822,-2.7822,-2.7822,-2.7822,-2.7813,-2.738,-2.7196,-2.716,-2.6784,-2.6609,-2.6691,-2.7716,-2.8126,-2.8223,-2.9387,-2.9869,-2.9922,-2.9922,-2.9922,-3.0026,-3.0276,-3.1235,-3.2627,-3.3967,-3.4112,-3.3768,-3.3994,-3.3729,-3.3332,-3.3332,-3.2947,-3.2527,-3.2515,-3.1394,-3.0532,-3.1484,-3.0958,-3.0453,-3.1116,-3.1139,-3.0883,-3.0623,-3.0397,-3.0067,-2.9584,-2.87,-2.8046,-2.7989,-2.7575,-2.7213,-2.719,-2.7231,-2.7394,-2.7841,-2.7933,-2.8082,-2.8471,-2.851,-2.851,-2.851,-2.851,-2.851,-2.851,-2.851,-2.851,-2.851,-2.851,-2.851,-2.851,-2.851,-2.851,-2.851,-2.8736,-2.8922,-2.0292,-2.0292,-2.0292,-2.0292,-2.0292,-2.0369,-2.066,-2.0805,-2.1037,-2.1602,-2.1867,-2.2081,0.0,0.0,0.0,-2.2594,-2.2594,0.0,-2.346,-2.3639,0.0,-2.459,0.0,-2.4821,-2.4821,-2.4821,0.0,0.0,-2.4821,-2.4941,-2.5215,-2.5232,-2.5565,-2.6337,-2.665,-2.6981,-2.7431,-2.7651,-2.7822,-2.7822,-2.7822,-2.7822,-2.7822,-2.7664,-2.7453,-2.7169,-2.7068,-2.6866,-2.6646,-2.6899,-2.6999,-2.7107,-2.8189,-2.9124,-2.9922,-2.9922,-3.0442,-3.1165,-3.1257,-3.1615,-3.2376,-3.3918,-3.4301,-3.4291,-3.4534,-3.421,-3.3802,-3.3802,-3.3477,-3.2996,-3.2599,-3.2201,-3.1851,-3.149,-3.1205,-3.1026,-3.1062,-3.0871,-3.0679,-3.0623,-3.0397,-3.0067,-2.9584,-2.9286,-2.885,-2.8092,-2.7874,-2.7656,-2.7236,-2.733,-2.7545,-2.7893,-2.803,-2.8231,-2.8471,-2.851,-2.851,-2.851,-2.851,-2.851,-2.851,-2.851,-2.851,-2.851,-2.851,-2.851,-2.851,-2.851,-2.851,-2.851,-2.8855,-2.938,-2.0292,-2.0292,-2.0292,-2.0292,-2.0292,-2.0394,-2.0788,-2.0883,-2.1045,-2.1619,-2.1876,0.0,-2.2319,0.0,0.0,0.0,0.0,0.0,-2.358,-2.3691,-2.3965,0.0,-2.4821,0.0,-2.4821,-2.4821,-2.4889,0.0,-2.5061,-2.5146,-2.5417,-2.5523,-2.5961,-2.6632,-2.6999,-2.7428,-2.8015,-2.8248,-2.8355,-2.8355,-2.8355,-2.8355,-2.8297,-2.8113,-2.7921,-2.7691,0.0,-2.705,-2.6885,-2.7172,-2.7305,-2.7457,-2.9071,-3.0057,-3.0701,-3.1227,-3.1812,-3.237,-3.237,-3.242,-3.2723,-3.3744,-3.4101,-3.415,-3.4396,-3.434,-3.4198,-3.4198,-3.3827,-3.342,-3.3214,-3.2644,-3.2077,-3.1722,-3.1383,-3.1095,-3.0871,-3.0724,-3.0578,-3.0442,-3.0306,-3.0135,-2.986,-2.9642,-2.9228,-2.8425,-2.8211,-2.793,-2.74,-2.7441,-2.7644,-2.799,-2.8139,-2.8259,-2.8471,-2.851,-2.851,-2.851,-2.851,-2.851,-2.851,-2.851,-2.851,-2.851,-2.851,-2.851,-2.851,-2.851,-2.851,-2.851,-2.8895,-2.9535,-2.0292,-2.0292,-2.0292,-2.0292,-2.0292,-2.0394,-2.0788,-2.0883,-2.0985,-2.1336,0.0,-2.1996,-2.1996,-2.2345,-2.2594,-2.2594,0.0,-2.2843,-2.3546,-2.3692,-2.3939,-2.4658,-2.4787,-2.4821,-2.4821,-2.4821,-2.4975,-2.54,-2.542,-2.5463,-2.5515,-2.5831,-2.6358,-2.7101,-2.7396,-2.8029,-2.8984,-2.8984,-2.8984,-2.8984,-2.8984,-2.8984,-2.8975,-2.8627,-2.8443,-2.8361,0.0,0.0,-2.7253,-2.8001,-2.8228,-2.8436,-3.0691,-3.1575,-3.1739,-3.2857,-3.3281,-3.3281,-3.3281,-3.3281,-3.3331,-3.363,-3.3679,-3.3729,-3.4026,-3.4211,-3.4335,-3.4335,-3.4075,-3.3779,-3.3875,-3.2936,-3.1935,-3.1977,-3.1532,-3.0965,-3.0646,-3.0532,-3.0487,-3.0261,-3.0216,-3.0216,-3.0216,-2.9871,-2.9412,-2.8884,-2.8561,-2.8189,-2.7696,-2.7598,-2.7765,-2.8179,-2.8219,-2.8299,-2.8471,-2.851,-2.851,-2.851,-2.851,-2.851,-2.851,-2.851,-2.851,-2.851,-2.851,-2.851,-2.851,-2.851,-2.851,-2.855,-2.904,-2.9678,-2.0292,-2.0292,-2.0292,-2.0292,-2.0292,-2.0394,-2.0788,-2.0883,0.0,0.0,-2.1722,-2.1996,-2.1996,-2.2345,-2.2594,-2.2594,0.0,0.0,0.0,0.0,-2.3853,0.0,0.0,0.0,0.0,0.0,0.0,0.0,0.0,0.0,-2.6277,-2.6354,-2.6864,-2.7794,-2.7853,-2.8247,-2.8984,-2.8984,-2.8984,-2.8984,-2.8984,-2.8984,-2.8984,-2.8911,-2.87,-2.8388,0.0,0.0,-2.728,-2.8272,-2.8501,-2.8436,-3.0691,-3.1575,-3.1739,-3.2857,-3.3281,-3.3281,-3.3281,-3.3281,-3.3331,-3.363,-3.3679,-3.3729,-3.4026,-3.4125,-3.4162,-3.4162,-3.4103,-3.3938,-3.3514,-3.3218,-3.277,-3.1763,-3.1402,-3.1124,-3.0399,-3.0261,-3.0261,-3.0216,-3.0216,-3.0216,-3.0216,-3.0147,-2.9929,-2.9435,-2.895,-2.8572,-2.8427,-2.8238,-2.8087,-2.8179,-2.8339,-2.8471,-2.851,-2.851,-2.851,-2.851,-2.851,-2.851,-2.851,-2.851,-2.851,-2.851,-2.851,-2.851,-2.851,-2.851,-2.8578,-2.8764,-2.9678,-3.062,-2.0337,-2.0292,-2.0292,-2.0292,-2.0292,-2.0394,-2.0788,0.0,0.0,0.0,-2.1559,-2.1756,-2.1961,0.0,0.0,0.0,0.0,0.0,0.0,0.0,0.0,0.0,0.0,0.0,0.0,0.0,0.0,0.0,0.0,0.0,-2.6465,-2.6679,-2.7176,-2.7951,-2.802,-2.8319,-2.8984,-2.8984,-2.8984,-2.8984,-2.8984,-2.8984,-2.8984,-2.8984,-2.8883,-2.8691,-2.8489,0.0,-2.7575,-2.8445,-2.8579,-2.8436,-3.0691,-3.1575,-3.1739,-3.2857,-3.3281,-3.3281,-3.3281,-3.3281,-3.3331,-3.3431,-3.3481,-3.353,-3.363,-3.3779,-3.3878,-3.3878,-3.3878,-3.3869,-3.377,-3.3293,-3.2773,-3.2274,-3.1669,-3.1009,-3.0331,-3.0216,-3.0216,-3.0216,-3.0216,-3.0216,-3.0216,-3.0216,-3.0055,-2.9573,-2.9351,-2.9086,-2.8531,-2.8504,-2.8529,-2.8375,-2.8431,-2.851,-2.851,-2.851,-2.851,-2.851,-2.851,-2.851,-2.851,-2.851,-2.851,-2.851,-2.851,-2.851,-2.851,-2.8922,-2.9211,-2.9433,-3.0456,-3.1452,-2.0382,-2.0292,-2.0292,-2.0292,-2.0292,-2.0377,-2.0686,-2.0514,0.0,0.0,-2.1353,-2.1533,-2.1927,0.0,-2.2594,0.0,0.0,0.0,0.0,0.0,0.0,0.0,0.0,0.0,0.0,0.0,0.0,0.0,0.0,0.0,-2.6602,-2.691,-2.7375,-2.796,-2.802,-2.8319,-2.8984,-2.8984,-2.8984,-2.8984,-2.8984,-2.8984,-2.8984,-2.8984,-2.8984,-2.8966,-2.8654,0.0,0.0,-2.8995,-2.9134,-2.9114,-3.1154,-3.1953,-3.2055,-3.2695,-3.3069,-3.3231,-3.2757,-3.2908,-3.3281,-3.3019,-3.3119,-3.3281,-3.3281,-3.3431,-3.363,-3.363,-3.363,-3.3679,-3.3878,-3.3317,-3.2653,-3.2677,-3.1805,-3.087,-3.0331,-3.0216,-3.0216,-3.0216,-3.0216,-3.0216,-3.0216,-3.0216,-3.0089,-2.9711,-2.9683,-2.9454,-2.8645,-2.8715,-2.8762,-2.8531,-2.851,-2.851,-2.851,-2.851,-2.851,-2.851,-2.851,-2.851,-2.851,-2.851,-2.851,-2.851,-2.851,-2.851,-2.851,-2.9367,-2.9884,-3.0101,-3.1267,-3.2218,-2.0382,-2.0292,-2.0292,-2.0292,-2.0292,-2.03,-2.0335,0.0,0.0,-2.084,-2.1182,-2.1533,-2.1927,-2.2345,-2.2594,0.0,0.0,-2.2611,0.0,0.0,0.0,0.0,0.0,0.0,0.0,0.0,0.0,0.0,0.0,0.0,0.0,-2.7056,-2.7375,-2.796,-2.802,-2.8319,-2.8984,-2.8984,-2.8984,-2.8984,-2.8984,-2.8984,-2.8984,-2.8984,-2.8984,-2.8984,0.0,0.0,0.0,-3.0449,-3.1051,-3.1421,-3.2645,-3.3119,-3.3019,-3.2106,-3.242,-3.3019,-3.0918,-3.1545,-3.3119,-3.2106,-3.2482,-3.3281,-3.3281,-3.3331,-3.3331,-3.3331,-3.3331,-3.3331,-3.3381,-3.3296,-3.2971,-3.2101,-3.1457,-3.087,-3.0331,-3.0216,-3.0216,-3.0216,-3.0216,-3.0216,-3.0216,-3.0216,-3.0204,-3.0158,-2.978,-2.9473,-2.9316,-2.8885,-2.8586,-2.8531,-2.851,-2.851,-2.851,-2.851,-2.851,-2.851,-2.851,-2.851,-2.851,-2.851,-2.851,-2.851,-2.851,-2.851,-2.851,-2.9471,-3.0075,-3.0317,-3.1988,-3.2932,-2.0781,-2.0645,-2.0518,-2.0518,-2.0428,-2.0292,-2.0292,0.0,-2.0463,-2.1071,-2.1311,-2.1593,-2.2259,-2.25,-2.2594,-2.2594,0.0,0.0,0.0,0.0,0.0,0.0,0.0,0.0,0.0,0.0,0.0,0.0,0.0,0.0,0.0,-2.7073,-2.7375,-2.796,-2.802,-2.8319,-2.8984,-2.8984,-2.8984,-2.8984,-2.8984,-2.8984,-2.8984,-2.8984,-2.8984,-2.8975,0.0,0.0,0.0,-3.0097,-3.0693,-3.0701,-3.1852,-3.2269,-3.2167,-3.1011,-3.133,-3.2066,-3.0442,-3.1392,-3.3119,-3.1953,-3.2381,-3.3281,-3.3281,-3.3281,-3.3281,-3.3281,-3.3281,-3.3281,-3.3281,-3.3281,-3.3097,-3.2374,-3.1823,-3.1329,-3.0813,-3.0445,-3.0216,-3.0216,-3.0216,-3.0216,-3.0216,-3.0216,-3.0216,-3.0216,-3.019,-3.0057,-2.9689,-2.9421,-2.9142,-2.8824,-2.8611,-2.851,-2.851,-2.851,-2.851,-2.851,-2.851,-2.851,-2.851,-2.851,-2.851,-2.851,-2.851,-2.851,-2.851,-2.9884,-3.0707,-3.1068,-3.2747,-3.3667,-2.1087,-2.0871,-2.0699,-2.0699,-2.0518,-2.0292,0.0,0.0,-2.0506,-2.1251,-2.1413,-2.1645,-2.2457,-2.2594,-2.2594,-2.2594,0.0,-2.2594,0.0,0.0,0.0,0.0,0.0,0.0,0.0,0.0,0.0,0.0,0.0,0.0,0.0,-2.7073,-2.7375,-2.796,-2.802,-2.8319,-2.8984,-2.8984,-2.8984,-2.8984,-2.8984,-2.8984,-2.8975,-2.8865,-2.881,-2.8783,0.0,0.0,0.0,-2.9486,-2.9954,-2.9974,-3.0805,-3.1114,-3.1011,-3.0182,-3.065,-3.1421,-3.0287,-3.1392,-3.3119,-3.1953,-3.2381,-3.3281,-3.3281,-3.3281,-3.3281,-3.3281,-3.3281,-3.3281,-3.3281,-3.3281,-3.3143,-3.2615,-3.2121,-3.1628,-3.1123,-3.0595,-3.0216,-3.0216,-3.0216,-3.0216,-3.0216,-3.0216,-3.0216,-3.0216,-3.0442,-3.0436,-2.998,-2.9769,-2.9546,-2.9135,-2.8742,-2.851,-2.851,-2.851,-2.851,-2.851,-2.851,-2.851,-2.851,-2.851,-2.851,-2.851,-2.851,-2.851,-2.851,-3.019,-3.118,-3.1536,-3.3185,-3.4122,-2.1087,-2.0871,-2.0699,-2.0699,-2.0518,-2.0292,0.0,0.0,-2.0506,-2.1251,-2.1413,-2.1645,-2.2457,-2.2594,-2.2594,-2.2594,-2.2594,0.0,0.0,0.0,0.0,0.0,0.0,0.0,0.0,0.0,0.0,0.0,0.0,0.0,0.0,-2.7073,-2.7375,-2.796,-2.802,-2.8319,-2.8984,-2.8984,-2.8984,-2.8984,-2.8984,-2.8984,-2.8975,-2.8581,-2.8397,0.0,0.0,0.0,0.0,-2.8787,-2.9269,-2.9922,-2.9922,-2.9922,-2.9922,-2.9922,-3.065,-3.1421,-3.0287,-3.1392,-3.3119,-3.1953,-3.2381,-3.3281,-3.3281,-3.3281,-3.3281,-3.3281,-3.3281,-3.3281,-3.3281,-3.3281,-3.3143,-3.2615,-3.2121,-3.1628,-3.1123,-3.0595,-3.0216,-3.0216,-3.0216,-3.0216,-3.0216,-3.0216,-3.0216,-3.0216,-3.0442,-3.0493,-3.0235,-2.991,-2.9588,-2.9323,-2.8823,-2.851,-2.851,-2.851,-2.851,-2.851,-2.851,-2.851,-2.851,-2.851,-2.851,-2.851,-2.851,-2.851,-2.851,-3.0329,-3.1278,-3.1536,-3.3276,-3.4196,-2.1293,-2.097,-2.0699,-2.0699,-2.0518,-2.0292,-2.0292,0.0,-2.0506,-2.1251,-2.1413,-2.1645,-2.2457,-2.2594,-2.2594,-2.2594,-2.2594,0.0,0.0,0.0,0.0,0.0,0.0,0.0,0.0,0.0,0.0,0.0,0.0,0.0,0.0,0.0,-2.7246,-2.7642,-2.7891,-2.8208,-2.8636,-2.8865,-2.8847,-2.8581,-2.8581,-2.8434,-2.8208,-2.8022,0.0,0.0,0.0,0.0,0.0,-2.8195,-2.851,-2.8807,-2.9608,-2.9922,-2.9922,-2.9922,-3.065,-3.1421,-3.0287,-3.1392,-3.3119,-3.1953,-3.2381,-3.3281,-3.3281,-3.3281,-3.3281,-3.3281,-3.3281,-3.3281,-3.3281,-3.3281,-3.3247,-3.3074,-3.2434,-3.1767,-3.1559,-3.0836,-3.0216,-3.0216,-3.0216,-3.0216,-3.0216,-3.0216,-3.0216,-3.0216,-3.0442,-3.0666,-3.0704,-3.0123,-2.9731,-2.9857,-2.9039,-2.851,-2.851,-2.851,-2.851,-2.851,-2.851,-2.851,-2.851,-2.851,-2.851,-2.851,-2.9028,-2.9328,-2.9328,-3.0994,-3.2268,-3.3164,-3.3942,-3.4346,0.0,-2.1069,-2.0699,-2.0699,-2.0518,0.0,0.0,-2.0292,-2.0463,-2.1079,-2.1319,-2.1602,-2.2276,-2.25,-2.2594,-2.2594,-2.2594,0.0,0.0,0.0,0.0,0.0,0.0,0.0,0.0,0.0,0.0,0.0,0.0,0.0,0.0,0.0,-2.6755,-2.7094,-2.7681,-2.8137,-2.8478,-2.8646,-2.8553,-2.8159,-2.8159,-2.8012,-2.7813,-2.7666,0.0,0.0,0.0,0.0,0.0,-2.7408,-2.7618,-2.7663,-2.8359,-2.8668,-2.8784,-2.9608,-3.0338,-3.0959,-3.1124,-3.2128,-3.3181,-3.2482,-3.2695,-3.3281,-3.3281,-3.3281,-3.3281,-3.3281,-3.3281,-3.3281,-3.3281,-3.3281,-3.3281,-3.3281,-3.2549,-3.1813,-3.1813,-3.095,-3.0216,-3.0216,-3.0216,-3.0216,-3.0216,-3.0216,-3.0216,-3.0216,-3.0442,-3.0724,-3.0984,-3.0406,-3.0048,-3.011,-2.9316,-2.8727,-2.8522,-2.851,-2.851,-2.851,-2.851,-2.851,-2.851,-2.851,-2.8657,-2.8961,-2.9433,-2.9845,-3.0152,-3.1613,-3.2868,-3.3896,-3.4244,-3.4414,0.0,-2.1069,-2.0699,0.0,0.0,0.0,0.0,-2.0292,0.0,-2.0797,-2.1139,-2.149,-2.1884,-2.2311,-2.256,-2.256,-2.2577,0.0,0.0,0.0,0.0,0.0,0.0,0.0,0.0,0.0,0.0,0.0,0.0,0.0,0.0,0.0,-2.6099,-2.6437,-2.7432,-2.8059,-2.8303,-2.8352,-2.8141,-2.7776,-2.7776,-2.7767,-2.7721,-2.7353,0.0,0.0,0.0,0.0,0.0,-2.6591,-2.6591,-2.6591,-2.6691,-2.6691,-2.6954,-2.9092,-2.9922,-3.0182,-3.2443,-3.3181,-3.317,-3.3281,-3.3281,-3.3281,-3.3281,-3.3281,-3.3281,-3.3281,-3.3281,-3.3281,-3.3281,-3.3281,-3.3281,-3.3281,-3.2549,-3.1813,-3.1813,-3.095,-3.0216,-3.0216,-3.0216,-3.0216,-3.0216,-3.0216,-3.0216,-3.0216,-3.0442,-3.0724,-3.0972,-3.0734,-3.0417,-3.0146,-2.9617,-2.9088,-2.8558,-2.851,-2.851,-2.851,-2.851,-2.851,-2.851,-2.851,-2.8882,-2.9704,-2.9819,-3.0266,-3.1082,-3.2209,-3.3178,-3.3896,-3.4244,-3.4414,-2.1392,0.0,-2.0699,-2.0699,-2.0518,-2.0292,0.0,-2.0292,-2.0403,-2.0797,-2.0942,-2.1114,-2.1482,-2.1867,-2.2124,-2.2124,0.0,0.0,0.0,0.0,0.0,0.0,0.0,0.0,0.0,0.0,0.0,0.0,0.0,0.0,0.0,0.0,-2.6504,-2.7088,-2.7324,-2.7503,-2.7576,-2.7806,-2.7767,-2.7315,-2.7315,-2.716,-2.6866,-2.6765,0.0,0.0,0.0,0.0,-2.6591,-2.6591,-2.6591,-2.6691,-2.7511,-2.7814,-2.7975,-2.9398,-2.9922,-3.0078,-3.1534,-3.2004,-3.2156,-3.3019,-3.3281,-3.3281,-3.3281,-3.3281,-3.3281,-3.3281,-3.3281,-3.3281,-3.3281,-3.3281,-3.3281,-3.3281,-3.2489,-3.1743,-3.1813,-3.095,-3.0216,-3.0216,-3.0216,-3.0216,-3.0216,-3.0216,-3.0261,-3.0487,-3.0578,-3.0758,-3.1184,-3.081,-3.0417,-3.0146,-2.9617,-2.9088,-2.8558,-2.851,-2.851,-2.851,-2.851,-2.851,-2.851,-2.851,-2.8882,-2.9704,-3.0932,-3.1942,-3.2753,-3.3333,-3.3709,-3.3896,-3.4244,-3.4414,-2.1526,-2.1203,-2.0826,-2.0736,-2.0609,-2.0473,-2.0337,-2.0292,-2.0352,-2.0566,-2.0754,-2.0942,-2.1131,-2.1473,0.0,0.0,0.0,0.0,0.0,0.0,0.0,0.0,0.0,0.0,0.0,0.0,0.0,0.0,0.0,0.0,0.0,0.0,-2.6261,-2.672,-2.6776,-2.6922,-2.7273,-2.7442,-2.7297,-2.6912,-2.6912,-2.6793,-2.6591,-2.6591,0.0,0.0,0.0,0.0,-2.6591,-2.6591,-2.6591,-2.6691,-2.7761,-2.8223,-2.8382,-3.0068,-3.0701,-3.0856,-3.1953,-3.237,-3.2482,-3.3119,-3.3281,-3.3281,-3.3281,-3.3281,-3.3281,-3.3281,-3.3281,-3.3281,-3.3281,-3.3281,-3.3281,-3.3281,-3.2489,-3.1754,-3.1813,-3.095,-3.0216,-3.0216,-3.0216,-3.0216,-3.0216,-3.0216,-3.0261,-3.0397,-3.0532,-3.0758,-3.1095,-3.098,-3.0679,-3.017,-2.9833,-2.9352,-2.857,-2.851,-2.851,-2.851,-2.851,-2.851,-2.851,-2.8843,-2.9588,-3.0782,-3.2015,-3.2846,-3.329,-3.3709,-3.3896,-3.3896,-3.4244,-3.4414,-2.1696,-2.141,-2.1051,-2.088,-2.0789,-2.069,-2.0428,-2.0382,-2.0337,0.0,0.0,0.0,0.0,-2.1178,0.0,0.0,0.0,0.0,0.0,0.0,0.0,0.0,0.0,0.0,0.0,0.0,0.0,0.0,0.0,0.0,0.0,0.0,0.0,-2.6181,-2.6181,-2.6454,-2.7086,-2.7086,-2.6921,-2.6591,-2.6591,-2.6591,-2.6591,-2.6591,-2.6591,0.0,0.0,0.0,-2.6591,-2.6591,-2.6591,-2.6691,-2.7609,-2.7975,-2.8223,-3.0244,-3.1049,-3.1268,-3.2583,-3.3119,-3.3281,-3.3281,-3.3281,-3.3281,-3.3281,-3.3281,-3.3281,-3.3281,-3.3281,-3.3281,-3.3281,-3.3281,-3.3281,-3.3281,-3.25,-3.1813,-3.1813,-3.095,-3.0216,-3.0216,-3.0216,-3.0216,-3.0216,-3.0216,-3.0216,-3.0306,-3.0544,-3.0769,-3.1062,-3.1273,-3.1045,-3.0194,-3.0086,-2.9665,-2.8595,-2.851,-2.851,-2.851,-2.851,-2.855,-2.8657,-2.9445,-3.0594,-3.2074,-3.2895,-3.329,-3.329,-3.3709,-3.3896,-3.3896,-3.4244,-3.4414,-2.1696,-2.1642,-2.1553,-2.1347,-2.1105,-2.0916,-2.0699,-2.0654,-2.0564,0.0,0.0,0.0,0.0,-2.1083,0.0,0.0,0.0,0.0,0.0,0.0,0.0,0.0,0.0,0.0,0.0,0.0,0.0,0.0,0.0,0.0,0.0,0.0,0.0,-2.6527,-2.6527,-2.6564,-2.6683,-2.6683,-2.6646,-2.6591,-2.6591,-2.6591,-2.6591,-2.6591,-2.6591,0.0,0.0,-2.6591,-2.6591,-2.6591,-2.6591,-2.6646,-2.68,-2.6845,-2.6961,-2.7789,-2.8393,-2.9009,-3.1114,-3.2482,-3.3281,-3.3281,-3.3281,-3.3281,-3.3281,-3.3281,-3.3281,-3.3281,-3.3281,-3.3281,-3.3281,-3.3281,-3.3281,-3.3281,-3.2489,-3.1743,-3.1813,-3.095,-3.0216,-3.0216,-3.0216,-3.0216,-3.0216,-3.0216,-3.0352,-3.0793,-3.0927,-3.1107,-3.154,-3.1629,-3.1252,-3.0206,-3.0086,-2.9665,-2.8595,-2.851,-2.851,-2.851,-2.851,-2.8816,-2.9471,-3.0291,-3.1156,-3.2074,-3.2895,-3.329,-3.329,-3.3709,-3.3896,-3.3896,-3.4244,-3.4414,-2.1696,-2.1696,-2.1696,-2.1616,-2.1383,-2.115,-2.0916,-2.0871,-2.0781,0.0,0.0,0.0,0.0,0.0,0.0,0.0,0.0,0.0,0.0,0.0,0.0,0.0,0.0,0.0,0.0,0.0,0.0,0.0,0.0,0.0,0.0,0.0,0.0,0.0,-2.6591,-2.6591,-2.6591,-2.6591,-2.6591,-2.6591,-2.6591,-2.6591,-2.6591,-2.6591,-2.6591,-2.6582,0.0,-2.6306,-2.6278,-2.6623,-2.6564,-2.6458,-2.8216,-2.867,-2.8542,-3.0056,-3.0788,-3.1114,-3.2167,-3.2857,-3.3281,-3.3281,-3.3281,-3.3281,-3.3281,-3.3281,-3.3281,-3.3281,-3.3281,-3.3281,-3.3281,-3.3281,-3.3212,-3.2925,-3.2282,-3.1674,-3.1421,-3.0755,-3.0216,-3.0216,-3.0216,-3.0216,-3.0216,-3.0216,-3.0261,-3.0544,-3.0793,-3.1062,-3.1285,-3.1528,-3.1308,-3.0194,-3.0086,-2.9665,-2.8595,-2.851,-2.851,-2.851,-2.851,-2.9067,-3.0291,-3.0707,-3.1489,-3.2739,-3.3122,-3.3361,-3.3466,-3.3744,-3.3951,-3.4005,-3.4278,-3.4414,-2.1696,-2.1696,-2.1696,-2.1696,-2.1562,-2.1383,-2.1141,-2.1096,-2.1051,-2.0826,0.0,0.0,0.0,0.0,0.0,0.0,0.0,0.0,0.0,0.0,0.0,0.0,0.0,0.0,0.0,0.0,0.0,0.0,0.0,0.0,0.0,0.0,0.0,0.0,-2.6591,-2.6591,-2.6591,-2.6591,-2.6591,-2.6591,-2.6591,-2.6591,-2.6591,-2.6591,-2.6591,-2.6573,-2.6243,-2.6159,-2.6185,-2.6632,-2.6541,-2.6417,-2.9137,-3.0166,-3.0346,-3.2235,-3.2989,-3.312,-3.3247,-3.3281,-3.3281,-3.3281,-3.3281,-3.3281,-3.3281,-3.3281,-3.3281,-3.3281,-3.3201,-3.312,-3.3258,-3.3189,-3.2994,-3.2581,-3.203,-3.149,-3.11,-3.0595,-3.0216,-3.0216,-3.0216,-3.0216,-3.0216,-3.0216,-3.0261,-3.0363,-3.0736,-3.1029,-3.1151,-3.1496,-3.1308,-3.0194,-3.0086,-2.9665,-2.8595,-2.851,-2.851,-2.851,-2.8657,-2.951,-3.1106,-3.118,-3.1833,-3.3276,-3.329,-3.3396,-3.3536,-3.3793,-3.3951,-3.4059,-3.4278,-3.4414,-2.1696,-2.1696,-2.1696,-2.1696,-2.1696,-2.1607,-2.1437,-2.1347,-2.1293,-2.1042,0.0,0.0,0.0,0.0,0.0,0.0,0.0,0.0,0.0,0.0,0.0,0.0,0.0,0.0,0.0,0.0,0.0,0.0,0.0,0.0,0.0,0.0,0.0,0.0,0.0,-2.6591,-2.6591,-2.6591,-2.6591,-2.6591,-2.6591,-2.6591,-2.6591,-2.6591,-2.6591,-2.6591,-2.6554,-2.6545,-2.6545,-2.6617,-2.6626,-2.6699,-2.7927,-2.9352,-3.0813,-3.1473,-3.2068,-3.2615,-3.3109,-3.3281,-3.3281,-3.3281,-3.3281,-3.3281,-3.3281,-3.3281,-3.3281,-3.3281,-3.2925,-3.2661,-3.3155,-3.2914,-3.2535,-3.2489,-3.1754,-3.1065,-3.1019,-3.0595,-3.0216,-3.0216,-3.0216,-3.0216,-3.0216,-3.0216,-3.0363,-3.0883,-3.0984,-3.1151,-3.1572,-3.1661,-3.1308,-3.0194,-3.0086,-2.9665,-2.8595,-2.851,-2.851,-2.851,-2.9184,-3.0342,-3.1928,-3.2001,-3.2426,-3.3276,-3.329,-3.3326,-3.3326,-3.3709,-3.3882,-3.3931,-3.4244,-3.4414,-2.1696,-2.1696,-2.1696,-2.1696,-2.1696,-2.1696,-2.1607,-2.1616,-2.1517,-2.1293,-2.1248,0.0,0.0,0.0,0.0,0.0,0.0,0.0,0.0,0.0,0.0,0.0,0.0,0.0,0.0,0.0,0.0,0.0,0.0,0.0,0.0,0.0,0.0,0.0,0.0,-2.6591,-2.6591,-2.6591,-2.6591,-2.6591,-2.6591,-2.6591,-2.6591,-2.6591,-2.6591,-2.6573,-2.637,-2.6251,-2.6286,-2.6635,-2.6586,-2.6376,-2.7655,-2.9485,-3.1323,-3.1509,-3.2197,-3.3005,-3.3212,-3.3281,-3.3281,-3.3281,-3.3281,-3.3281,-3.3281,-3.3051,-3.2787,-3.2787,-3.2469,-3.2204,-3.2661,-3.242,-3.1961,-3.1651,-3.1283,-3.0928,-3.0583,-3.0354,-3.0216,-3.0216,-3.0216,-3.0216,-3.0216,-3.0352,-3.0532,-3.0724,-3.1005,-3.1273,-3.1439,-3.1617,-3.1308,-3.0194,-2.9496,-2.8943,-2.8546,-2.851,-2.8922,-2.9922,-2.9819,-3.019,-3.1304,-3.1819,-3.2461,-3.3276,-3.329,-3.3361,-3.3501,-3.364,-3.3793,-3.3896,-3.4108,-3.4196,-2.1696,-2.1696,-2.1696,-2.1696,0.0,0.0,-2.1696,-2.1696,-2.1651,-2.1526,-2.1636,-2.1786,-2.1993,0.0,0.0,0.0,0.0,0.0,0.0,0.0,0.0,0.0,0.0,0.0,0.0,0.0,0.0,0.0,0.0,0.0,0.0,0.0,0.0,0.0,0.0,0.0,-2.6591,-2.6591,-2.6591,-2.6591,-2.6591,-2.6591,-2.6591,-2.6591,-2.6591,-2.6573,-2.6289,-2.6214,-2.624,-2.6621,-2.6764,-2.6793,-2.7796,-2.9377,-3.1062,-3.1062,-3.1801,-3.2745,-3.2745,-3.3019,-3.3258,-3.3086,-3.3028,-3.3005,-3.2845,-3.2546,-3.2259,-3.2259,-3.1903,-3.1605,-3.1938,-3.1777,-3.1444,-3.11,-3.0882,-3.0663,-3.0296,-3.0216,-3.0216,-3.0216,-3.0261,-3.0306,-3.0306,-3.0544,-3.0769,-3.0802,-3.1071,-3.135,-3.1439,-3.1572,-3.1308,-3.0194,-2.9136,-2.851,-2.851,-2.851,-2.8961,-3.0075,-3.0114,-3.0557,-3.1613,-3.2209,-3.2739,-3.329,-3.329,-3.3361,-3.3501,-3.357,-3.3675,-3.3827,-3.4005,-3.4094,-2.1696,-2.1696,-2.1696,-2.1696,0.0,0.0,-2.1696,-2.1696,-2.1696,-2.1696,-2.2106,-2.2479,-2.2479,0.0,0.0,0.0,0.0,0.0,0.0,0.0,0.0,0.0,0.0,0.0,0.0,0.0,0.0,0.0,0.0,0.0,0.0,0.0,0.0,0.0,0.0,0.0,-2.6582,-2.6582,-2.6582,-2.6582,-2.6582,-2.6582,-2.6591,-2.6582,-2.6582,-2.6582,-2.6582,-2.6582,-2.6582,-2.6582,-2.7187,-2.816,-2.816,-2.885,-2.9859,-2.9859,-3.0628,-3.1564,-3.1615,-3.2359,-3.3178,-3.265,-3.2477,-3.2397,-3.1963,-3.1813,-3.1802,-3.1802,-3.1398,-3.1008,-3.1008,-3.1008,-3.1008,-3.1008,-3.0606,-3.0216,-3.0216,-3.0216,-3.0216,-3.0216,-3.0442,-3.0623,-3.0623,-3.0826,-3.1062,-3.1261,-3.1306,-3.1395,-3.1673,-3.1705,-3.1296,-3.0194,-2.9136,-2.851,-2.851,-2.851,-2.851,-2.851,-2.9999,-3.1613,-3.3206,-3.329,-3.329,-3.329,-3.329,-3.329,-3.329,-3.3501,-3.3605,-3.3605,-3.3922,-3.4094,-2.1696,-2.1696,0.0,-2.1696,0.0,0.0,0.0,-2.1696,0.0,0.0,-2.229,-2.2715,-2.2526,0.0,0.0,0.0,0.0,0.0,0.0,0.0,0.0,0.0,0.0,0.0,0.0,0.0,0.0,0.0,0.0,0.0,0.0,0.0,0.0,0.0,0.0,0.0,-2.5782,-2.5782,-2.5782,-2.5782,-2.5782,-2.6032,-2.6582,-2.6333,-2.6205,-2.6186,-2.5858,-2.5782,-2.5782,-2.5782,-2.5931,-2.6227,-2.6227,-2.6877,-2.7931,-2.8706,-2.9674,-3.074,-3.1499,-3.196,-3.2239,-3.2078,-3.2032,-3.1997,-3.1859,-3.1525,-3.1237,-3.1237,-3.0859,-3.0457,-3.0457,-3.0457,-3.0457,-3.0457,-3.0331,-3.0216,-3.0216,-3.0216,-3.0216,-3.0216,-3.0442,-3.0623,-3.0623,-3.0949,-3.1229,-3.1306,-3.1439,-3.1617,-3.1705,-3.1055,-3.0434,-3.0122,-2.9136,-2.851,-2.851,-2.851,-2.8736,-2.9289,-2.9781,-3.0519,-3.1576,-3.2717,-3.329,-3.329,-3.329,-3.329,-3.329,-3.3361,-3.3396,-3.3396,-3.3779,-3.3951,-2.1696,-2.1696,0.0,-2.1696,-2.1696,-2.1696,-2.1696,0.0,0.0,0.0,0.0,0.0,0.0,0.0,0.0,0.0,0.0,0.0,0.0,0.0,0.0,0.0,0.0,0.0,0.0,0.0,0.0,0.0,0.0,0.0,0.0,0.0,0.0,0.0,0.0,0.0,-2.5424,-2.5424,-2.5424,-2.5424,-2.5424,-2.5628,-2.6096,-2.5892,-2.5773,-2.5764,-2.5525,-2.5424,-2.5424,-2.5424,-2.5613,-2.6017,-2.6017,-2.6657,-2.7643,-2.8256,-2.9211,-3.0252,-3.0905,-3.1408,-3.1779,-3.1536,-3.1467,-3.1433,-3.1215,-3.0939,-3.0698,-3.0698,-3.0468,-3.0216,-3.0216,-3.0216,-3.0216,-3.0216,-3.0216,-3.0216,-3.0216,-3.0216,-3.0216,-3.0352,-3.0589,-3.0769,-3.0847,-3.1217,-3.1439,-3.1439,-3.1617,-3.1705,-3.1705,-3.0735,-3.0086,-3.0086,-2.9136,-2.851,-2.851,-2.851,-2.8697,-2.9184,-2.951,-2.9922,-3.0405,-3.1649,-3.2331,-3.2331,-3.2331,-3.2511,-3.281,-3.281,-3.3051,-3.3431,-3.3744,-3.3931,-2.1696,-2.1696,0.0,-2.1696,-2.1696,0.0,-2.1696,-2.1696,-2.1696,-2.1696,0.0,0.0,0.0,0.0,0.0,0.0,0.0,0.0,0.0,0.0,0.0,0.0,0.0,0.0,0.0,0.0,0.0,0.0,0.0,0.0,0.0,0.0,0.0,0.0,0.0,0.0,-2.5313,-2.5313,-2.5313,0.0,-2.5313,-2.5313,-2.5313,-2.535,-2.535,-2.5313,-2.5313,-2.5313,-2.5313,-2.5313,-2.5853,-2.6633,-2.6633,-2.7281,-2.8183,-2.8282,-2.9024,-3.0013,-3.0061,-3.0807,-3.1547,-3.1088,-3.0939,-3.0847,-3.0365,-3.0216,-3.0216,-3.0216,-3.0216,-3.0216,-3.0216,-3.0216,-3.0216,-3.0216,-3.0216,-3.0216,-3.0216,-3.0216,-3.0306,-3.0532,-3.0826,-3.1107,-3.1261,-3.1528,-3.1705,-3.1705,-3.1705,-3.1705,-3.1705,-3.0735,-3.0086,-3.0086,-2.9136,-2.851,-2.851,-2.851,-2.851,-2.851,-2.9184,-2.9588,-2.9588,-3.0443,-3.0895,-3.0895,-3.0895,-3.1267,-3.2001,-3.2074,-3.2618,-3.3486,-3.3779,-3.3971,-2.1696,-2.1696,0.0,0.0,-2.1696,-2.1696,-2.1696,-2.1696,-2.1696,-2.1696,0.0,0.0,0.0,0.0,0.0,0.0,0.0,0.0,0.0,0.0,0.0,0.0,0.0,0.0,0.0,0.0,0.0,0.0,0.0,0.0,0.0,0.0,0.0,0.0,0.0,-2.4459,-2.4459,-2.4459,-2.4459,0.0,-2.4459,-2.4459,-2.4477,-2.4808,-2.478,-2.4459,-2.4459,-2.4459,-2.4459,-2.4459,-2.4609,-2.4799,-2.4799,-2.5385,-2.6397,-2.7153,-2.8111,-2.9124,-2.9916,-3.0354,-3.0537,-3.0422,-3.0388,-3.0365,-3.025,-3.0216,-3.0216,-3.0216,-3.0216,-3.0216,-3.0216,-3.0216,-3.0216,-3.0216,-3.0216,-3.0216,-3.0216,-3.0352,-3.0532,-3.0578,-3.0937,-3.1261,-3.1306,-3.1528,-3.1705,-3.1705,-3.1705,-3.1705,-3.1705,-3.0735,-3.0086,-3.0086,-2.9136,-2.851,-2.851,-2.851,-2.851,-2.851,-2.8657,-2.8776,-2.8776,-3.0152,-3.0895,-3.0895,-3.0895,-3.1007,-3.1156,-3.1965,-3.2448,-3.2676,-3.3632,-3.4059,-2.1696,0.0,0.0,-2.1696,0.0,-2.1696,-2.1696,-2.1696,0.0,0.0,0.0,0.0,0.0,0.0,0.0,0.0,0.0,0.0,0.0,0.0,0.0,0.0,0.0,0.0,0.0,0.0,0.0,0.0,0.0,0.0,0.0,0.0,0.0,0.0,-2.4202,-2.4202,-2.4202,-2.4202,-2.4202,-2.4202,-2.4202,-2.4202,-2.4211,-2.4431,-2.4413,-2.4202,-2.4202,-2.4202,-2.4202,-2.4202,-2.4489,-2.4971,-2.5441,-2.6254,-2.7258,-2.8283,-2.8991,-2.9463,-3.0034,-3.0216,-3.0216,-3.0216,-3.0216,-3.0216,-3.0216,-3.0216,-3.0216,-3.0216,-3.0216,-3.0216,-3.0216,-3.0216,-3.0216,-3.0352,-3.0306,-3.0261,-3.0352,-3.0487,-3.0668,-3.0892,-3.1116,-3.135,-3.1484,-3.1617,-3.1705,-3.1705,-3.1705,-3.1621,-3.1356,-3.0579,-2.9989,-2.9737,-2.8991,-2.851,-2.851,-2.851,-2.851,-2.851,-2.851,-2.851,-2.851,-2.9289,-2.9742,-2.9742,-2.9742,-2.9922,-3.0342,-3.0857,-3.1586,-3.2569,-3.315,-3.3736,-2.1696,0.0,-2.1696,-2.1696,-2.1696,0.0,-2.1696,-2.1696,0.0,0.0,0.0,0.0,0.0,0.0,0.0,0.0,0.0,0.0,0.0,0.0,0.0,0.0,0.0,0.0,0.0,0.0,0.0,0.0,0.0,0.0,0.0,0.0,-2.439,-2.4202,-2.4202,-2.4202,-2.4202,-2.4202,-2.4202,-2.4202,-2.4202,-2.4202,-2.4202,-2.4202,-2.4202,-2.4202,-2.4202,-2.4202,-2.4202,-2.4202,-2.4775,-2.5781,-2.6628,-2.7673,-2.8817,-2.9612,-3.0034,-3.0216,-3.0216,-3.0216,-3.0216,-3.0216,-3.0216,-3.0216,-3.0216,-3.0216,-3.0216,-3.0216,-3.0216,-3.0216,-3.0216,-3.0216,-3.0306,-3.0532,-3.0487,-3.0408,-3.0623,-3.0713,-3.0847,-3.1205,-3.135,-3.1439,-3.1661,-3.1705,-3.1705,-3.1705,-3.1705,-3.1524,-3.0995,-3.041,-2.9881,-2.9352,-2.8823,-2.851,-2.851,-2.851,-2.851,-2.851,-2.851,-2.851,-2.851,-2.851,-2.851,-2.851,-2.851,-2.8843,-2.9471,-2.9665,-3.0632,-3.2295,-3.2475,-3.308,0.0,0.0,-2.1696,0.0,-2.1696,-2.1696,0.0,0.0,0.0,0.0,0.0,0.0,0.0,0.0,0.0,0.0,0.0,0.0,0.0,0.0,0.0,0.0,0.0,0.0,0.0,0.0,0.0,0.0,0.0,0.0,0.0,-2.502,-2.5118,-2.4251,-2.4202,-2.4202,-2.4202,-2.4202,-2.4202,-2.4202,-2.4202,-2.4202,-2.4202,-2.4202,-2.4202,-2.4202,-2.4202,-2.4202,-2.4202,-2.4202,-2.4775,-2.5693,-2.5829,-2.7067,-2.8724,-2.8863,-2.9474,-3.0216,-3.0216,-3.0216,-3.0216,-3.0216,-3.0216,-3.0216,-3.0216,-3.0216,-3.0216,-3.0216,-3.0216,-3.0216,-3.0216,-3.0352,-3.0578,-3.0578,-3.0724,-3.0883,-3.0927,-3.1095,-3.1217,-3.1306,-3.1484,-3.1661,-3.1705,-3.1705,-3.1705,-3.1705,-3.1705,-3.1524,-3.0995,-3.041,-2.9881,-2.9352,-2.8823,-2.851,-2.851,-2.851,-2.851,-2.851,-2.851,-2.851,-2.851,-2.851,-2.851,-2.851,-2.851,-2.855,-2.8657,-2.9549,-3.019,-3.0658,-3.1502,-3.2087,-2.1696,-2.1696,-2.1696,0.0,-2.1696,-2.1696,0.0,0.0,0.0,0.0,0.0,0.0,0.0,0.0,0.0,0.0,0.0,0.0,0.0,0.0,0.0,0.0,0.0,0.0,0.0,0.0,0.0,0.0,0.0,0.0,-2.3483,-2.3906,-2.4047,-2.3804,-2.3813,-2.3923,-2.4202,-2.4202,-2.4202,-2.4202,-2.4202,-2.4202,-2.4202,-2.4202,-2.4202,-2.4202,-2.4202,-2.4202,-2.4202,-2.4202,-2.444,-2.4971,-2.6109,-2.7105,-2.8002,-2.913,-2.984,-3.0216,-3.0216,-3.0216,-3.0216,-3.0216,-3.0216,-3.0216,-3.0216,-3.0216,-3.0216,-3.0216,-3.0216,-3.0216,-3.0397,-3.0532,-3.0668,-3.0937,-3.1083,-3.1229,-3.1362,-3.135,-3.135,-3.1484,-3.1617,-3.1705,-3.1705,-3.1705,-3.1705,-3.1705,-3.1452,-3.1079,-3.0506,-2.9965,-2.9448,-2.8919,-2.8655,-2.851,-2.851,-2.851,-2.851,-2.851,-2.851,-2.851,-2.851,-2.851,-2.851,-2.851,-2.851,-2.851,-2.851,-2.9067,-2.9665,-3.0317,-3.0871,-3.1502,0.0,0.0,-2.1696,-2.1696,-2.1696,0.0,0.0,0.0,0.0,0.0,0.0,0.0,0.0,0.0,0.0,0.0,0.0,0.0,0.0,0.0,0.0,0.0,0.0,0.0,0.0,0.0,0.0,0.0,0.0,0.0,-2.2904,-2.3177,-2.3316,-2.3334,-2.3343,-2.3538,-2.3849,-2.3849,-2.3849,-2.3849,-2.395,-2.3996,-2.4055,-2.4156,-2.4202,-2.4202,-2.4202,-2.4202,-2.4202,-2.4202,-2.435,-2.4775,-2.6522,-2.7379,-2.7804,-2.9555,-3.0216,-3.0216,-3.0216,-3.0216,-3.0216,-3.0216,-3.0216,-3.0216,-3.0216,-3.0216,-3.0216,-3.0216,-3.0216,-3.0261,-3.0532,-3.0668,-3.0814,-3.1217,-3.135,-3.1439,-3.1661,-3.1528,-3.1439,-3.1661,-3.1705,-3.1705,-3.1705,-3.1705,-3.1657,-3.1524,-3.1175,-3.0639,-2.9965,-2.9544,-2.9088,-2.857,-2.851,-2.851,-2.851,-2.851,-2.851,-2.851,-2.851,-2.851,-2.851,-2.851,-2.851,-2.851,-2.851,-2.851,-2.851,-2.8657,-2.9145,-2.9986,-3.0126,-3.0683,0.0,-2.1696,0.0,0.0,0.0,0.0,0.0,0.0,0.0,0.0,0.0,0.0,0.0,0.0,0.0,0.0,0.0,0.0,0.0,0.0,0.0,0.0,0.0,0.0,0.0,0.0,0.0,0.0,0.0,0.0,-2.2951,-2.3858,-2.3961,-2.294,-2.294,-2.295,-2.2968,-2.2968,-2.2968,-2.2968,-2.3343,-2.3526,-2.3535,-2.3978,-2.4202,-2.4202,-2.4202,-2.4202,-2.4202,-2.4202,-2.4775,-2.5742,-2.6809,-2.7767,-2.8771,-2.9795,-3.0216,-3.0216,-3.0216,-3.0216,-3.0216,-3.0216,-3.0216,-3.0216,-3.0216,-3.0216,-3.0216,-3.0216,-3.0216,-3.0261,-3.0532,-3.0781,-3.1017,-3.1261,-3.1484,-3.1661,-3.1705,-3.1705,-3.1661,-3.1705,-3.1705,-3.1705,-3.1705,-3.1705,-3.1536,-3.1043,-3.0934,-3.0506,-2.9472,-2.9316,-2.9088,-2.857,-2.851,-2.851,-2.851,-2.851,-2.851,-2.851,-2.851,-2.851,-2.851,-2.851,-2.851,-2.851,-2.851,-2.851,-2.851,-2.851,-2.8749,-2.917,-2.917,-2.9443,0.0,0.0,0.0,0.0,0.0,0.0,0.0,0.0,0.0,0.0,0.0,0.0,0.0,0.0,0.0,0.0,0.0,0.0,0.0,0.0,0.0,0.0,0.0,0.0,0.0,0.0,0.0,0.0,0.0,0.0,-2.2171,-2.248,-2.2637,-2.2501,-2.2501,-2.2638,-2.2904,-2.2904,-2.2904,-2.2904,-2.305,-2.3114,-2.3123,-2.327,-2.3382,-2.34,-2.3648,-2.3904,-2.4202,-2.4202,-2.439,-2.4833,-2.5829,-2.6446,-2.6972,-2.862,-2.9233,-2.9325,-2.9988,-3.0216,-3.0216,-3.0216,-3.0216,-3.0216,-3.0216,-3.0216,-3.0261,-3.0397,-3.0442,-3.0532,-3.0937,-3.1128,-3.1273,-3.1484,-3.1617,-3.1705,-3.1705,-3.1705,-3.1705,-3.1705,-3.1705,-3.1705,-3.1705,-3.1428,-3.1139,-3.0946,-3.0302,-2.9725,-2.9352,-2.9003,-2.8727,-2.8534,-2.851,-2.851,-2.851,-2.851,-2.851,-2.851,-2.851,-2.851,-2.851,-2.851,-2.851,-2.851,-2.851,-2.851,-2.851,-2.8618,-2.8776,-2.8922,-2.9157,-2.9392,-2.1696,0.0,0.0,0.0,0.0,0.0,0.0,0.0,0.0,0.0,0.0,0.0,0.0,0.0,0.0,0.0,0.0,0.0,0.0,0.0,0.0,0.0,0.0,0.0,0.0,0.0,0.0,0.0,0.0,0.0,-2.1696,-2.1696,-2.1806,-2.2071,-2.208,-2.2217,-2.2492,-2.2501,-2.2501,-2.2501,-2.2629,-2.2693,-2.2702,-2.2849,-2.2904,-2.2922,-2.3187,-2.3526,-2.396,-2.4146,-2.4399,-2.4784,-2.5829,-2.6398,-2.6924,-2.8574,-2.9187,-2.9279,-2.9977,-3.0216,-3.0216,-3.0216,-3.0216,-3.0216,-3.0216,-3.0261,-3.0352,-3.0532,-3.0668,-3.0814,-3.1217,-3.135,-3.1484,-3.1661,-3.1705,-3.1705,-3.1705,-3.1705,-3.1705,-3.1705,-3.1705,-3.1657,-3.1476,-3.1151,-3.0802,-3.0398,-2.9749,-2.9232,-2.9051,-2.8727,-2.851,-2.851,-2.851,-2.851,-2.851,-2.851,-2.851,-2.851,-2.851,-2.851,-2.851,-2.851,-2.851,-2.851,-2.851,-2.851,-2.851,-2.8618,-2.8724,-2.8791,-2.9157,-2.9392,0.0,0.0,0.0,0.0,0.0,0.0,0.0,0.0,0.0,0.0,0.0,0.0,0.0,0.0,0.0,0.0,0.0,0.0,0.0,0.0,0.0,0.0,0.0,0.0,0.0,0.0,0.0,0.0,0.0,-2.1696,-2.1696,-2.1696,-2.1696,-2.1696,-2.1696,-2.1696,-2.1696,-2.1696,-2.1696,-2.1696,-2.208,-2.2263,-2.2318,-2.2684,-2.2867,-2.2876,-2.2885,-2.3105,-2.3489,-2.395,-2.4747,-2.5703,-2.6693,-2.7699,-2.8702,-2.9738,-3.0125,-3.017,-3.017,-3.0216,-3.0216,-3.0216,-3.0216,-3.0216,-3.0216,-3.0397,-3.0623,-3.0623,-3.0826,-3.1062,-3.1261,-3.1484,-3.1705,-3.1705,-3.1705,-3.1705,-3.1681,-3.1681,-3.1681,-3.1681,-3.1681,-3.1524,-3.0995,-3.0874,-3.0482,-2.946,-2.928,-2.9088,-2.857,-2.851,-2.851,-2.851,-2.851,-2.851,-2.851,-2.851,-2.851,-2.851,-2.851,-2.851,-2.851,-2.851,-2.851,-2.851,-2.851,-2.851,-2.851,-2.851,-2.8618,-2.8803,-2.9013,-2.9339,-2.1696,0.0,0.0,0.0,0.0,0.0,0.0,0.0,0.0,0.0,0.0,0.0,0.0,0.0,0.0,0.0,0.0,0.0,0.0,0.0,0.0,0.0,0.0,0.0,0.0,0.0,0.0,0.0,-2.1696,-2.1696,-2.1696,-2.1696,-2.1696,-2.1696,-2.1696,-2.1696,-2.1696,-2.1696,-2.1696,-2.1696,-2.1806,-2.1851,-2.1861,-2.197,-2.2025,-2.2044,-2.2327,-2.2519,-2.2648,-2.3116,-2.3424,-2.3728,-2.4297,-2.5157,-2.6229,-2.7536,-2.847,-2.9233,-2.9943,-3.0216,-3.0216,-3.0216,-3.0216,-3.0261,-3.0442,-3.0532,-3.0668,-3.1026,-3.1172,-3.1273,-3.1528,-3.1661,-3.1705,-3.1705,-3.1705,-3.1609,-3.1223,-3.1139,-3.1139,-3.1139,-3.1139,-3.097,-3.0398,-2.9989,-2.9641,-2.934,-2.8979,-2.8679,-2.8522,-2.851,-2.851,-2.851,-2.851,-2.851,-2.851,-2.851,-2.851,-2.851,-2.851,-2.851,-2.851,-2.851,-2.851,-2.851,-2.851,-2.851,-2.851,-2.851,-2.855,-2.8578,-2.8934,-2.9248,-2.1696,-2.1696,0.0,0.0,0.0,0.0,0.0,-2.1696,0.0,0.0,0.0,0.0,0.0,0.0,0.0,0.0,0.0,0.0,0.0,0.0,0.0,0.0,0.0,0.0,0.0,0.0,0.0,0.0,-2.1696,-2.1696,-2.1696,-2.1696,-2.1696,-2.1696,-2.1696,-2.1696,-2.1696,-2.1696,-2.1696,-2.1696,-2.1696,-2.1696,-2.1696,-2.1696,-2.1696,-2.1705,-2.1934,-2.2034,-2.2053,-2.23,-2.2871,-2.3617,-2.3853,-2.4578,-2.5613,-2.685,-2.7656,-2.8338,-2.9522,-2.9917,-2.9952,-3.0147,-3.0261,-3.0397,-3.0532,-3.0758,-3.0937,-3.1205,-3.1395,-3.1484,-3.1661,-3.1536,-3.138,-3.138,-3.1211,-3.097,-3.0615,-3.0585,-3.0585,-3.0585,-3.0585,-3.0386,-2.9845,-2.9508,-2.922,-2.9003,-2.8703,-2.851,-2.851,-2.851,-2.851,-2.851,-2.851,-2.851,-2.851,-2.851,-2.851,-2.851,-2.851,-2.851,-2.851,-2.851,-2.851,-2.851,-2.851,-2.851,-2.851,-2.851,-2.859,-2.8749,-2.8973,-2.9287,-2.1696,-2.1696,-2.1696,0.0,0.0,0.0,-2.1696,-2.1696,-2.1696,0.0,0.0,0.0,0.0,0.0,0.0,0.0,0.0,0.0,0.0,0.0,0.0,0.0,0.0,0.0,0.0,0.0,-2.1696,-2.1696,-2.1696,-2.1696,-2.1696,-2.1696,-2.1696,-2.1696,-2.1696,-2.1696,-2.1696,-2.1696,-2.1696,-2.1696,-2.1696,-2.1696,-2.1696,-2.1696,-2.1696,-2.1696,-2.1696,-2.1696,-2.1687,-2.182,-2.2777,-2.4212,-2.4352,-2.5038,-2.602,-2.704,-2.747,-2.7712,-2.8976,-2.9412,-2.9481,-2.9906,-3.0224,-3.0448,-3.0493,-3.0805,-3.1128,-3.1172,-3.136,-3.1536,-3.1536,-3.1187,-3.0826,-3.0826,-3.0477,-3.0074,-3.0013,-3.0001,-2.9977,-2.9917,-2.9965,-2.9833,-2.9304,-2.9208,-2.9051,-2.8582,-2.851,-2.851,-2.851,-2.851,-2.851,-2.851,-2.851,-2.851,-2.851,-2.851,-2.851,-2.851,-2.851,-2.851,-2.851,-2.851,-2.851,-2.851,-2.851,-2.855,-2.855,-2.855,-2.8697,-2.9052,-2.9131,-2.9378,0.0,0.0,0.0,0.0,0.0,0.0,-2.1696,-2.1696,-2.1696,0.0,0.0,0.0,0.0,0.0,0.0,0.0,0.0,0.0,0.0,0.0,0.0,0.0,0.0,0.0,0.0,0.0,-2.1696,-2.1696,-2.1696,-2.1696,-2.1696,-2.1696,-2.1696,-2.1696,-2.1696,-2.1696,-2.1696,-2.1696,-2.1696,-2.1696,-2.1696,-2.1696,-2.1696,-2.1696,-2.1696,-2.1696,-2.1696,-2.1696,-2.1776,-2.2501,-2.2596,-2.2348,-2.3435,-2.4451,-2.5493,-2.6778,-2.7766,-2.8496,-2.8772,-2.885,-2.8916,-2.9138,-2.9259,-2.9389,-2.9746,-2.9917,-3.0058,-3.0259,-3.0356,-3.0398,-3.0398,-3.0314,-3.0242,-3.0242,-3.017,-2.9965,-2.9544,-2.946,-2.9328,-2.8895,-2.916,-2.928,-2.8751,-2.8667,-2.8631,-2.8522,-2.851,-2.851,-2.851,-2.851,-2.851,-2.851,-2.851,-2.851,-2.851,-2.851,-2.851,-2.851,-2.851,-2.851,-2.851,-2.851,-2.851,-2.851,-2.8657,-2.8724,-2.8724,-2.8724,-2.8803,-2.8882,-2.9184,-2.938,0.0,0.0,0.0,-2.1696,0.0,0.0,0.0,-2.1696,-2.1696,0.0,0.0,0.0,0.0,0.0,0.0,0.0,0.0,0.0,0.0,0.0,0.0,0.0,0.0,0.0,0.0,0.0,-2.1696,-2.1696,-2.1696,-2.1696,-2.1696,-2.1696,-2.1696,-2.1696,-2.1696,-2.1696,-2.1696,-2.1696,-2.1696,-2.1696,-2.1696,-2.1696,-2.1696,-2.1696,-2.1696,-2.1696,-2.1696,-2.1696,-2.1741,-2.2201,-2.2122,-2.1839,-2.3492,-2.4395,-2.498,-2.6077,-2.6808,-2.7363,-2.8114,-2.843,-2.8561,-2.8749,-2.9098,-2.9355,-2.9525,-2.9694,-2.9917,-3.0044,-3.0086,-3.0086,-3.0086,-2.9893,-2.9689,-2.9689,-2.9496,-2.9232,-2.8967,-2.8907,-2.8823,-2.8558,-2.8727,-2.8823,-2.8558,-2.851,-2.851,-2.851,-2.851,-2.851,-2.851,-2.851,-2.851,-2.851,-2.851,-2.851,-2.851,-2.851,-2.851,-2.851,-2.851,-2.851,-2.851,-2.851,-2.851,-2.851,-2.8618,-2.8657,-2.8657,-2.8843,-2.9,-2.9106,-2.9302,-2.947,0.0,0.0,0.0,0.0,0.0,-2.1696,0.0,0.0,0.0,0.0,0.0,0.0,0.0,0.0,0.0,0.0,0.0,0.0,0.0,0.0,0.0,0.0,0.0,0.0,0.0,0.0,-2.1696,-2.1696,-2.1696,-2.1696,-2.1696,-2.1696,-2.1696,-2.1696,-2.1696,-2.1696,-2.1696,-2.1696,-2.1696,-2.1696,-2.1696,-2.1696,-2.1696,-2.1696,-2.1696,-2.1696,-2.1696,-2.1696,-2.1687,-2.1909,-2.1945,-2.2122,-2.3627,-2.4317,-2.4627,-2.5495,-2.5913,-2.6229,-2.747,-2.7995,-2.8189,-2.8499,-2.9019,-2.9451,-2.9272,-2.9481,-2.9785,-2.9785,-2.9785,-2.9785,-2.9785,-2.946,-2.9148,-2.9148,-2.8823,-2.851,-2.851,-2.851,-2.851,-2.851,-2.851,-2.851,-2.851,-2.851,-2.851,-2.851,-2.851,-2.851,-2.851,-2.851,-2.851,-2.851,-2.851,-2.851,-2.851,-2.851,-2.851,-2.851,-2.851,-2.851,-2.851,-2.851,-2.851,-2.851,-2.855,-2.859,-2.863,-2.8973,-2.9236,-2.9341,-2.9419,-2.9599,0.0,0.0,0.0,0.0,-2.1696,0.0,0.0,0.0,0.0,0.0,0.0,0.0,0.0,0.0,0.0,0.0,0.0,0.0,0.0,0.0,0.0,0.0,0.0,0.0,0.0,0.0,0.0,-2.1696,-2.1696,-2.1696,-2.1696,-2.1696,-2.1696,-2.1696,-2.1696,-2.1696,-2.1696,-2.1696,-2.1696,-2.1696,-2.1696,-2.1696,-2.1696,-2.1696,-2.1696,-2.1696,-2.1696,-2.1696,-2.1776,-2.2589,-2.2921,-2.2965,-2.3183,-2.3757,-2.4627,-2.5495,-2.631,-2.7097,-2.7429,-2.7563,-2.7656,-2.812,-2.8438,-2.8651,-2.8611,-2.8651,-2.8691,-2.8691,-2.8691,-2.8691,-2.8691,-2.8643,-2.8595,-2.8595,-2.8558,-2.851,-2.851,-2.851,-2.851,-2.851,-2.851,-2.851,-2.851,-2.851,-2.851,-2.851,-2.851,-2.851,-2.851,-2.851,-2.851,-2.851,-2.851,-2.851,-2.851,-2.851,-2.851,-2.851,-2.851,-2.851,-2.851,-2.851,-2.851,-2.851,-2.8685,-2.8843,-2.9013,-2.9275,-2.9275,-2.9131,-2.9585,-2.9792,0.0,0.0,0.0,0.0,0.0,0.0,-2.1741,0.0,-2.1696,0.0,0.0,0.0,0.0,0.0,0.0,0.0,0.0,0.0,0.0,0.0,0.0,0.0,0.0,0.0,0.0,0.0,0.0,0.0,0.0,-2.1696,-2.1696,-2.1696,-2.1696,-2.1696,-2.1696,-2.1696,-2.1696,-2.1696,-2.1696,-2.1696,-2.1696,-2.1696,-2.1696,-2.1696,-2.1696,-2.1696,-2.1696,-2.1696,-2.1731,-2.2122,-2.229,-2.229,-2.229,-2.3193,-2.4541,-2.4914,-2.5715,-2.6622,-2.6734,-2.7267,-2.7966,-2.8259,-2.8339,-2.8339,-2.8471,-2.851,-2.851,-2.851,-2.851,-2.851,-2.851,-2.851,-2.851,-2.851,-2.851,-2.851,-2.851,-2.851,-2.851,-2.851,-2.851,-2.851,-2.851,-2.851,-2.851,-2.851,-2.851,-2.851,-2.851,-2.851,-2.851,-2.851,-2.851,-2.851,-2.851,-2.851,-2.851,-2.851,-2.851,-2.851,-2.851,-2.851,-2.855,-2.8657,-2.8764,-2.8882,-2.9091,-2.9314,-2.9341,-2.9275,-2.9624,-2.9792,-2.2362,0.0,0.0,0.0,0.0,0.0,0.0,0.0,0.0,0.0,0.0,0.0,0.0,0.0,0.0,0.0,0.0,0.0,0.0,0.0,0.0,0.0,0.0,0.0,0.0,0.0,0.0,0.0,-2.1696,0.0,-2.1696,-2.1696,-2.1696,-2.1696,-2.1696,-2.1696,-2.1696,-2.1696,-2.1696,-2.1696,-2.1696,-2.1696,-2.1696,-2.1696,-2.1696,-2.1696,-2.1696,-2.1696,-2.1696,-2.1785,-2.183,-2.183,-2.1865,-2.2731,-2.394,-2.4155,-2.4914,-2.5852,-2.5966,-2.667,-2.7632,-2.8007,-2.8047,-2.8007,-2.8379,-2.851,-2.851,-2.851,-2.851,-2.851,-2.851,-2.851,-2.851,-2.851,-2.851,-2.851,-2.851,-2.851,-2.851,-2.851,-2.851,-2.851,-2.851,-2.851,-2.851,-2.851,-2.851,-2.851,-2.851,-2.851,-2.851,-2.851,-2.851,-2.851,-2.851,-2.851,-2.851,-2.851,-2.851,-2.851,-2.851,-2.855,-2.8657,-2.8791,-2.8831,-2.8961,-2.9157,-2.9341,-2.9419,-2.9509,-2.9702,-2.9792,0.0,0.0,0.0,-2.2141,0.0,0.0,0.0,0.0,-2.2008,0.0,0.0,0.0,0.0,0.0,-2.1559,-2.12,0.0,0.0,0.0,0.0,0.0,0.0,0.0,0.0,0.0,0.0,0.0,0.0,-2.1696,0.0,-2.1696,-2.1696,-2.1696,-2.1696,-2.1696,-2.1696,-2.1696,-2.1696,-2.1696,-2.1696,-2.1696,-2.1696,-2.1696,-2.1696,-2.1696,-2.1696,-2.1696,-2.1696,-2.1741,-2.1963,-2.2097,-2.2097,-2.2309,-2.2388,-2.2564,-2.329,-2.4102,-2.4914,-2.5368,-2.5694,-2.6038,-2.6928,-2.7226,-2.7389,-2.8219,-2.851,-2.851,-2.851,-2.851,-2.851,-2.851,-2.851,-2.851,-2.851,-2.851,-2.851,-2.851,-2.851,-2.851,-2.851,-2.851,-2.851,-2.851,-2.851,-2.851,-2.851,-2.851,-2.851,-2.851,-2.851,-2.851,-2.851,-2.851,-2.851,-2.851,-2.851,-2.851,-2.851,-2.851,-2.851,-2.851,-2.8685,-2.8803,-2.8791,-2.9,-2.9197,-2.938,-2.9419,-2.9509,-2.9792,-2.9792,-2.9792,0.0,0.0,-2.2784,-2.2397,0.0,0.0,0.0,0.0,0.0,0.0,0.0,0.0,0.0,0.0,-2.1686,-2.1769,-2.1728,-2.1641,0.0,0.0,0.0,0.0,0.0,0.0,0.0,0.0,0.0,-2.1696,-2.1696,-2.1696,0.0,-2.1696,-2.1696,-2.1696,-2.1696,-2.1696,-2.1696,-2.1696,-2.1696,-2.1696,-2.1696,-2.1696,-2.1696,-2.1696,-2.1696,-2.1696,-2.1696,-2.1785,-2.1963,-2.2052,-2.2185,-2.2309,-2.2353,-2.2397,-2.2432,-2.2696,-2.3464,-2.4478,-2.5358,-2.5735,-2.5872,-2.6163,-2.6287,-2.6453,-2.7348,-2.7644,-2.7765,-2.8339,-2.851,-2.851,-2.851,-2.851,-2.851,-2.851,-2.851,-2.851,-2.851,-2.851,-2.851,-2.851,-2.851,-2.851,-2.851,-2.851,-2.851,-2.851,-2.851,-2.851,-2.851,-2.851,-2.851,-2.851,-2.851,-2.851,-2.851,-2.851,-2.851,-2.851,-2.8618,-2.8685,-2.8685,-2.8882,-2.904,-2.9184,-2.9263,-2.9431,-2.965,-2.965,-2.9702,-2.9792,-2.9792,-2.9792,-2.2925,-2.3013,0.0,-2.2662,-2.2706,0.0,-2.2485,0.0,0.0,0.0,0.0,0.0,0.0,0.0,-2.1963,-2.2097,-2.1963,-2.183,0.0,-2.1696,0.0,0.0,0.0,0.0,0.0,0.0,-2.1696,-2.1696,-2.1696,-2.1696,0.0,0.0,-2.1696,-2.1696,-2.1696,-2.1696,-2.1696,-2.1696,-2.1696,-2.1696,-2.1696,-2.1696,-2.1696,-2.1696,-2.1696,-2.1696,-2.1785,-2.1919,-2.2097,-2.2274,-2.2451,-2.2574,-2.2618,-2.2662,-2.2652,-2.2574,-2.3038,-2.3844,-2.4606,-2.5073,-2.5411,-2.5704,-2.5777,-2.6038,-2.7296,-2.7429,-2.7307,-2.7886,-2.8259,-2.8431,-2.8139,-2.8259,-2.851,-2.851,-2.851,-2.851,-2.851,-2.851,-2.851,-2.851,-2.851,-2.851,-2.851,-2.851,-2.851,-2.851,-2.851,-2.851,-2.851,-2.851,-2.851,-2.851,-2.851,-2.851,-2.851,-2.851,-2.851,-2.851,-2.8685,-2.8791,-2.8791,-2.9079,-2.9275,-2.9419,-2.9509,-2.9611,-2.9792,-2.9792,-2.9792,-2.9792,-2.9792,-2.9792]}]]